Date StartTime U_cm/s V_cm/s W_cm/s Ustd_cm/s Vstd_cm/s Wstd_cm/s Uvar_(cm/s)^2 Vvar_(cm/s)^2 Wvar_(cm/s)^2 KE_(m/s)^2 TurbulentKE_(m/s)^2 HorizWindSpeed_cm/s FrictionSpeec_cm/s DragCoef SpeedOfSound_m/s SonicTemperature_C Pressure_mb 
08/15/2013  00:00:00      -44.671       36.594        2.995       43.380       27.055       18.461     1881.797      731.949      340.793        0.315        0.148       57.747       23.234        0.162      345.015       22.244      862.432
08/15/2013  00:01:00      -42.316       32.761      -13.549       32.917       15.121       16.567     1083.502      228.647      274.472        0.232        0.079       53.516       20.476        0.146      345.272       22.685      862.424
08/15/2013  00:02:00       23.718       57.391       12.198       30.705       25.026       28.134      942.826      626.283      791.504        0.318        0.118       62.099       14.383        0.054      344.830       21.928      862.401
08/15/2013  00:03:00      -35.001       12.725       -1.322       40.442       46.628       19.470     1635.568     2174.150      379.085        0.279        0.209       37.243       11.202        0.090      344.984       22.192      862.422
08/15/2013  00:04:00      -49.211      -20.438        4.997       33.932       44.876       19.821     1151.404     2013.813      392.860        0.321        0.178       53.286       16.647        0.098      344.959       22.147      862.450
08/15/2013  00:05:00      -55.128      -48.446        4.728       54.790       36.432       23.144     3001.910     1327.300      535.626        0.514        0.243       73.390       26.711        0.132      344.993       22.207      862.473
08/15/2013  00:06:00      -53.562      -39.956        1.908       43.536       33.603       21.440     1895.365     1129.164      459.666        0.398        0.174       66.823       22.930        0.118      345.123       22.429      862.457
08/15/2013  00:07:00      -46.243       16.965        0.975       39.680       19.835       19.146     1574.472      393.427      366.554        0.238        0.117       49.257       16.616        0.114      345.162       22.496      862.439
08/15/2013  00:08:00      -95.716       -6.057      -11.486       49.813       32.903       17.257     2481.294     1082.597      297.793        0.660        0.193       95.908        9.780        0.010      345.155       22.482      862.449
08/15/2013  00:09:00      -42.673       44.449       -6.444       29.770       41.362       22.482      886.244     1710.827      505.441        0.347        0.155       61.617       22.265        0.131      345.282       22.700      862.464
08/15/2013  00:10:00     -100.382       59.730       -7.284       29.092       42.416       19.096      846.362     1799.103      364.669        0.835        0.151      116.809       13.558        0.013      345.142       22.461      862.461
08/15/2013  00:11:00     -102.815        8.556      -11.672       41.339       26.883       20.455     1708.934      722.686      418.401        0.681        0.143      103.170       12.361        0.014      345.265       22.673      862.458
08/15/2013  00:12:00      -82.867        3.967      -10.523       42.662       23.053       15.348     1820.059      531.431      235.555        0.479        0.129       82.962       13.454        0.026      345.229       22.609      862.467
08/15/2013  00:13:00       32.477       17.292       10.819       33.569       29.798       22.655     1126.908      887.900      513.237        0.200        0.126       36.794       15.304        0.173      344.673       21.659      862.458
08/15/2013  00:14:00      -32.425       66.354       -6.275       46.824       42.521       32.584     2192.470     1808.053     1061.703        0.528        0.253       73.853       24.771        0.113      345.387       22.880      862.451
08/15/2013  00:15:00      -36.923       58.280       -5.841       35.398       30.083       15.740     1253.024      904.973      247.734        0.360        0.120       68.992       17.856        0.067      345.367       22.846      862.447
08/15/2013  00:16:00      -62.031       73.342       -4.579       30.120       33.046       19.667      907.210     1092.026      386.775        0.582        0.119       96.057       18.583        0.037      345.249       22.645      862.452
08/15/2013  00:17:00      -69.611       56.005       -7.680       25.922       29.445       16.489      671.939      867.011      271.883        0.493        0.091       89.343       15.016        0.028      345.266       22.672      862.464
08/15/2013  00:18:00      -84.205      -27.221        0.311       40.276       36.177       16.956     1622.176     1308.811      287.507        0.552        0.161       88.495       13.016        0.022      345.044       22.295      862.490
08/15/2013  00:19:00      -13.560      -26.445       -2.175       49.228       33.506       18.816     2423.422     1122.648      354.042        0.239        0.195       29.719       23.522        0.626      344.774       21.831      862.510
08/15/2013  00:20:00     -102.546      -46.683       -3.742       32.309       38.902       22.661     1043.841     1513.370      513.509        0.789        0.154      112.672       15.502        0.019      345.083       22.360      862.518
08/15/2013  00:21:00     -112.689       36.700      -11.259       33.218       23.539       17.803     1103.415      554.090      316.933        0.807        0.099      118.515       13.694        0.013      345.193       22.548      862.511
08/15/2013  00:22:00     -111.926       42.440       -1.786       46.040       35.750       30.653     2119.699     1278.050      939.599        0.933        0.217      119.702       25.840        0.047      345.540       23.143      862.501
08/15/2013  00:23:00      -61.697       27.443        6.466       53.169       30.656       22.800     2826.898      939.798      519.822        0.444        0.214       67.525       24.726        0.134      345.215       22.586      862.504
08/15/2013  00:24:00      -58.996        0.410        2.824       21.918       18.469       12.221      480.408      341.090      149.363        0.223        0.049       58.997        9.063        0.024      345.188       22.540      862.511
08/15/2013  00:25:00      -23.549       -3.923        2.787       16.547       13.294       10.102      273.813      176.726      102.059        0.057        0.028       23.874        9.127        0.146      345.061       22.324      862.529
08/15/2013  00:26:00      -19.395       14.877       -1.008       22.378       14.358        6.956      500.778      206.147       48.389        0.068        0.038       24.444        4.185        0.029      344.852       21.963      862.539
08/15/2013  00:27:00      -25.038       40.370        2.622       15.023       14.222       13.592      225.700      202.272      184.741        0.144        0.031       47.505       12.002        0.064      344.952       22.137      862.540
08/15/2013  00:28:00      -43.570       91.503       -5.035       18.988       22.292       10.847      360.546      496.934      117.667        0.564        0.049      101.346       10.005        0.010      345.194       22.549      862.520
08/15/2013  00:29:00        4.697      117.473      -18.364       24.524       31.104       14.135      601.429      967.444      199.786        0.796        0.088      117.567       11.075        0.009      345.112       22.410      862.517
08/15/2013  00:30:00      -46.736      136.934      -25.054       23.564       40.941       14.539      555.270     1676.132      211.386        1.200        0.122      144.690        7.970        0.003      345.394       22.893      862.504
08/15/2013  00:31:00      -13.420      135.182      -23.142       20.706       25.183       13.311      428.742      634.176      177.195        1.011        0.062      135.846       12.670        0.009      345.481       23.041      862.498
08/15/2013  00:32:00      -64.137       96.500      -14.394       49.775       53.628       25.156     2477.528     2876.000      632.806        0.981        0.299      115.870       20.740        0.032      345.662       23.352      862.496
08/15/2013  00:33:00      -11.070       49.668      -10.808       42.094       28.347       26.527     1771.888      803.568      703.703        0.299        0.164       50.887       19.310        0.144      345.695       23.409      862.496
08/15/2013  00:34:00        1.706       11.689       23.940       31.024       16.493       23.140      962.513      272.029      535.474        0.124        0.089       11.812       24.296        4.231      345.299       22.729      862.501
08/15/2013  00:35:00      -16.567       35.296        5.089       10.843       26.137       14.801      117.568      683.139      219.075        0.128        0.051       38.991       14.934        0.147      344.826       21.920      862.491
08/15/2013  00:36:00       -7.078       52.233       -7.472       24.629       25.299       14.003      606.564      640.046      196.073        0.214        0.072       52.710        6.365        0.015      344.636       21.596      862.473
08/15/2013  00:37:00       -9.373       94.262       -4.697       26.230       35.899       18.429      687.993     1288.738      339.636        0.566        0.116       94.727       17.142        0.033      344.917       22.076      862.454
08/15/2013  00:38:00       11.998      141.293      -17.322       16.304       21.067       17.400      265.832      443.828      302.749        1.071        0.051      141.802        8.291        0.003      345.252       22.651      862.444
08/15/2013  00:39:00      -19.922      116.114      -19.029       33.552       33.882       19.406     1125.719     1147.993      376.601        0.845        0.133      117.811       12.949        0.012      345.529       23.124      862.448
08/15/2013  00:40:00      -38.680       44.633       -9.280       21.586       35.133       11.649      465.970     1234.357      135.688        0.270        0.092       59.061       10.926        0.034      344.940       22.115      862.455
08/15/2013  00:41:00      -17.435       17.663        2.313       13.556       15.166       14.686      183.757      230.001      215.691        0.063        0.031       24.818        9.313        0.141      344.555       21.458      862.451
08/15/2013  00:42:00       56.232        8.646       14.714       39.252       25.349       20.841     1540.720      642.571      434.345        0.304        0.131       56.893       10.387        0.033      343.886       20.313      862.435
08/15/2013  00:43:00       74.537       29.333        3.921       35.512       20.129       24.065     1261.128      405.166      579.108        0.434        0.112       80.101       14.520        0.033      344.121       20.716      862.424
08/15/2013  00:44:00       -0.330       16.882        3.059       17.043       18.087        8.758      290.478      327.150       76.709        0.049        0.035       16.886        5.086        0.091      344.416       21.218      862.436
08/15/2013  00:45:00       10.054       14.326       11.419       20.211       12.956       16.063      408.470      167.850      258.035        0.064        0.042       17.502       10.903        0.388      344.005       20.517      862.433
08/15/2013  00:46:00       -6.347        8.566        6.682       29.793       10.707       14.577      887.597      114.640      212.482        0.069        0.061       10.661       15.087        2.003      343.937       20.400      862.438
08/15/2013  00:47:00      -43.607        2.735       -0.763       14.373       15.290        9.061      206.580      233.794       82.097        0.122        0.026       43.692        7.857        0.032      344.390       21.176      862.482
08/15/2013  00:48:00       21.516       31.049       -5.502       38.203       19.470       19.277     1459.472      379.099      371.602        0.183        0.111       37.775       12.196        0.104      344.311       21.039      862.492
08/15/2013  00:49:00       47.144       23.228       10.623       46.405       25.861       16.336     2153.420      668.786      266.865        0.298        0.154       52.555        8.105        0.024      343.974       20.465      862.493
08/15/2013  00:50:00        8.300       41.918       12.291       17.927       15.987       14.408      321.368      255.568      207.603        0.138        0.039       42.732        9.071        0.045      344.205       20.858      862.510
08/15/2013  00:51:00       31.405       52.022        3.472       24.744       34.057       16.405      612.253     1159.906      269.120        0.287        0.102       60.767       13.182        0.047      344.087       20.658      862.522
08/15/2013  00:52:00       20.875       21.596       20.485       29.724       27.070       22.412      883.527      732.810      502.306        0.172        0.106       30.036       14.606        0.236      343.831       20.220      862.519
08/15/2013  00:53:00       50.027       48.978       34.615       30.763       35.504       27.104      946.350     1260.546      734.613        0.452        0.147       70.011       20.637        0.087      344.030       20.560      862.514
08/15/2013  00:54:00       52.963       33.963       32.378       25.787       20.078       25.866      664.944      403.138      669.046        0.337        0.087       62.917        8.154        0.017      344.189       20.832      862.523
08/15/2013  00:55:00       57.437       42.837       17.645       33.397       35.124       22.600     1115.374     1233.671      510.751        0.415        0.143       71.651       16.979        0.056      343.988       20.489      862.525
08/15/2013  00:56:00       39.033       45.347        6.896       25.197       17.594       22.208      634.866      309.541      493.202        0.253        0.072       59.832       12.415        0.043      344.307       21.033      862.518
08/15/2013  00:57:00       19.321       26.221        8.305       20.016       21.494       10.251      400.620      461.991      105.089        0.105        0.048       32.570        9.433        0.084      344.295       21.013      862.505
08/15/2013  00:58:00       -2.780        8.794       11.842       22.770       12.125        8.362      518.458      147.022       69.928        0.048        0.037        9.222        8.260        0.802      344.026       20.552      862.498
08/15/2013  00:59:00      -39.729       -9.991        8.080       16.611       14.257        9.418      275.934      203.264       88.708        0.116        0.028       40.966        9.436        0.053      344.195       20.842      862.488
08/15/2013  01:00:00      -18.875      -22.125        0.102       10.340       10.095        7.335      106.925      101.901       53.800        0.055        0.013       29.082        4.057        0.019      344.153       20.770      862.495
08/15/2013  01:01:00      -50.833      -36.549      -11.830        6.787        8.405        4.999       46.063       70.644       24.990        0.210        0.007       62.608        2.625        0.002      344.389       21.174      862.521
08/15/2013  01:02:00       -9.204        6.202       12.439       22.517       25.971       16.520      507.005      674.490      272.919        0.087        0.073       11.098       21.943        3.909      344.033       20.566      862.528
08/15/2013  01:03:00       28.290       35.811       17.391       26.880       20.794       19.255      722.528      432.383      370.765        0.196        0.076       45.637       13.998        0.094      344.070       20.629      862.520
08/15/2013  01:04:00       42.326       83.326       13.443       21.078       33.503       24.232      444.264     1122.428      587.205        0.553        0.108       93.460       24.558        0.069      344.540       21.432      862.499
08/15/2013  01:05:00       33.631      109.477       -8.336       31.663       39.273       26.838     1002.556     1542.351      720.266        0.822        0.163      114.526       24.311        0.045      344.653       21.625      862.469
08/15/2013  01:06:00       21.915       62.275        9.089       48.921       48.790       29.840     2393.234     2380.462      890.413        0.505        0.283       66.018       26.825        0.165      344.429       21.241      862.467
08/15/2013  01:07:00       -7.420      178.655      -16.803       30.420       46.178       22.730      925.405     2132.401      516.670        1.791        0.179      178.809       22.603        0.016      344.763       21.811      862.490
08/15/2013  01:08:00      -43.863       52.489        6.437       34.373       62.406       30.960     1181.514     3894.551      958.531        0.538        0.302       68.404       19.683        0.083      344.137       20.743      862.506
08/15/2013  01:09:00     -106.522      -27.192      -17.586       29.962       27.763       22.122      897.740      770.770      489.369        0.728        0.108      109.938       18.453        0.028      344.238       20.914      862.529
08/15/2013  01:10:00       24.542      -90.725        3.608       66.546       93.134       40.053     4428.423     8673.876     1604.247        1.177        0.735       93.986       37.538        0.160      344.611       21.552      862.541
08/15/2013  01:11:00      104.689       41.230       56.457       99.796       81.847       63.131     9959.290     6698.990     3985.504        1.824        1.032      112.515       58.810        0.273      344.748       21.788      862.492
08/15/2013  01:12:00      -64.987       42.149      -16.211       40.516       48.756       19.760     1641.560     2377.151      390.440        0.534        0.220       77.459       27.604        0.127      344.390       21.175      862.527
08/15/2013  01:13:00      -63.457       55.181      -13.955       17.145       21.985       13.155      293.950      483.348      173.067        0.411        0.048       84.093       10.386        0.015      344.755       21.798      862.546
08/15/2013  01:14:00      -45.730       12.454       -5.188       29.180       39.899       19.969      851.451     1591.895      398.780        0.256        0.142       47.395       16.098        0.115      344.144       20.754      862.556
08/15/2013  01:15:00      -72.485       15.187      -10.499       28.488       17.440       12.897      811.577      304.138      166.327        0.344        0.064       74.059       11.564        0.024      343.886       20.313      862.561
08/15/2013  01:16:00     -118.268       40.420      -25.818       34.151       36.904       24.705     1166.293     1361.925      610.347        0.971        0.157      124.984       16.750        0.018      344.014       20.531      862.555
08/15/2013  01:17:00     -125.909        9.487      -15.356       47.520       47.636       19.482     2258.172     2269.185      379.560        1.054        0.245      126.266       20.369        0.026      343.843       20.240      862.555
08/15/2013  01:18:00     -147.397        2.132      -17.461       49.263       32.056       23.687     2426.855     1027.594      561.069        1.302        0.201      147.413       22.949        0.024      343.549       19.738      862.564
08/15/2013  01:19:00     -154.112        5.762      -27.190       42.437       34.883       20.756     1800.858     1216.850      430.804        1.399        0.172      154.219       13.838        0.008      343.510       19.674      862.565
08/15/2013  01:20:00     -141.335        2.473      -19.569       29.412       34.619       20.438      865.070     1198.465      417.724        1.142        0.124      141.357       13.003        0.008      343.739       20.062      862.562
08/15/2013  01:21:00     -147.827        0.971      -16.294       40.043       31.365       20.282     1603.437      983.734      411.354        1.256        0.150      147.830       18.450        0.016      343.728       20.043      862.570
08/15/2013  01:22:00     -121.903      -38.979       -9.049       32.389       32.664       20.304     1049.037     1066.969      412.270        0.949        0.126      127.983       13.524        0.011      343.570       19.774      862.572
08/15/2013  01:23:00      -71.951      -20.392        1.390       26.900       20.027       15.323      723.620      401.093      234.798        0.348        0.068       74.784       13.608        0.033      343.542       19.727      862.555
08/15/2013  01:24:00     -169.023      -19.987      -14.786       33.409       27.395       14.863     1116.180      750.493      220.911        1.564        0.104      170.200       10.987        0.004      343.444       19.560      862.557
08/15/2013  01:25:00     -103.096      -20.851       -7.976       24.430       19.774       12.275      596.820      391.003      150.683        0.613        0.057      105.183       12.621        0.014      343.527       19.700      862.560
08/15/2013  01:26:00     -114.831       -3.117      -13.650       19.004       13.648        9.300      361.168      186.278       86.485        0.701        0.032      114.873        5.829        0.003      343.540       19.723      862.547
08/15/2013  01:27:00     -150.016      -22.722       -3.726       30.465       22.135       17.276      928.121      489.938      298.447        1.238        0.086      151.727       14.628        0.009      343.569       19.772      862.542
08/15/2013  01:28:00     -116.052      -22.759       -4.026       49.893       30.863       22.307     2489.264      952.531      497.600        0.897        0.197      118.263       24.820        0.044      343.388       19.466      862.558
08/15/2013  01:29:00     -130.624       -0.994      -15.826       33.490       25.875       16.312     1121.565      669.503      266.065        0.969        0.103      130.628        9.486        0.005      343.436       19.546      862.556
08/15/2013  01:30:00      -78.278      -15.803       -1.222       34.111       18.817       11.904     1163.578      354.096      141.710        0.402        0.083       79.858       14.933        0.035      343.352       19.404      862.554
08/15/2013  01:31:00     -132.842      -42.186       -7.326       34.650       23.803       16.785     1200.620      566.577      281.739        1.076        0.102      139.379       17.249        0.015      343.529       19.705      862.554
08/15/2013  01:32:00     -124.753      -22.487       -6.673       19.938       15.380       14.542      397.540      236.541      211.469        0.848        0.042      126.763       12.387        0.010      343.552       19.744      862.554
08/15/2013  01:33:00     -105.685      -13.060      -10.398       24.288       19.746       15.643      589.901      389.918      244.707        0.634        0.061      106.489       14.092        0.018      343.435       19.546      862.558
08/15/2013  01:34:00     -103.413        8.595       -9.464       28.091       17.966       13.984      789.090      322.779      195.557        0.608        0.065      103.769       10.735        0.011      343.448       19.567      862.558
08/15/2013  01:35:00     -121.479       41.913      -15.738       36.849       23.113       19.324     1357.828      534.191      373.421        0.951        0.113      128.507        8.881        0.005      343.551       19.742      862.542
08/15/2013  01:36:00     -140.632       36.865       -8.939       26.190       20.915       14.754      685.922      437.418      217.675        1.128        0.067      145.383        7.085        0.002      343.670       19.946      862.541
08/15/2013  01:37:00     -156.237       -1.492      -11.715       23.585       30.242       14.714      556.256      914.571      216.500        1.312        0.084      156.244       11.380        0.005      343.485       19.631      862.546
08/15/2013  01:38:00     -133.624        1.029      -10.987       26.130       33.141       16.065      682.799     1098.314      258.087        1.001        0.102      133.628       13.351        0.010      343.221       19.181      862.551
08/15/2013  01:39:00     -159.651       43.086      -10.554       32.030       24.365       16.803     1025.928      593.665      282.331        1.468        0.095      165.362       14.324        0.008      343.329       19.364      862.547
08/15/2013  01:40:00     -138.537       46.496      -11.155       33.453       30.543       22.509     1119.088      932.876      506.651        1.202        0.128      146.132       14.359        0.010      343.434       19.541      862.527
08/15/2013  01:41:00     -136.095       37.109      -11.698       30.704       24.951       20.865      942.757      622.560      435.348        1.102        0.100      141.063       15.976        0.013      343.402       19.489      862.505
08/15/2013  01:42:00     -170.008       17.582      -23.715       41.449       27.588       21.123     1717.980      761.094      446.197        1.635        0.146      170.915       12.573        0.005      343.403       19.489      862.508
08/15/2013  01:43:00     -185.572       -0.138      -28.846       34.102       29.754       16.381     1162.973      885.315      268.326        1.879        0.116      185.572       15.784        0.007      343.363       19.420      862.520
08/15/2013  01:44:00     -190.017       -8.520      -23.394       35.772       44.088       27.902     1279.648     1943.726      778.505        2.036        0.200      190.208       23.989        0.016      343.259       19.243      862.515
08/15/2013  01:45:00     -187.239       40.579      -24.346       48.127       31.465       17.293     2316.240      990.021      299.058        2.045        0.180      191.586       16.741        0.008      343.367       19.426      862.508
08/15/2013  01:46:00     -159.885        4.487      -22.700       36.381       38.074       20.970     1323.581     1449.667      439.742        1.466        0.161      159.948       18.533        0.013      343.382       19.454      862.516
08/15/2013  01:47:00     -122.076       -4.381      -14.502       38.824       30.433       23.236     1507.280      926.168      539.891        0.905        0.149      122.154       18.086        0.022      343.336       19.376      862.514
08/15/2013  01:48:00     -110.907        4.010       -6.987       32.815       28.487       19.678     1076.856      811.502      387.220        0.732        0.114      110.979       16.810        0.023      343.299       19.312      862.517
08/15/2013  01:49:00     -124.614       17.573       -9.350       24.489       17.661       14.683      599.699      311.899      215.587        0.853        0.056      125.847       14.279        0.013      343.373       19.439      862.514
08/15/2013  01:50:00     -124.705       21.948       -9.390       24.860       17.072       11.875      618.028      291.468      141.006        0.859        0.053      126.622       11.726        0.009      343.396       19.479      862.506
08/15/2013  01:51:00      -95.044      -14.092       -5.998       25.434       15.302       16.258      646.880      234.147      264.327        0.521        0.057       96.083       15.092        0.025      343.345       19.391      862.502
08/15/2013  01:52:00     -106.419        2.731       -5.623       21.970       13.613        8.611      482.692      185.312       74.143        0.605        0.037      106.454        9.102        0.007      343.502       19.657      862.489
08/15/2013  01:53:00      -90.115      -21.755       -5.035       23.231       18.262       12.309      539.666      333.513      151.522        0.482        0.051       92.704       13.278        0.021      343.366       19.428      862.481
08/15/2013  01:54:00     -117.885      -22.873       -7.186       21.004       14.403       11.616      441.184      207.455      134.921        0.763        0.039      120.084       11.179        0.009      343.258       19.244      862.490
08/15/2013  01:55:00     -105.490      -21.883       -6.519       17.121       17.881       13.057      293.116      319.728      170.476        0.622        0.039      107.736        8.101        0.006      343.157       19.070      862.482
08/15/2013  01:56:00      -86.260       -2.359       -3.761       25.489       23.697       16.079      649.692      561.570      258.522        0.446        0.073       86.292       13.817        0.026      343.159       19.075      862.487
08/15/2013  01:57:00      -84.112      -11.198       -4.260       42.124       19.735       15.387     1774.398      389.454      236.767        0.481        0.120       84.854       17.010        0.040      343.126       19.019      862.472
08/15/2013  01:58:00     -111.480       -2.620       -8.243       15.240       12.207       10.193      232.245      149.023      103.903        0.649        0.024      111.511        6.120        0.003      343.173       19.098      862.456
08/15/2013  01:59:00      -75.280       13.967       -4.630       31.105       12.952       13.579      967.547      167.746      184.398        0.360        0.066       76.565       16.068        0.044      343.098       18.970      862.450
08/15/2013  02:00:00      -91.659       17.085       -6.091       44.332       20.402       17.400     1965.292      416.255      302.771        0.571        0.134       93.237       20.443        0.048      343.327       19.359      862.436
08/15/2013  02:01:00     -141.104       11.775       -8.640       37.804       29.328       17.413     1429.175      860.110      303.227        1.136        0.130      141.594       19.563        0.019      343.312       19.335      862.434
08/15/2013  02:02:00     -182.235       62.468      -15.083       39.101       24.595       20.083     1528.908      604.934      403.329        1.994        0.127      192.645        8.979        0.002      343.405       19.492      862.439
08/15/2013  02:03:00     -162.828       63.564      -14.178       37.682       28.634       23.209     1419.921      819.894      538.657        1.677        0.139      174.795       19.687        0.013      343.330       19.366      862.434
08/15/2013  02:04:00     -164.691       53.246       -9.483       38.773       22.422       15.953     1503.362      502.725      254.498        1.615        0.113      173.084       13.994        0.007      343.399       19.482      862.418
08/15/2013  02:05:00     -155.103       34.481       -9.680       31.440       31.161       17.072      988.492      971.006      291.456        1.379        0.113      158.890       13.216        0.007      343.341       19.384      862.408
08/15/2013  02:06:00     -110.250       30.222       -5.885       48.081       32.067       27.386     2311.763     1028.261      749.987        0.860        0.205      114.317       28.912        0.064      343.317       19.344      862.407
08/15/2013  02:07:00      -85.758       -3.073      -11.846       20.915       22.407       15.982      437.423      502.055      255.425        0.435        0.060       85.813       14.706        0.029      343.255       19.238      862.406
08/15/2013  02:08:00      -80.719      -28.812       -3.026       33.792       27.735       15.983     1141.871      769.239      255.447        0.476        0.108       85.707       12.404        0.021      343.143       19.049      862.410
08/15/2013  02:09:00      -89.334       11.736       -7.151       22.528       29.820       14.718      507.519      889.236      216.625        0.489        0.081       90.102       11.547        0.016      343.181       19.112      862.425
08/15/2013  02:10:00      -75.819      -38.941       -5.562       24.769       24.327       15.015      613.513      591.813      225.454        0.436        0.072       85.234       12.471        0.021      343.052       18.892      862.435
08/15/2013  02:11:00      -76.397        9.576       -2.151       34.181       23.416       14.338     1168.336      548.326      205.566        0.393        0.096       76.995       15.109        0.039      342.953       18.724      862.443
08/15/2013  02:12:00      -57.571       28.776        8.092       46.249       24.390       17.966     2138.975      594.874      322.780        0.363        0.153       64.363       17.211        0.072      343.006       18.815      862.455
08/15/2013  02:13:00     -102.584       53.192      -15.029       39.051       33.093       24.480     1524.974     1095.148      599.249        0.840        0.161      115.555       18.737        0.026      343.433       19.542      862.461
08/15/2013  02:14:00     -124.667       44.846      -10.502       25.937       30.342       23.252      672.713      920.653      540.632        0.990        0.107      132.487       17.339        0.017      343.271       19.266      862.466
08/15/2013  02:15:00     -129.687       32.168      -23.657       26.444       21.732       14.921      699.290      472.297      222.648        0.990        0.070      133.617        9.764        0.005      343.265       19.256      862.480
08/15/2013  02:16:00     -117.619       11.399      -11.851       27.473       21.622       11.735      754.785      467.516      137.719        0.773        0.068      118.170        9.250        0.006      343.206       19.154      862.486
08/15/2013  02:17:00     -128.356        5.477      -15.565       34.158       21.519       18.125     1166.743      463.061      328.530        0.935        0.098      128.472       15.603        0.015      343.122       19.010      862.485
08/15/2013  02:18:00     -123.572      -12.372       -8.724       36.466       31.429       17.245     1329.801      987.799      297.391        0.906        0.131      124.190       16.510        0.018      343.063       18.911      862.485
08/15/2013  02:19:00      -90.499       -6.544      -10.810       47.131       21.918       14.595     2221.338      480.378      213.015        0.563        0.146       90.735       13.801        0.023      342.872       18.584      862.490
08/15/2013  02:20:00     -108.802       -6.153      -10.652       35.322       24.904       14.629     1247.654      620.226      214.008        0.704        0.104      108.976       13.558        0.015      342.841       18.534      862.489
08/15/2013  02:21:00     -120.238      -17.045      -10.556       28.815       22.226       13.399      830.332      493.975      179.524        0.818        0.075      121.440       12.449        0.011      342.869       18.581      862.485
08/15/2013  02:22:00     -115.637      -28.267       -8.010       20.753       15.348       12.369      430.697      235.558      152.997        0.753        0.041      119.041        9.794        0.007      342.756       18.387      862.480
08/15/2013  02:23:00     -135.503      -27.126      -11.864       17.294       14.541       15.897      299.086      211.443      252.708        1.000        0.038      138.191       12.706        0.008      342.753       18.383      862.486
08/15/2013  02:24:00     -125.057      -15.053      -12.729       23.397       19.317       18.180      547.429      373.153      330.528        0.864        0.063      125.960       13.953        0.012      342.734       18.350      862.494
08/15/2013  02:25:00     -120.206       -4.128      -10.531       23.867       17.409       14.866      569.618      303.068      220.989        0.784        0.055      120.277       12.284        0.010      342.731       18.345      862.491
08/15/2013  02:26:00     -102.453       -5.842      -11.451       25.356       17.734       13.981      642.945      314.499      195.464        0.591        0.058      102.619       10.431        0.010      342.705       18.303      862.482
08/15/2013  02:27:00     -110.946      -27.864       -7.174       11.858       11.340        9.171      140.604      128.595       84.105        0.674        0.018      114.391        7.459        0.004      342.830       18.516      862.494
08/15/2013  02:28:00     -100.340      -23.465       -5.267       27.620       16.756       13.114      762.878      280.760      171.988        0.593        0.061      103.048       14.963        0.021      342.731       18.345      862.497
08/15/2013  02:29:00     -102.704      -25.791      -10.381       30.954       19.662       14.278      958.156      386.606      203.868        0.643        0.077      105.893       15.828        0.022      342.691       18.278      862.491
08/15/2013  02:30:00     -114.815      -34.425       -5.613       17.458       14.761       12.014      304.772      217.874      144.348        0.753        0.033      119.864        9.687        0.007      342.667       18.236      862.501
08/15/2013  02:31:00     -117.238      -42.345       -5.063       13.729       15.737        8.866      188.477      247.669       78.599        0.804        0.026      124.651        6.841        0.003      342.612       18.143      862.499
08/15/2013  02:32:00     -119.347      -40.868       -7.470       14.074       14.475       11.014      198.072      209.524      121.311        0.825        0.026      126.150        7.977        0.004      342.578       18.086      862.494
08/15/2013  02:33:00      -81.784      -57.026       -7.047       33.801       26.367       19.971     1142.485      695.239      398.851        0.611        0.112       99.703       15.244        0.023      342.603       18.129      862.485
08/15/2013  02:34:00     -114.827      -67.895       -9.804       22.491       18.713       12.502      505.866      350.184      156.292        0.945        0.051      133.398        5.719        0.002      342.586       18.099      862.481
08/15/2013  02:35:00     -110.137      -49.737       -3.742       34.863       24.449       14.143     1215.430      597.752      200.035        0.832        0.101      120.847       13.658        0.013      342.510       17.971      862.471
08/15/2013  02:36:00      -99.577      -27.356        1.108       36.114       29.509       23.109     1304.198      870.769      534.015        0.669        0.135      103.267       24.872        0.058      342.536       18.015      862.457
08/15/2013  02:37:00     -137.739      -29.174      -13.671       19.762       18.131       13.113      390.553      328.729      171.952        1.045        0.045      140.795        8.504        0.004      342.545       18.030      862.456
08/15/2013  02:38:00     -142.653      -36.618       -4.715       18.212       21.635       13.510      331.676      468.068      182.528        1.135        0.049      147.278       10.773        0.005      342.504       17.961      862.467
08/15/2013  02:39:00     -124.884      -48.565       -5.536       21.834       23.724       15.373      476.713      562.807      236.329        0.963        0.064      133.995       11.108        0.007      342.473       17.908      862.468
08/15/2013  02:40:00     -139.810      -60.242       -7.834       28.575       28.851       14.478      816.537      832.403      209.608        1.255        0.093      152.237        9.785        0.004      342.466       17.896      862.485
08/15/2013  02:41:00     -126.838      -35.910       -5.741       32.753       38.530       16.827     1072.786     1484.572      283.154        1.012        0.142      131.823       12.339        0.009      342.409       17.798      862.500
08/15/2013  02:42:00      -89.507      -15.938       -0.703       27.512       23.185       22.241      756.888      537.533      494.654        0.503        0.089       90.915       17.848        0.039      342.442       17.855      862.498
08/15/2013  02:43:00     -131.477      -34.650       -3.787       30.876       24.589       22.035      953.345      604.631      485.557        1.027        0.102      135.966       18.787        0.019      342.408       17.798      862.507
08/15/2013  02:44:00      -99.792      -56.282       -3.938       45.100       24.599       19.786     2034.054      605.089      391.498        0.809        0.152      114.569       20.594        0.032      342.369       17.730      862.512
08/15/2013  02:45:00     -119.650      -30.137       -8.055       25.578       20.100       17.706      654.217      404.022      313.506        0.833        0.069      123.387       15.042        0.015      342.298       17.610      862.508
08/15/2013  02:46:00     -102.193      -21.796       -8.794       40.914       28.327       21.508     1673.961      802.423      462.607        0.697        0.147      104.491       19.921        0.036      342.338       17.678      862.521
08/15/2013  02:47:00     -139.457      -36.870       -6.756       24.279       25.261       17.509      589.484      638.123      306.572        1.119        0.077      144.249       13.582        0.009      342.288       17.593      862.533
08/15/2013  02:48:00     -150.804      -42.822       -7.919       27.488       36.402       21.113      755.574     1325.123      445.772        1.358        0.126      156.766       20.551        0.017      342.352       17.702      862.535
08/15/2013  02:49:00     -124.572      -28.257       -7.654       36.199       26.958       15.421     1310.384      726.749      237.814        0.932        0.114      127.736       15.754        0.015      342.354       17.705      862.548
08/15/2013  02:50:00     -111.368      -20.724       -6.181       33.131       24.080       19.209     1097.675      579.845      368.999        0.746        0.102      113.280       14.919        0.017      342.286       17.588      862.558
08/15/2013  02:51:00     -120.065      -28.405      -11.420       32.395       21.607       13.823     1049.444      466.846      191.064        0.853        0.085      123.379       11.457        0.009      342.300       17.613      862.572
08/15/2013  02:52:00      -92.154      -34.803       -5.784       26.586       21.170       16.851      706.816      448.157      283.946        0.559        0.072       98.507       15.538        0.025      342.361       17.716      862.585
08/15/2013  02:53:00      -97.168      -33.518      -10.902       18.499       16.524       13.231      342.203      273.038      175.069        0.574        0.040      102.787       11.535        0.013      342.307       17.625      862.598
08/15/2013  02:54:00     -111.500      -43.058       -9.039       26.708       25.855       15.435      713.307      668.459      238.248        0.799        0.081      119.525       15.076        0.016      342.375       17.740      862.603
08/15/2013  02:55:00     -144.709      -69.320      -14.687       12.454       16.988       12.509      155.100      288.577      156.463        1.328        0.030      160.455        7.447        0.002      342.368       17.729      862.607
08/15/2013  02:56:00     -138.822      -57.150       -7.971       17.934       20.994       13.826      321.620      440.764      191.150        1.178        0.048      150.125        8.641        0.003      342.370       17.733      862.614
08/15/2013  02:57:00     -127.582      -43.853       -6.960       14.645       17.931        8.735      214.482      321.509       76.295        0.943        0.031      134.908        6.014        0.002      342.438       17.848      862.623
08/15/2013  02:58:00     -130.563      -39.062       -6.675       26.816       23.052       14.379      719.091      531.398      206.752        1.004        0.073      136.281       10.921        0.006      342.413       17.806      862.616
08/15/2013  02:59:00     -126.930      -40.520       -4.272       28.903       30.957       13.358      835.411      958.334      178.446        0.987        0.099      133.240       15.400        0.013      342.338       17.678      862.611
08/15/2013  03:00:00     -135.056      -50.623      -10.895       19.033       21.854       12.764      362.255      477.618      162.916        1.096        0.050      144.232        9.958        0.005      342.362       17.719      862.610
08/15/2013  03:01:00      -84.388      -25.074        0.806       25.514       20.635       15.956      650.953      425.814      254.591        0.454        0.067       88.034       12.795        0.021      342.333       17.669      862.590
08/15/2013  03:02:00     -103.858      -27.653       -4.840       28.365       22.439       18.304      804.585      503.510      335.028        0.661        0.082      107.476       18.379        0.029      342.451       17.871      862.579
08/15/2013  03:03:00     -124.502      -29.647       -4.711       27.034       20.936       17.066      730.818      438.329      291.233        0.893        0.073      127.983       15.641        0.015      342.392       17.769      862.585
08/15/2013  03:04:00     -107.502      -22.545       -1.727       35.697       20.017       19.914     1274.242      400.687      396.558        0.707        0.104      109.841       19.767        0.032      342.329       17.661      862.585
08/15/2013  03:05:00     -101.485      -35.551       -5.321       25.090       18.397       14.124      629.501      338.468      199.498        0.638        0.058      107.532       10.279        0.009      342.328       17.661      862.583
08/15/2013  03:06:00     -105.414      -45.701       -2.731       11.906       15.616       11.756      141.761      243.851      138.199        0.687        0.026      114.894        7.290        0.004      342.287       17.590      862.587
08/15/2013  03:07:00     -123.711      -18.379      -12.808       18.472       17.882       12.630      341.226      319.776      159.528        0.831        0.041      125.069        8.519        0.005      342.225       17.486      862.600
08/15/2013  03:08:00     -119.719      -32.922       -9.066       35.789       26.081       16.833     1280.867      680.232      283.350        0.887        0.112      124.163       17.267        0.019      342.180       17.409      862.602
08/15/2013  03:09:00     -110.512      -23.394       -3.389       30.828       25.230       18.560      950.380      636.547      344.477        0.735        0.097      112.961       16.913        0.022      342.165       17.383      862.599
08/15/2013  03:10:00     -130.222      -45.996        0.455       27.876       22.282       15.273      777.063      496.480      233.257        1.029        0.075      138.107       15.961        0.013      342.289       17.594      862.603
08/15/2013  03:11:00     -124.477      -38.553       -5.517       19.692       21.246       14.914      387.782      451.410      222.435        0.904        0.053      130.311       12.264        0.009      342.302       17.617      862.599
08/15/2013  03:12:00     -111.743      -39.436       -3.963       22.763       20.537       15.556      518.152      421.779      241.994        0.762        0.059      118.497        9.952        0.007      342.219       17.475      862.593
08/15/2013  03:13:00     -109.218      -75.995       -3.485       28.486       28.488       20.647      811.458      811.594      426.307        0.988        0.102      133.056       13.136        0.010      342.278       17.575      862.590
08/15/2013  03:14:00     -156.595      -66.766      -10.758       21.671       22.733       19.719      469.617      516.782      388.851        1.524        0.069      170.234       16.326        0.009      342.214       17.468      862.602
08/15/2013  03:15:00     -156.775      -74.469      -10.610       20.423       20.603       18.279      417.115      424.497      334.137        1.571        0.059      173.563        9.991        0.003      342.209       17.459      862.596
08/15/2013  03:16:00     -121.768      -62.114        0.445       47.762       31.969       21.884     2281.194     1022.014      478.891        1.123        0.189      136.696       25.963        0.036      342.218       17.473      862.595
08/15/2013  03:17:00      -81.621      -40.305       -5.040       28.856       24.154       18.728      832.678      583.408      350.730        0.504        0.088       91.030       11.161        0.015      342.258       17.542      862.616
08/15/2013  03:18:00      -81.572      -25.168       -0.375       26.876       28.002       14.683      722.328      784.090      215.587        0.450        0.086       85.367       13.381        0.025      342.218       17.473      862.629
08/15/2013  03:19:00      -76.514      -48.239       -0.974       29.531       26.217       19.873      872.085      687.318      394.925        0.507        0.098       90.451       15.572        0.030      342.236       17.505      862.632
08/15/2013  03:20:00      -84.036      -50.012        7.249       35.281       27.009       21.141     1244.714      729.481      446.945        0.602        0.121       97.792       19.178        0.038      342.145       17.350      862.651
08/15/2013  03:21:00     -141.753      -40.532       -4.996       22.935       17.327       12.999      526.022      300.222      168.974        1.138        0.050      147.434        5.845        0.002      342.256       17.538      862.650
08/15/2013  03:22:00     -109.480      -46.918       -7.709       14.343       20.802       11.738      205.716      432.743      137.780        0.751        0.039      119.109        6.479        0.003      342.263       17.549      862.639
08/15/2013  03:23:00     -120.212      -53.065       -5.209       29.617       22.338       16.522      877.194      498.983      272.993        0.947        0.082      131.403       15.617        0.014      342.211       17.462      862.624
08/15/2013  03:24:00     -102.755      -62.686       -5.047       33.811       25.162       17.511     1143.180      633.112      306.635        0.830        0.104      120.367       10.372        0.007      342.261       17.547      862.614
08/15/2013  03:25:00     -132.639      -53.178       -5.177       21.466       27.126       14.051      460.799      735.833      197.444        1.092        0.070      142.903        9.438        0.004      342.194       17.431      862.597
08/15/2013  03:26:00     -104.290      -13.882       -5.089       39.561       35.561       16.551     1565.035     1264.579      273.920        0.710        0.155      105.210       12.641        0.014      342.081       17.243      862.578
08/15/2013  03:27:00     -141.014      -48.702       -6.417       32.924       26.001       18.242     1083.993      676.053      332.788        1.220        0.105      149.187       15.154        0.010      342.216       17.471      862.580
08/15/2013  03:28:00      -87.181      -38.560        5.964       33.799       34.227       22.550     1142.374     1171.513      508.522        0.597        0.141       95.327       20.501        0.046      342.106       17.282      862.582
08/15/2013  03:29:00       -4.269       -8.402        3.172       36.600       27.274       25.800     1339.530      743.877      665.623        0.142        0.137        9.424       15.562        2.727      341.648       16.509      862.584
08/15/2013  03:30:00     -105.299      -29.718        0.067       41.183       27.864       13.075     1696.002      776.430      170.961        0.731        0.132      109.413       10.741        0.010      342.144       17.347      862.583
08/15/2013  03:31:00     -102.058      -55.625       -1.239       31.538       25.861       17.714      994.639      668.798      313.768        0.774        0.099      116.232       17.751        0.023      342.180       17.410      862.597
08/15/2013  03:32:00      -54.506      -38.349        9.203       44.463       25.075       25.407     1976.929      628.746      645.517        0.389        0.163       66.645       24.581        0.136      342.150       17.358      862.613
08/15/2013  03:33:00      -46.749      -31.389        5.067       35.446       22.092       15.526     1256.393      488.070      241.061        0.259        0.099       56.309       18.676        0.110      342.083       17.243      862.609
08/15/2013  03:34:00      -53.482      -28.940       -2.654       13.522       13.311       14.559      182.851      177.184      211.954        0.214        0.029       60.810        9.883        0.026      342.200       17.444      862.610
08/15/2013  03:35:00      -39.871      -26.278       -3.293       10.087        8.528        8.267      101.744       72.724       68.344        0.127        0.012       47.752        5.407        0.013      342.231       17.495      862.617
08/15/2013  03:36:00      -30.461      -12.615       -0.502       17.065       12.888       10.554      291.231      166.112      111.379        0.083        0.028       32.970        6.352        0.037      342.184       17.414      862.620
08/15/2013  03:37:00      -53.103       -9.379       -4.671       15.164       16.025        9.893      229.955      256.812       97.862        0.176        0.029       53.925        4.601        0.007      342.216       17.470      862.627
08/15/2013  03:38:00      -68.768      -19.264       -4.354       12.477       20.999       10.865      155.674      440.938      118.039        0.292        0.036       71.416        8.795        0.015      342.172       17.397      862.644
08/15/2013  03:39:00      -76.009      -22.959       -3.552       10.729       12.427        8.253      115.114      154.441       68.107        0.333        0.017       79.401        1.368        0.000      342.086       17.248      862.652
08/15/2013  03:40:00      -90.102      -31.776       -6.260       13.080        9.727        6.788      171.097       94.620       46.081        0.474        0.016       95.541        5.674        0.004      342.060       17.205      862.655
08/15/2013  03:41:00      -96.341      -47.082       -9.367       18.490       14.179       10.856      341.889      201.041      117.853        0.612        0.033      107.230        4.647        0.002      342.022       17.140      862.671
08/15/2013  03:42:00      -65.484      -37.381       -7.352       27.827       16.865       13.081      774.357      284.422      171.105        0.348        0.061       75.402        8.125        0.012      341.984       17.076      862.676
08/15/2013  03:43:00      -27.013      -35.658        4.109       33.348       20.824       13.280     1112.120      433.655      176.349        0.187        0.086       44.735       14.513        0.105      341.944       17.008      862.678
08/15/2013  03:44:00        0.495      -25.798       19.971       17.873       15.600       16.107      319.459      243.360      259.432        0.094        0.041       25.803        8.249        0.102      341.998       17.100      862.677
08/15/2013  03:45:00      -46.619      -38.464       -1.188       24.798       21.170       12.589      614.937      448.183      158.484        0.244        0.061       60.438        7.202        0.014      342.092       17.260      862.681
08/15/2013  03:46:00      -72.416      -67.614       -7.093       35.896       31.303       21.622     1288.533      979.884      467.494        0.630        0.137       99.074       20.690        0.044      342.068       17.218      862.670
08/15/2013  03:47:00      -77.010      -56.710       -0.644       32.573       26.531       22.088     1060.999      703.904      487.859        0.570        0.113       95.637       19.145        0.040      341.989       17.086      862.664
08/15/2013  03:48:00      -90.733      -56.862        1.941       46.059       32.525       21.910     2121.426     1057.882      480.050        0.756        0.183      107.078       23.487        0.048      341.903       16.939      862.653
08/15/2013  03:49:00     -103.210      -56.742       -1.289       39.856       28.287       22.991     1588.493      800.143      528.573        0.839        0.146      117.780        9.781        0.007      341.846       16.843      862.657
08/15/2013  03:50:00      -96.364      -64.097        4.289       43.145       26.046       19.995     1861.518      678.380      399.790        0.818        0.147      115.734       19.252        0.028      341.838       16.829      862.645
08/15/2013  03:51:00      -86.123      -34.521      -12.444       15.801       16.843       11.061      249.683      283.694      122.346        0.471        0.033       92.784        6.853        0.005      341.822       16.801      862.632
08/15/2013  03:52:00      -76.091      -32.141       -9.186       14.799       16.729        7.874      218.997      279.853       62.006        0.373        0.028       82.601        5.145        0.004      341.830       16.815      862.615
08/15/2013  03:53:00      -84.630      -36.744       -7.111       15.385       19.051       11.509      236.690      362.957      132.467        0.465        0.037       92.263        8.503        0.008      341.808       16.777      862.610
08/15/2013  03:54:00      -93.352      -42.615      -10.515       14.000       16.597        9.621      195.989      275.457       92.557        0.560        0.028      102.619        8.189        0.006      341.814       16.787      862.609
08/15/2013  03:55:00      -99.397      -46.221       -6.076       25.402       16.146        9.396      645.277      260.702       88.291        0.652        0.050      109.619        5.457        0.002      341.788       16.744      862.595
08/15/2013  03:56:00      -65.941      -49.015        0.180       33.754       22.511       18.700     1139.327      506.767      349.685        0.437        0.100       82.162       18.647        0.052      341.702       16.598      862.589
08/15/2013  03:57:00      -91.699      -66.979       -5.818       27.926       25.885       19.214      779.885      670.053      369.167        0.737        0.091      113.556       15.420        0.018      341.744       16.670      862.585
08/15/2013  03:58:00      -95.345      -52.483       -2.361       35.120       21.084       20.488     1233.389      444.555      419.759        0.697        0.105      108.836       10.505        0.009      341.729       16.645      862.581
08/15/2013  03:59:00     -111.655      -49.526       -9.558       20.268       18.714       14.326      410.807      350.209      205.241        0.799        0.048      122.146        8.066        0.004      341.718       16.624      862.587
08/15/2013  04:00:00      -90.849      -55.803       -4.254       29.916       22.070       18.293      894.995      487.095      334.629        0.655        0.086      106.618       18.823        0.031      341.707       16.606      862.581
08/15/2013  04:01:00      -74.284      -45.042       -2.998       33.920       25.947       20.718     1150.599      673.221      429.218        0.490        0.113       86.873       19.519        0.050      341.728       16.641      862.573
08/15/2013  04:02:00      -71.562      -67.050        4.229       49.630       36.612       26.907     2463.150     1340.443      723.991        0.708        0.226       98.065       23.819        0.059      341.761       16.698      862.574
08/15/2013  04:03:00      -73.037      -55.054        0.613       42.312       41.111       24.693     1790.343     1690.074      609.768        0.623        0.205       91.463       20.083        0.048      341.703       16.600      862.590
08/15/2013  04:04:00      -85.876      -65.640        0.508       54.620       31.664       22.796     2983.324     1002.626      519.676        0.809        0.225      108.089       20.079        0.035      341.762       16.702      862.595
08/15/2013  04:05:00     -123.004      -68.117       -2.889       35.035       29.981       22.273     1227.438      898.877      496.102        1.120        0.131      140.606       20.075        0.020      341.819       16.796      862.591
08/15/2013  04:06:00     -110.241      -57.029       -4.032       40.169       26.719       20.397     1613.514      713.888      416.024        0.908        0.137      124.119       16.817        0.018      341.859       16.866      862.594
08/15/2013  04:07:00      -71.713      -54.390        2.080       37.714       35.490       23.175     1422.334     1259.557      537.093        0.566        0.161       90.005       14.020        0.024      341.799       16.762      862.597
08/15/2013  04:08:00      -81.823      -63.000       -5.833       29.380       20.781       16.661      863.170      431.850      277.584        0.614        0.079      103.266       12.169        0.014      341.773       16.718      862.592
08/15/2013  04:09:00      -57.345      -41.560       16.061       50.803       30.922       22.996     2580.963      956.163      528.834        0.467        0.203       70.822       22.963        0.105      341.679       16.559      862.580
08/15/2013  04:10:00     -112.907      -79.029        4.944       54.124       35.159       26.020     2929.460     1236.167      677.034        1.193        0.242      137.817       23.503        0.029      341.762       16.701      862.560
08/15/2013  04:11:00     -104.881      -70.861        5.496       50.373       30.867       23.170     2537.392      952.747      536.839        1.004        0.201      126.575       24.537        0.038      341.695       16.586      862.542
08/15/2013  04:12:00     -118.587      -68.179        2.613       56.922       46.094       30.323     3240.138     2124.650      919.508        1.250        0.314      136.789       33.895        0.061      341.708       16.606      862.538
08/15/2013  04:13:00      -96.084      -65.901        1.052       57.683       39.852       23.618     3327.354     1588.211      557.810        0.952        0.274      116.512       30.072        0.067      341.721       16.630      862.524
08/15/2013  04:14:00     -117.102      -43.274      -10.772       20.258       22.080       15.310      410.393      487.521      234.411        0.842        0.057      124.842       11.391        0.008      341.763       16.702      862.515
08/15/2013  04:15:00     -101.349      -25.843       -8.470       26.899       21.227       15.530      723.568      450.603      241.171        0.621        0.071      104.592       15.162        0.021      341.763       16.702      862.508
08/15/2013  04:16:00      -92.704      -31.699       -2.503       24.642       25.052       13.992      607.225      627.626      195.762        0.552        0.072       97.974       14.612        0.022      341.802       16.767      862.504
08/15/2013  04:17:00      -35.898      -26.208        7.422       42.245       21.517       16.245     1784.618      462.988      263.887        0.227        0.126       44.447       17.453        0.154      341.779       16.729      862.518
08/15/2013  04:18:00       13.339      -19.870       20.290       18.606       14.930       14.370      346.191      222.918      206.496        0.088        0.039       23.932        8.604        0.129      341.740       16.663      862.532
08/15/2013  04:19:00      -63.791      -48.117        1.709       43.765       36.252       19.735     1915.368     1314.233      389.451        0.500        0.181       79.903       18.758        0.055      341.702       16.597      862.542
08/15/2013  04:20:00     -132.746      -73.837        0.465       46.787       43.868       29.170     2189.011     1924.398      850.917        1.402        0.248      151.900       24.227        0.025      341.702       16.597      862.553
08/15/2013  04:21:00     -129.694      -81.973       -2.726       45.980       39.055       29.934     2114.121     1525.291      896.052        1.404        0.227      153.428       18.434        0.014      341.566       16.366      862.574
08/15/2013  04:22:00      -95.404      -66.218       -1.216       56.120       56.129       36.513     3149.460     3150.445     1333.174        1.056        0.382      116.133       36.699        0.100      341.579       16.390      862.571
08/15/2013  04:23:00     -100.187      -78.775       -6.382       27.956       34.162       16.355      781.538     1167.064      267.485        0.925        0.111      127.448       13.550        0.011      341.540       16.323      862.551
08/15/2013  04:24:00      -52.893      -67.701        3.873       36.860       23.771       23.696     1358.676      565.054      561.496        0.494        0.124       85.913       19.551        0.052      341.546       16.332      862.534
08/15/2013  04:25:00      -55.140      -45.448       -3.851       43.747       28.540       19.242     1913.778      814.533      370.264        0.411        0.155       71.456       19.078        0.071      341.462       16.192      862.542
08/15/2013  04:26:00      -94.381      -58.679       -5.217       26.439       20.667       15.564      699.011      427.119      242.248        0.687        0.068      111.135       13.503        0.015      341.528       16.303      862.534
08/15/2013  04:27:00      -93.270      -46.566       -6.149       26.618       15.626       14.738      708.544      244.159      217.220        0.604        0.058      104.248       11.690        0.013      341.500       16.255      862.534
08/15/2013  04:28:00      -56.280      -31.665        1.197       33.408       20.025       17.957     1116.071      401.005      322.469        0.301        0.092       64.576       13.105        0.041      341.480       16.221      862.532
08/15/2013  04:29:00      -78.241      -16.667       -5.600       21.165       18.656       10.930      447.949      348.054      119.465        0.367        0.046       79.996       11.141        0.019      341.442       16.158      862.536
08/15/2013  04:30:00      -76.308      -37.041       -4.931       22.396       19.586       13.438      501.596      383.614      180.579        0.414        0.053       84.823       12.084        0.020      341.429       16.136      862.552
08/15/2013  04:31:00      -70.279      -25.882       -2.325       18.095       22.459        8.962      327.442      504.400       80.309        0.326        0.046       74.894        5.759        0.006      341.441       16.156      862.554
08/15/2013  04:32:00      -62.493      -11.491       -1.070       15.997       15.957       10.079      255.915      254.612      101.590        0.233        0.031       63.540        7.665        0.015      341.387       16.063      862.551
08/15/2013  04:33:00      -56.395      -17.677        0.887       22.224       19.156       11.483      493.911      366.960      131.850        0.224        0.050       59.100       11.048        0.035      341.367       16.031      862.540
08/15/2013  04:34:00      -57.709      -28.796       -0.437       29.230       20.381       19.526      854.398      415.368      381.256        0.291        0.083       64.495       20.363        0.100      341.368       16.033      862.529
08/15/2013  04:35:00     -107.534      -35.060       -4.354       13.857       14.282        7.035      192.016      203.975       49.494        0.663        0.022      113.105        4.426        0.002      341.459       16.185      862.508
08/15/2013  04:36:00      -59.734      -39.400        0.926       36.808       27.547       21.586     1354.833      758.835      465.975        0.385        0.129       71.558       21.520        0.090      341.390       16.069      862.492
08/15/2013  04:37:00      -67.651      -57.327       -0.612       29.469       31.038       22.215      868.442      963.330      493.527        0.509        0.116       88.674       19.606        0.049      341.416       16.114      862.481
08/15/2013  04:38:00      -82.298      -56.470       -2.788       29.298       18.056       16.633      858.386      326.019      276.661        0.572        0.073       99.809       15.716        0.025      341.371       16.036      862.477
08/15/2013  04:39:00      -75.935      -43.851       -7.228       22.149       18.939       11.732      490.588      358.702      137.650        0.436        0.049       87.687        7.412        0.007      341.343       15.988      862.468
08/15/2013  04:40:00      -89.520      -22.530       -6.743       22.376       20.122       10.955      500.684      404.913      120.013        0.480        0.051       92.312        7.583        0.007      341.316       15.944      862.458
08/15/2013  04:41:00     -127.572      -49.835       -4.714       13.323       18.830       10.270      177.509      354.552      105.476        0.971        0.032      136.960        6.703        0.002      341.340       15.984      862.470
08/15/2013  04:42:00     -122.656      -35.268       -5.394       15.469       23.277       12.606      239.298      541.808      158.910        0.863        0.047      127.625        7.280        0.003      341.338       15.982      862.471
08/15/2013  04:43:00      -38.893      -33.509        5.875       46.950       23.312       24.848     2204.306      543.435      617.440        0.302        0.168       51.337       24.515        0.228      341.268       15.863      862.471
08/15/2013  04:44:00      -64.745      -64.448        2.842       38.959       32.150       21.672     1517.835     1033.647      469.673        0.569        0.151       91.353       20.632        0.051      341.322       15.954      862.458
08/15/2013  04:45:00      -68.901      -69.455       11.273       47.646       45.903       25.467     2270.119     2107.072      648.580        0.736        0.251       97.833       28.864        0.087      341.385       16.061      862.460
08/15/2013  04:46:00     -111.353      -75.658       -6.682       32.219       45.954       23.444     1038.036     2111.755      549.602        1.093        0.185      134.624       17.218        0.016      341.475       16.211      862.472
08/15/2013  04:47:00     -123.896      -69.694       -1.975       64.915       38.989       24.879     4213.902     1520.165      618.977        1.328        0.318      142.153       24.176        0.029      341.434       16.144      862.471
08/15/2013  04:48:00     -114.546      -83.609       -2.843       48.259       44.234       25.001     2328.905     1956.680      625.054        1.251        0.246      141.814       21.182        0.022      341.437       16.148      862.476
08/15/2013  04:49:00     -128.091      -88.176       -3.594       46.060       39.737       25.199     2121.520     1579.015      634.986        1.426        0.217      155.506       19.826        0.016      341.407       16.098      862.492
08/15/2013  04:50:00     -106.238      -80.623       -0.956       52.504       34.562       26.150     2756.691     1194.518      683.842        1.121        0.232      133.367       27.687        0.043      341.357       16.012      862.504
08/15/2013  04:51:00     -109.281     -104.803       -1.820       54.602       37.125       31.413     2981.388     1378.236      986.766        1.414        0.267      151.414       33.581        0.049      341.299       15.915      862.505
08/15/2013  04:52:00     -107.748     -100.530       -3.595       65.513       47.247       35.155     4291.979     2232.279     1235.841        1.474        0.388      147.364       41.687        0.080      341.220       15.782      862.504
08/15/2013  04:53:00     -158.464     -106.289       -2.766       82.021       50.738       38.891     6727.448     2574.348     1512.528        2.361        0.541      190.809       47.187        0.061      341.204       15.751      862.506
08/15/2013  04:54:00     -121.239      -79.413        3.333       64.768       48.087       28.995     4194.946     2312.379      840.725        1.418        0.367      144.932       26.970        0.035      341.173       15.702      862.495
08/15/2013  04:55:00      -99.890      -68.096        5.605       50.813       36.929       25.899     2581.951     1363.718      670.735        0.963        0.231      120.893       24.565        0.041      341.185       15.721      862.480
08/15/2013  04:56:00      -90.529      -72.617        7.040       49.667       48.029       27.751     2466.822     2306.755      770.102        0.953        0.277      116.055       27.789        0.057      341.165       15.689      862.474
08/15/2013  04:57:00      -98.310      -81.698        0.744       51.624       37.850       24.478     2665.083     1432.592      599.187        1.052        0.235      127.826       27.029        0.045      341.200       15.748      862.467
08/15/2013  04:58:00     -107.772      -76.771       -2.718       49.335       31.087       25.879     2433.917      966.388      669.700        1.079        0.204      132.320       24.755        0.035      341.182       15.717      862.456
08/15/2013  04:59:00     -135.210      -89.677       -8.180       55.211       44.779       26.779     3048.202     2005.121      717.109        1.608        0.289      162.246       31.015        0.037      341.158       15.677      862.459
08/15/2013  05:00:00     -108.083      -77.545        0.774       50.559       45.952       26.220     2556.172     2111.624      687.470        1.152        0.268      133.023       20.812        0.024      341.167       15.690      862.475
08/15/2013  05:01:00     -143.706      -80.704       -1.610       39.456       27.773       21.733     1556.786      771.330      472.311        1.498        0.140      164.817       20.484        0.015      341.213       15.770      862.468
08/15/2013  05:02:00      -49.587      -49.110        6.589       57.938       29.008       25.469     3356.787      841.455      648.648        0.488        0.242       69.790       28.314        0.165      341.166       15.690      862.472
08/15/2013  05:03:00      -63.076      -77.111        4.058       55.254       49.685       33.315     3053.025     2468.577     1109.889        0.829        0.332       99.622       27.691        0.077      341.108       15.593      862.488
08/15/2013  05:04:00      -99.711      -90.583        1.611       55.044       44.301       30.437     3029.807     1962.539      926.414        1.203        0.296      134.712       34.007        0.064      341.156       15.674      862.490
08/15/2013  05:05:00      -38.864      -46.233        9.476       42.965       36.748       29.971     1846.016     1350.452      898.241        0.392        0.205       60.397       25.735        0.182      341.125       15.621      862.493
08/15/2013  05:06:00      -89.107      -95.723       -5.921       56.587       49.038       21.892     3202.145     2404.756      479.240        1.161        0.304      130.778       32.765        0.063      341.150       15.663      862.506
08/15/2013  05:07:00     -102.143      -86.332        3.058       47.765       38.216       26.663     2281.500     1460.484      710.896        1.117        0.223      133.740       29.262        0.048      341.094       15.566      862.504
08/15/2013  05:08:00     -139.058      -86.776       -2.045       73.589       45.183       35.167     5415.299     2041.517     1236.744        1.778        0.435      163.912       33.891        0.043      341.016       15.435      862.514
08/15/2013  05:09:00     -164.915      -98.829       -9.817       41.796       47.363       28.471     1746.896     2243.245      810.592        2.093        0.240      192.260       27.316        0.020      341.029       15.457      862.525
08/15/2013  05:10:00     -104.196      -67.400       -2.821       47.434       32.683       27.888     2250.005     1068.171      777.713        0.975        0.205      124.095       24.504        0.039      340.986       15.385      862.529
08/15/2013  05:11:00      -86.480      -55.653       -2.701       38.123       29.010       21.595     1453.353      841.606      466.332        0.667        0.138      102.840       18.318        0.032      341.044       15.484      862.531
08/15/2013  05:12:00      -85.409      -44.494       -2.292       48.672       27.855       19.300     2368.976      775.902      372.498        0.640        0.176       96.304       16.409        0.029      341.062       15.513      862.539
08/15/2013  05:13:00      -81.297      -53.713       -4.002       27.880       28.056       13.717      777.304      787.113      188.158        0.563        0.088       97.439       12.362        0.016      341.045       15.485      862.520
08/15/2013  05:14:00      -70.672      -27.738       -4.625       24.511       28.260       14.012      600.784      798.643      196.324        0.369        0.080       75.921       15.805        0.043      341.017       15.438      862.518
08/15/2013  05:15:00      -96.066       -8.636       -5.893       29.084       22.657       15.156      845.873      513.357      229.690        0.546        0.079       96.454        9.420        0.010      340.735       14.961      862.527
08/15/2013  05:16:00     -113.641      -19.287       -5.308       26.864       20.914       17.438      721.679      437.387      304.071        0.739        0.073      115.266       10.835        0.009      340.761       15.005      862.528
08/15/2013  05:17:00     -116.042      -17.834       -7.796       24.274       23.967       15.609      589.235      574.441      243.650        0.763        0.070      117.404       14.177        0.015      340.806       15.082      862.533
08/15/2013  05:18:00     -111.785      -18.230       -9.453       24.561       26.594       16.791      603.238      707.264      281.937        0.725        0.080      113.261       12.864        0.013      340.703       14.906      862.543
08/15/2013  05:19:00     -121.889      -50.874       -9.131       20.356       31.859       14.390      414.385     1014.981      207.081        0.958        0.082      132.080        7.216        0.003      340.848       15.151      862.531
08/15/2013  05:20:00     -101.138      -23.320       -1.649       43.232       29.294       21.889     1869.028      858.138      479.111        0.699        0.160      103.791       25.216        0.059      340.748       14.983      862.530
08/15/2013  05:21:00     -139.311      -33.261       -9.358       30.844       31.713       19.611      951.351     1005.718      384.592        1.147        0.117      143.227       12.944        0.008      340.683       14.872      862.531
08/15/2013  05:22:00     -131.869      -57.656       -2.140       34.982       30.270       20.677     1223.753      916.297      427.549        1.164        0.128      143.923       19.246        0.018      340.696       14.895      862.544
08/15/2013  05:23:00     -119.365      -40.013       -0.691       28.620       27.205       18.594      819.102      740.138      345.734        0.888        0.095      125.893        8.235        0.004      340.776       15.030      862.566
08/15/2013  05:24:00      -92.350      -55.745        6.187       36.455       22.627       21.028     1328.956      511.959      442.184        0.698        0.114      107.871       19.628        0.033      340.774       15.027      862.574
08/15/2013  05:25:00      -77.197      -33.293       -2.743       38.825       29.910       18.651     1507.411      894.631      347.871        0.491        0.137       84.070       20.784        0.061      340.772       15.024      862.578
08/15/2013  05:26:00      -46.749      -66.639        4.385       30.684       40.435       20.989      941.510     1634.994      440.524        0.483        0.151       81.402       21.181        0.068      340.759       15.001      862.596
08/15/2013  05:27:00      -44.967      -59.754        0.851       29.803       29.285       14.954      888.228      857.600      223.614        0.378        0.098       74.783       14.564        0.038      340.796       15.063      862.605
08/15/2013  05:28:00     -102.776      -79.482       -5.981       36.233       36.140       22.195     1312.863     1306.115      492.626        1.001        0.156      129.924       17.569        0.018      340.762       15.008      862.614
08/15/2013  05:29:00     -104.797      -79.814      -10.825       27.189       28.818       21.089      739.224      830.449      444.767        0.974        0.101      131.729       14.843        0.013      340.747       14.980      862.629
08/15/2013  05:30:00      -99.732      -96.281       -2.276       48.289       38.463       27.006     2331.872     1479.432      729.302        1.188        0.227      138.624       27.970        0.041      340.726       14.945      862.629
08/15/2013  05:31:00      -94.451      -57.440        5.196       74.721       45.521       37.050     5583.197     2072.182     1372.666        1.064        0.451      110.545       44.743        0.164      340.735       14.960      862.633
08/15/2013  05:32:00     -159.835      -83.110       -7.375       73.612       53.064       40.053     5418.731     2815.792     1604.224        2.117        0.492      180.151       24.036        0.018      340.729       14.949      862.642
08/15/2013  05:33:00     -149.533     -103.100      -15.163       56.403       39.768       32.113     3181.335     1581.519     1031.254        1.951        0.290      181.630       30.089        0.027      340.731       14.953      862.648
08/15/2013  05:34:00     -143.168     -112.935       -9.524       36.369       33.841       22.302     1322.690     1145.194      497.378        1.815        0.148      182.350       21.510        0.014      340.746       14.978      862.649
08/15/2013  05:35:00     -114.421     -103.603        0.314       50.857       38.459       22.644     2586.457     1479.104      512.766        1.420        0.229      154.356       20.990        0.018      340.757       14.997      862.652
08/15/2013  05:36:00      -79.123      -99.061        3.400       40.927       40.524       25.651     1674.997     1642.177      657.975        1.003        0.199      126.781       25.523        0.041      340.714       14.924      862.655
08/15/2013  05:37:00      -88.693      -75.333       -0.997       53.595       49.050       28.259     2872.372     2405.946      798.595        0.981        0.304      116.368       31.348        0.073      340.680       14.868      862.646
08/15/2013  05:38:00      -92.745      -88.412       -0.333       46.371       35.063       28.305     2150.232     1229.386      801.181        1.030        0.209      128.134       24.940        0.038      340.689       14.881      862.642
08/15/2013  05:39:00      -67.606      -65.196        2.760       48.580       39.896       26.901     2359.968     1591.677      723.686        0.675        0.234       93.921       18.735        0.040      340.699       14.901      862.645
08/15/2013  05:40:00      -68.353      -46.549        5.640       43.053       28.934       20.616     1853.560      837.197      425.012        0.499        0.156       82.698       25.885        0.098      340.698       14.897      862.651
08/15/2013  05:41:00      -92.767      -46.575       -1.972       46.576       24.051       21.979     2169.294      578.443      483.084        0.700        0.162      103.802       23.021        0.049      340.764       15.011      862.648
08/15/2013  05:42:00      -53.260      -58.387        3.740       38.908       25.795       23.270     1513.848      665.395      541.494        0.449        0.136       79.029       16.898        0.046      340.830       15.121      862.649
08/15/2013  05:43:00      -89.283      -85.769       -3.901       38.107       32.789       23.415     1452.171     1075.140      548.272        0.921        0.154      123.806       17.653        0.020      340.783       15.042      862.656
08/15/2013  05:44:00      -91.953      -96.905        0.445       51.933       37.546       28.384     2697.023     1409.707      805.668        1.138        0.246      133.589       32.591        0.060      340.675       14.859      862.663
08/15/2013  05:45:00      -86.071      -76.332        8.541       52.009       31.673       27.443     2704.934     1003.163      753.123        0.888        0.223      115.043       28.648        0.062      340.693       14.889      862.679
08/15/2013  05:46:00     -155.195     -100.685       -6.040       52.693       38.417       27.366     2776.548     1475.858      748.878        1.963        0.250      184.995       28.447        0.024      340.781       15.036      862.681
08/15/2013  05:47:00     -109.123      -68.496        0.115       58.796       42.104       27.124     3456.946     1772.779      735.685        1.128        0.298      128.840       23.668        0.034      340.783       15.041      862.677
08/15/2013  05:48:00      -50.129      -47.768        6.712       48.813       33.224       19.891     2382.728     1103.808      395.639        0.436        0.194       69.244       23.804        0.118      340.711       14.919      862.676
08/15/2013  05:49:00      -63.142      -65.733        3.901       39.906       32.168       25.325     1592.478     1034.775      641.340        0.580        0.163       91.147       24.081        0.070      340.655       14.826      862.678
08/15/2013  05:50:00     -116.705      -76.325       -4.026       34.077       30.830       23.022     1161.261      950.490      530.009        1.105        0.132      139.447       23.397        0.028      340.702       14.906      862.684
08/15/2013  05:51:00      -84.527      -73.217        5.122       44.453       32.642       26.236     1976.044     1065.513      688.311        0.813        0.186      111.828       25.219        0.051      340.684       14.875      862.694
08/15/2013  05:52:00      -67.489      -76.175        8.730       46.421       38.253       26.749     2154.868     1463.265      715.518        0.738        0.217      101.771       28.593        0.079      340.732       14.956      862.696
08/15/2013  05:53:00     -100.584      -91.751       -3.088       48.265       44.093       27.388     2329.534     1944.170      750.098        1.178        0.251      136.145       24.083        0.031      340.614       14.755      862.699
08/15/2013  05:54:00     -183.087     -118.420      -17.255       39.190       46.660       26.895     1535.861     2177.176      723.317        2.614        0.222      218.047       20.609        0.009      340.608       14.743      862.700
08/15/2013  05:55:00     -140.169      -91.416        0.237       55.348       54.206       31.675     3063.446     2938.314     1003.315        1.750        0.350      167.344       32.753        0.038      340.537       14.625      862.710
08/15/2013  05:56:00     -147.245     -110.488       -7.897       32.146       37.108       20.545     1033.373     1377.030      422.080        1.839        0.142      184.089       15.764        0.007      340.554       14.652      862.721
08/15/2013  05:57:00     -104.262      -87.271       -3.372       44.009       39.486       22.682     1936.824     1559.125      514.454        1.125        0.201      135.966       20.695        0.023      340.588       14.710      862.728
08/15/2013  05:58:00      -72.727      -82.224        2.929       50.369       39.494       28.626     2537.056     1559.785      819.455        0.849        0.246      109.772       23.609        0.046      340.582       14.702      862.735
08/15/2013  05:59:00     -102.071     -103.999       -8.839       40.450       39.830       25.797     1636.184     1586.405      665.497        1.260        0.194      145.719       23.135        0.025      340.540       14.631      862.746
08/15/2013  06:00:00     -149.921     -120.810      -10.994       26.050       32.401       20.015      678.613     1049.800      400.610        1.966        0.106      192.540       14.980        0.006      340.474       14.518      862.751
08/15/2013  06:01:00     -161.493     -105.955      -16.667       31.624       44.303       28.235     1000.062     1962.756      797.191        2.067        0.188      193.149       23.453        0.015      340.520       14.598      862.770
08/15/2013  06:02:00     -119.411      -95.352       -4.029       36.319       34.192       21.009     1319.096     1169.062      441.398        1.315        0.146      152.810       18.739        0.015      340.505       14.572      862.791
08/15/2013  06:03:00     -138.155     -113.834      -16.311       44.770       37.152       24.772     2004.393     1380.282      613.670        1.815        0.200      179.011       20.340        0.013      340.472       14.514      862.805
08/15/2013  06:04:00     -146.691     -108.060       -1.687       69.295       61.454       37.929     4801.741     3776.651     1438.611        2.161        0.501      182.196       42.275        0.054      340.446       14.470      862.809
08/15/2013  06:05:00     -141.914      -88.598       -8.948       59.927       44.816       32.745     3591.253     2008.431     1072.262        1.737        0.334      167.299       28.160        0.028      340.404       14.401      862.817
08/15/2013  06:06:00     -181.456     -133.491       -4.024       65.142       47.528       31.334     4243.424     2258.893      981.843        2.912        0.374      225.269       32.327        0.021      340.409       14.407      862.819
08/15/2013  06:07:00     -188.641     -112.580      -11.719       49.737       47.394       31.315     2473.726     2246.208      980.641        2.705        0.285      219.680       26.026        0.014      340.424       14.431      862.818
08/15/2013  06:08:00     -148.854     -107.923       -5.154       55.702       38.435       33.864     3102.672     1477.280     1146.778        1.978        0.286      183.861       28.331        0.024      340.426       14.437      862.809
08/15/2013  06:09:00     -122.866      -98.706       -8.529       56.924       48.007       28.440     3240.294     2304.692      808.828        1.563        0.318      157.603       31.446        0.040      340.490       14.546      862.808
08/15/2013  06:10:00     -112.195      -96.320       -8.256       50.374       30.919       20.499     2537.566      956.011      420.189        1.292        0.196      147.869       23.882        0.026      340.491       14.549      862.815
08/15/2013  06:11:00      -91.401      -78.359        1.454       44.666       36.632       26.001     1995.091     1341.924      676.062        0.925        0.201      120.392       29.233        0.059      340.522       14.601      862.814
08/15/2013  06:12:00      -98.927      -64.935       -4.424       27.906       32.373       19.722      778.737     1047.996      388.965        0.812        0.111      118.335       17.029        0.021      340.569       14.681      862.803
08/15/2013  06:13:00      -67.104      -39.769       -1.494       43.306       24.602       22.096     1875.381      605.259      488.247        0.453        0.148       78.003       17.253        0.049      340.505       14.572      862.799
08/15/2013  06:14:00      -70.096      -46.860       -0.940       42.478       27.865       20.140     1804.376      776.465      405.636        0.505        0.149       84.317       18.545        0.048      340.531       14.617      862.811
08/15/2013  06:15:00      -60.427      -59.612        3.068       43.751       43.047       25.504     1914.144     1853.061      650.462        0.582        0.221       84.883       28.082        0.109      340.484       14.536      862.816
08/15/2013  06:16:00      -89.287      -62.540       -1.791       33.286       33.662       25.525     1107.938     1133.137      651.549        0.739        0.145      109.011       21.264        0.038      340.469       14.511      862.807
08/15/2013  06:17:00      -65.420      -38.229        1.378       34.236       30.221       18.792     1172.095      913.314      353.129        0.409        0.122       75.771       14.080        0.035      340.438       14.460      862.806
08/15/2013  06:18:00      -40.488      -24.665        4.702       48.340       14.597       16.603     2336.774      213.072      275.644        0.255        0.141       47.409       21.189        0.200      340.450       14.478      862.818
08/15/2013  06:19:00     -103.791      -39.353       -6.681       15.283       20.581       15.355      233.560      423.566      235.762        0.663        0.045      111.001        8.280        0.006      340.448       14.474      862.830
08/15/2013  06:20:00      -79.045      -43.903       -1.015       40.858       22.430       14.252     1669.357      503.102      203.119        0.528        0.119       90.419       17.508        0.037      340.438       14.460      862.844
08/15/2013  06:21:00      -44.785      -42.290        0.053       28.729       32.901       20.450      825.355     1082.458      418.209        0.306        0.116       61.597       20.612        0.112      340.387       14.372      862.859
08/15/2013  06:22:00      -50.096      -34.445       -3.977       25.804       21.647       19.870      665.826      468.602      394.811        0.262        0.076       60.795       14.938        0.060      340.448       14.475      862.873
08/15/2013  06:23:00      -64.441      -38.914       -2.089       25.028       16.695       15.292      626.400      278.737      233.835        0.340        0.057       75.280       11.535        0.023      340.425       14.436      862.895
08/15/2013  06:24:00      -65.842      -38.367       -2.738       31.562       21.948       20.536      996.166      481.705      421.722        0.386        0.095       76.205       17.010        0.050      340.415       14.420      862.892
08/15/2013  06:25:00      -56.916      -40.382       -1.040       37.666       26.059       19.009     1418.693      679.046      361.345        0.366        0.123       69.787       18.436        0.070      340.401       14.395      862.893
08/15/2013  06:26:00      -45.846      -42.467        5.602       35.199       21.683       20.985     1238.992      470.164      440.362        0.304        0.107       62.492       20.400        0.107      340.406       14.404      862.898
08/15/2013  06:27:00      -36.740      -33.774       11.357       41.136       35.172       22.021     1692.182     1237.035      484.915        0.302        0.171       49.905       22.551        0.204      340.381       14.362      862.908
08/15/2013  06:28:00      -93.779      -87.586       -1.380       38.573       36.424       24.332     1487.895     1326.699      592.036        0.994        0.170      128.319       21.373        0.028      340.476       14.522      862.920
08/15/2013  06:29:00      -90.478      -82.141       -3.158       34.367       29.233       24.166     1181.063      854.558      583.986        0.878        0.131      122.203       20.658        0.029      340.471       14.515      862.921
08/15/2013  06:30:00     -102.786      -79.886       -5.190       31.635       34.680       16.271     1000.785     1202.725      264.749        0.972        0.123      130.180        9.780        0.006      340.499       14.561      862.920
08/15/2013  06:31:00      -94.293      -67.077       -3.030       29.558       36.056       24.448      873.665     1300.012      597.691        0.809        0.139      115.718       16.810        0.021      340.465       14.504      862.915
08/15/2013  06:32:00      -82.939      -79.233       -1.318       36.892       30.139       20.690     1361.040      908.340      428.094        0.793        0.135      114.703       19.181        0.028      340.492       14.549      862.916
08/15/2013  06:33:00      -53.544      -42.602        3.703       42.237       33.636       20.135     1783.942     1131.348      405.434        0.401        0.166       68.424       24.525        0.128      340.499       14.563      862.924
08/15/2013  06:34:00      -59.601      -67.871        2.062       50.711       43.275       29.272     2571.652     1872.710      856.826        0.673        0.265       90.326       28.838        0.102      340.496       14.556      862.941
08/15/2013  06:35:00      -71.747      -71.259        3.014       36.764       53.829       20.866     1351.591     2897.515      435.381        0.746        0.234      101.121       26.342        0.068      340.514       14.586      862.961
08/15/2013  06:36:00      -73.539      -60.324        6.358       39.500       44.031       22.239     1560.249     1938.734      494.573        0.654        0.200       95.116       20.863        0.048      340.474       14.518      862.979
08/15/2013  06:37:00      -81.030      -90.307        5.648       34.267       32.104       24.701     1174.211     1030.656      610.117        0.878        0.141      121.331       23.191        0.037      340.477       14.524      862.989
08/15/2013  06:38:00      -99.121      -75.731       -3.517       30.186       31.891       27.114      911.184     1017.030      735.181        0.912        0.133      124.741       16.995        0.019      340.478       14.525      862.995
08/15/2013  06:39:00     -128.379      -82.923      -10.246       24.427       28.896       15.894      596.680      834.998      252.625        1.257        0.084      152.831       12.246        0.006      340.552       14.651      862.993
08/15/2013  06:40:00      -79.414      -48.620       -0.797       46.731       23.732       16.555     2183.791      563.195      274.081        0.585        0.151       93.116       17.965        0.037      340.515       14.589      862.997
08/15/2013  06:41:00      -90.814      -35.583       -6.276       23.504       16.147        9.727      552.442      260.719       94.614        0.523        0.045       97.537       10.819        0.012      340.536       14.624      863.001
08/15/2013  06:42:00      -91.595      -31.062      -11.076       18.902       18.518       11.838      357.283      342.908      140.143        0.516        0.042       96.719        5.077        0.003      340.591       14.718      863.007
08/15/2013  06:43:00      -86.905      -24.359        1.543       27.011       18.093       17.494      729.590      327.350      306.043        0.476        0.068       90.254       15.182        0.028      340.583       14.705      863.012
08/15/2013  06:44:00      -81.114      -22.408       -7.691       22.933       19.175       13.570      525.919      367.665      184.157        0.411        0.054       84.152       12.218        0.021      340.526       14.606      863.021
08/15/2013  06:45:00      -66.155      -19.009       -4.363       24.047       21.658       13.775      578.265      469.072      189.747        0.300        0.062       68.832       10.580        0.024      340.532       14.618      863.021
08/15/2013  06:46:00      -67.249      -35.554        2.024       20.519       16.366       11.463      421.038      267.837      131.403        0.331        0.041       76.069       10.408        0.019      340.637       14.795      863.026
08/15/2013  06:47:00      -82.328      -29.268       -7.004       23.874       17.814       14.238      569.966      317.336      202.713        0.439        0.055       87.375       11.576        0.018      340.608       14.745      863.034
08/15/2013  06:48:00      -98.546      -32.732       -8.412       24.767       15.490       12.726      613.410      239.947      161.949        0.593        0.051      103.840        4.615        0.002      340.563       14.671      863.042
08/15/2013  06:49:00      -97.048      -43.518       -5.427       11.347       14.305        9.485      128.750      204.633       89.964        0.588        0.021      106.359        6.564        0.004      340.571       14.684      863.051
08/15/2013  06:50:00      -78.164      -42.115       -2.373       21.402       17.622       15.405      458.040      310.525      237.320        0.445        0.050       88.788       10.610        0.014      340.557       14.660      863.051
08/15/2013  06:51:00      -75.642      -43.684       -5.167       25.859       17.187       14.091      668.663      295.385      198.558        0.441        0.058       87.350       12.406        0.020      340.579       14.698      863.049
08/15/2013  06:52:00      -58.292      -30.931       -2.521       28.744       16.266       14.842      826.214      264.593      220.290        0.284        0.066       65.990       10.207        0.024      340.537       14.625      863.052
08/15/2013  06:53:00      -63.117      -16.336       -1.366       19.453       13.831        8.926      378.406      191.304       79.667        0.245        0.032       65.196        6.524        0.010      340.555       14.657      863.054
08/15/2013  06:54:00      -38.886      -26.784        2.393       34.917       25.383       20.913     1219.194      644.283      437.360        0.227        0.115       47.217       22.402        0.225      340.634       14.790      863.051
08/15/2013  06:55:00      -53.999      -51.547        0.099       41.181       26.051       23.108     1695.836      678.647      533.986        0.424        0.145       74.653       21.678        0.084      340.649       14.816      863.051
08/15/2013  06:56:00      -74.747      -56.727        5.408       39.212       38.438       23.035     1537.593     1477.474      530.612        0.619        0.177       93.835       22.402        0.057      340.647       14.812      863.052
08/15/2013  06:57:00      -59.801      -39.717        5.570       46.796       36.132       20.508     2189.880     1305.547      420.574        0.455        0.196       71.788       17.680        0.061      340.701       14.904      863.051
08/15/2013  06:58:00      -82.428      -50.106        6.087       33.165       19.622       18.730     1099.884      385.024      350.806        0.559        0.092       96.462       18.146        0.035      340.676       14.862      863.050
08/15/2013  06:59:00      -74.953      -30.822       -6.697       23.671       23.174       17.768      560.317      537.057      315.709        0.401        0.071       81.043       16.192        0.040      340.710       14.919      863.046
08/15/2013  07:00:00      -50.184      -28.275       -5.257       20.543       17.534       11.790      422.022      307.452      139.002        0.211        0.043       57.601        8.118        0.020      340.770       15.019      863.059
08/15/2013  07:01:00      -47.791      -39.782        3.519       18.200       22.688       13.001      331.243      514.737      169.037        0.245        0.051       62.182        8.714        0.020      340.810       15.088      863.054
08/15/2013  07:02:00      -42.702      -25.502        5.415       19.141       17.343       12.690      366.380      300.772      161.029        0.167        0.041       49.737       11.029        0.049      340.813       15.092      863.081
08/15/2013  07:03:00      -33.476      -39.122        2.333       20.338       22.358       14.301      413.648      499.859      204.518        0.189        0.056       51.489       12.786        0.062      340.878       15.203      863.090
08/15/2013  07:04:00      -30.938      -26.377        8.553       27.688       21.196       15.933      766.603      449.285      253.847        0.160        0.073       40.657       15.802        0.151      340.933       15.295      863.110
08/15/2013  07:05:00      -52.631      -59.210       -1.070       35.007       22.452       21.491     1225.471      504.107      461.858        0.423        0.110       79.220       17.771        0.050      340.892       15.225      863.127
08/15/2013  07:06:00      -58.539      -52.384       -1.969       28.418       23.576       21.209      807.600      555.813      449.839        0.399        0.091       78.555       15.503        0.039      340.901       15.242      863.134
08/15/2013  07:07:00      -57.785      -54.492        3.260       39.935       32.560       21.506     1594.798     1060.122      462.529        0.472        0.156       79.426       22.735        0.082      340.906       15.251      863.148
08/15/2013  07:08:00      -70.206     -102.064       -6.858       19.853       18.213       15.467      394.130      331.730      239.225        0.818        0.048      123.878        9.055        0.005      340.834       15.128      863.145
08/15/2013  07:09:00      -60.590      -69.756       -3.119       27.454       24.291       16.425      753.707      590.074      269.791        0.508        0.081       92.396       16.187        0.031      340.878       15.203      863.149
08/15/2013  07:10:00      -46.936      -35.672        4.738       36.228       23.832       16.941     1312.460      567.962      287.012        0.283        0.108       58.953       19.448        0.109      340.930       15.292      863.136
08/15/2013  07:11:00      -77.583      -55.448        2.916       40.963       37.527       22.346     1678.005     1408.298      499.338        0.634        0.179       95.360       22.988        0.058      340.899       15.238      863.130
08/15/2013  07:12:00      -95.401      -92.348       -8.291       29.399       27.842       19.833      864.274      775.150      393.344        0.987        0.102      132.776       15.291        0.013      340.914       15.264      863.133
08/15/2013  07:13:00      -69.102      -74.342       -3.493       36.498       29.938       25.258     1332.087      896.301      637.972        0.659        0.143      101.498       22.849        0.051      340.908       15.253      863.129
08/15/2013  07:14:00      -78.945      -69.024       -2.662       35.805       31.672       20.230     1281.977     1003.137      409.236        0.685        0.135      104.864       22.274        0.045      340.939       15.305      863.140
08/15/2013  07:15:00      -54.056      -44.824       -0.450       17.899       25.066       14.288      320.373      628.291      204.157        0.304        0.058       70.223       13.977        0.040      340.991       15.395      863.142
08/15/2013  07:16:00      -40.073      -50.581       -2.916       27.967       15.922       11.344      782.138      253.523      128.679        0.267        0.058       64.531        8.831        0.019      341.042       15.480      863.156
08/15/2013  07:17:00      -30.590      -47.409        5.959       26.202       37.291       17.179      686.558     1390.594      295.113        0.280        0.119       56.422       13.138        0.054      341.079       15.542      863.168
08/15/2013  07:18:00      -38.566      -50.158        2.141       25.289       31.479       15.618      639.534      990.937      243.912        0.294        0.094       63.270       15.004        0.056      341.004       15.415      863.183
08/15/2013  07:19:00      -54.838      -34.002       -4.197       21.787       19.002       13.008      474.664      361.071      169.218        0.259        0.050       64.524       10.587        0.027      341.051       15.494      863.189
08/15/2013  07:20:00      -44.138      -43.251       -9.595       19.272       26.813       11.421      371.392      718.963      130.441        0.257        0.061       61.796       11.579        0.035      341.058       15.507      863.199
08/15/2013  07:21:00      -45.318      -43.989       -2.934       22.594       14.625       11.964      510.473      213.890      143.136        0.243        0.043       63.157        8.569        0.018      341.068       15.524      863.197
08/15/2013  07:22:00      -31.539      -43.960       -4.993       15.891       14.026        9.265      252.525      196.728       85.842        0.174        0.027       54.103        8.642        0.026      341.078       15.541      863.190
08/15/2013  07:23:00      -42.580      -44.826       -8.397       17.701       11.850       10.454      313.313      140.421      109.289        0.223        0.028       61.826        8.543        0.019      341.075       15.535      863.181
08/15/2013  07:24:00      -41.017      -31.314       -8.110        8.745       11.759        6.590       76.482      138.276       43.426        0.149        0.013       51.604        3.762        0.005      341.163       15.686      863.173
08/15/2013  07:25:00      -19.479      -34.045       -0.514       15.036       15.894        9.671      226.089      252.633       93.521        0.106        0.029       39.223        8.885        0.051      341.113       15.601      863.175
08/15/2013  07:26:00      -28.336       -9.897        4.861       19.817       16.380       12.446      392.720      268.313      154.897        0.087        0.041       30.015       11.594        0.149      341.267       15.861      863.174
08/15/2013  07:27:00      -23.489      -41.939        5.088       19.804       33.833       16.621      392.200     1144.670      276.259        0.207        0.091       48.069       12.505        0.068      341.236       15.809      863.178
08/15/2013  07:28:00      -36.243      -53.084        5.111       30.326       19.409       15.819      919.653      376.696      250.234        0.285        0.077       64.276       13.054        0.041      341.209       15.763      863.181
08/15/2013  07:29:00      -54.708      -52.190       -6.040       29.674       22.023       17.820      880.567      484.999      317.561        0.372        0.084       75.610        9.615        0.016      341.175       15.705      863.186
08/15/2013  07:30:00      -59.916      -65.276       -6.486       23.130       18.057       18.899      535.019      326.054      357.162        0.456        0.061       88.605        9.846        0.012      341.206       15.760      863.183
08/15/2013  07:31:00      -44.957      -52.804       -1.624       18.807       26.436       15.175      353.704      698.853      230.278        0.305        0.064       69.349       12.459        0.032      341.302       15.922      863.181
08/15/2013  07:32:00      -67.263      -68.942       -3.617       23.524       19.655       16.234      553.393      386.308      263.543        0.525        0.060       96.319       14.856        0.024      341.253       15.840      863.184
08/15/2013  07:33:00      -41.309      -54.724       -0.391       27.035       16.983       14.634      730.872      288.406      214.140        0.297        0.062       68.565        7.990        0.014      341.310       15.933      863.172
08/15/2013  07:34:00       -7.459       -6.853       16.412       41.206       18.760       21.498     1697.944      351.951      462.185        0.144        0.126       10.129       19.245        3.610      341.320       15.951      863.172
08/15/2013  07:35:00       14.170      -12.920       16.842       20.071       21.021       25.387      402.838      441.875      644.502        0.107        0.074       19.176       17.094        0.795      341.306       15.929      863.167
08/15/2013  07:36:00       46.375      -18.528       18.707       20.401       19.344       26.134      416.204      374.188      682.964        0.216        0.074       49.939       16.125        0.104      340.999       15.408      863.160
08/15/2013  07:37:00        7.766       -8.239        3.442       23.184       28.217       22.411      537.489      796.193      502.250        0.099        0.092       11.323       20.065        3.140      341.038       15.474      863.169
08/15/2013  07:38:00      -29.683      -21.695        9.659       25.666       34.898       16.862      658.719     1217.880      284.336        0.180        0.108       36.766       20.201        0.302      341.489       16.239      863.175
08/15/2013  07:39:00      -47.305      -87.733       -7.859       11.882       12.554       11.898      141.188      157.594      141.559        0.522        0.022       99.673       11.001        0.012      341.393       16.071      863.180
08/15/2013  07:40:00      -40.043      -73.449       -3.767       12.102       13.651       10.127      146.462      186.361      102.557        0.372        0.022       83.655        5.524        0.004      341.452       16.173      863.179
08/15/2013  07:41:00       -9.395      -51.272       -4.093       21.855       22.130       17.949      477.637      489.728      322.157        0.201        0.064       52.125       16.050        0.095      341.476       16.214      863.187
08/15/2013  07:42:00       -7.759      -41.518       -3.430       23.162       27.735       14.326      536.480      769.257      205.223        0.165        0.076       42.236       10.639        0.063      341.483       16.226      863.199
08/15/2013  07:43:00      -30.932      -45.537        3.645       36.216       28.675       18.136     1311.570      822.276      328.902        0.275        0.123       55.049       18.633        0.115      341.677       16.557      863.206
08/15/2013  07:44:00        5.928      -17.144        3.954       36.968       19.747       25.033     1366.648      389.930      626.663        0.136        0.119       18.140       16.955        0.874      341.487       16.233      863.205
08/15/2013  07:45:00      -16.088      -46.906        3.761       21.932       20.395       12.803      481.012      415.957      163.925        0.177        0.053       49.588       11.882        0.057      341.591       16.409      863.204
08/15/2013  07:46:00      -26.327      -37.201       -0.843       18.604       20.589       12.930      346.116      423.910      167.183        0.151        0.047       45.575       13.177        0.084      341.688       16.575      863.198
08/15/2013  07:47:00       -8.135      -10.888       16.112       26.454       19.778       18.883      699.840      391.150      356.561        0.095        0.072       13.591       19.192        1.994      341.994       17.095      863.183
08/15/2013  07:48:00       20.385      -16.000       21.022       19.582       17.671       15.107      383.461      312.274      228.217        0.102        0.046       25.914        9.162        0.125      341.431       16.141      863.178
08/15/2013  07:49:00       11.084        4.804       30.240       27.012       20.065       16.185      729.674      402.599      261.946        0.123        0.070       12.081       10.631        0.774      341.614       16.449      863.173
08/15/2013  07:50:00      -15.752       15.320       18.649       24.090       17.772       14.556      580.311      315.849      211.869        0.097        0.055       21.973       13.194        0.361      341.902       16.938      863.167
08/15/2013  07:51:00       29.872      -11.085       19.675       27.092       23.766       25.573      733.991      564.810      653.970        0.168        0.098       31.863       20.980        0.434      341.588       16.406      863.177
08/15/2013  07:52:00      -25.302      -51.963        4.519       24.945       25.696       14.948      622.270      660.288      223.447        0.243        0.075       57.796       17.083        0.087      341.724       16.635      863.183
08/15/2013  07:53:00      -50.529      -23.325        5.974       36.934       28.957       18.098     1364.120      838.528      327.527        0.283        0.127       55.653       16.336        0.086      341.909       16.950      863.184
08/15/2013  07:54:00       -2.894       -2.157        4.315       22.625       26.345       22.945      511.906      694.043      526.483        0.088        0.087        3.610       14.574       16.303      341.740       16.663      863.178
08/15/2013  07:55:00        6.784      -23.127        6.151       34.454       28.541       25.405     1187.105      814.566      645.405        0.163        0.132       24.102       17.406        0.522      341.589       16.406      863.187
08/15/2013  07:56:00       19.295      -28.481       -1.480       27.264       26.092       26.189      743.320      680.814      685.851        0.165        0.105       34.402       18.712        0.296      341.644       16.500      863.197
08/15/2013  07:57:00        8.147       22.046       14.787       19.700       27.146       21.870      388.091      736.922      478.293        0.119        0.080       23.504       11.093        0.223      341.802       16.768      863.192
08/15/2013  07:58:00        4.324       -2.730       19.852       23.120       27.944       29.038      534.521      780.858      843.227        0.129        0.108        5.114       17.776       12.083      341.907       16.946      863.185
08/15/2013  07:59:00      -22.316        1.888       -0.086       14.722       13.385       20.823      216.747      179.163      433.590        0.067        0.041       22.396       12.044        0.289      341.894       16.925      863.174
08/15/2013  08:00:00       42.949      -13.887       19.711       29.872       23.260       22.057      892.356      541.019      486.527        0.217        0.096       45.139       18.236        0.163      341.722       16.634      863.176
08/15/2013  08:01:00       61.210      -33.387        0.371       23.109       17.539       19.512      534.029      307.611      380.719        0.304        0.061       69.723       11.451        0.027      341.582       16.395      863.182
08/15/2013  08:02:00       40.270      -14.628       13.419       31.479       15.438       23.211      990.948      238.336      538.762        0.189        0.088       42.845       12.027        0.079      341.784       16.738      863.187
08/15/2013  08:03:00       43.521       -7.666       24.221       34.241       19.824       21.402     1172.447      393.008      458.054        0.228        0.101       44.191       19.452        0.194      342.060       17.207      863.191
08/15/2013  08:04:00       17.853        6.715       28.468       25.744       20.426       19.253      662.778      417.234      370.692        0.131        0.073       19.074       19.682        1.065      342.075       17.232      863.182
08/15/2013  08:05:00       13.306        3.015       32.765       30.209       12.714       13.229      912.579      161.634      174.997        0.125        0.062       13.643       12.657        0.861      342.415       17.810      863.177
08/15/2013  08:06:00      -38.904      -16.553        5.034       23.955       16.846       15.145      573.832      283.795      229.368        0.145        0.054       42.279       13.880        0.108      342.225       17.487      863.178
08/15/2013  08:07:00       -4.787      -10.231       20.435       35.153       19.005       16.883     1235.732      361.201      285.048        0.121        0.094       11.295       17.614        2.432      342.049       17.186      863.187
08/15/2013  08:08:00       16.870        8.184       32.795       23.590       16.683       15.644      556.481      278.308      244.745        0.125        0.054       18.751       13.142        0.491      342.224       17.484      863.195
08/15/2013  08:09:00       37.575       -6.315       25.202       27.372       22.354       18.700      749.214      499.705      349.680        0.184        0.080       38.102       12.241        0.103      341.954       17.025      863.199
08/15/2013  08:10:00       30.149       -7.226       24.896       27.987       24.526       20.513      783.245      601.528      420.765        0.169        0.090       31.003       17.470        0.318      342.120       17.307      863.198
08/15/2013  08:11:00       12.947       -1.036       33.588       23.251       24.739       18.297      540.592      612.014      334.778        0.139        0.074       12.989       15.479        1.420      342.300       17.614      863.193
08/15/2013  08:12:00       12.899      -24.423        6.380       23.345       24.279       25.024      544.989      589.489      626.196        0.128        0.088       27.620       11.162        0.163      342.518       17.985      863.194
08/15/2013  08:13:00       34.817       -6.858       18.494       38.612       34.767       29.587     1490.880     1208.754      875.416        0.259        0.179       35.486       28.794        0.658      342.427       17.829      863.199
08/15/2013  08:14:00       29.725      -10.075       22.438       42.925       37.233       24.781     1842.573     1386.269      614.083        0.267        0.192       31.386       30.900        0.969      342.339       17.681      863.197
08/15/2013  08:15:00      -44.470       -5.813        0.968       24.976       21.772       12.085      623.792      474.013      146.046        0.163        0.062       44.848       11.998        0.072      342.464       17.891      863.204
08/15/2013  08:16:00      -11.158       -2.137        4.633       16.722       21.564       19.376      279.609      465.005      375.419        0.064        0.056       11.361        8.776        0.597      342.852       18.552      863.193
08/15/2013  08:17:00       31.834      -40.046      -15.390       29.859       26.070       21.053      891.552      679.652      443.235        0.243        0.101       51.157       11.712        0.052      342.073       17.228      863.195
08/15/2013  08:18:00       16.199        8.562       24.243       28.073       29.988       22.218      788.088      899.257      493.659        0.155        0.109       18.323       20.710        1.278      342.269       17.561      863.203
08/15/2013  08:19:00       14.414       -4.087       18.511       22.768       22.159       17.566      518.384      491.010      308.574        0.094        0.066       14.982       16.869        1.268      342.443       17.858      863.202
08/15/2013  08:20:00       15.962      -12.501        7.844       17.659       22.341       20.838      311.839      499.107      434.242        0.086        0.062       20.275       17.774        0.769      342.376       17.743      863.207
08/15/2013  08:21:00       21.821      -40.902       -0.436       21.782       29.419       24.504      474.472      865.454      600.447        0.204        0.097       46.359       18.153        0.153      342.105       17.282      863.217
08/15/2013  08:22:00        1.175      -33.710        0.130       23.218       19.163       18.280      539.066      367.238      334.163        0.119        0.062       33.730       12.484        0.137      342.447       17.863      863.222
08/15/2013  08:23:00       -8.537       -9.933       20.992       19.912       22.371       17.860      396.475      500.473      318.992        0.091        0.061       13.097       15.319        1.368      342.978       18.767      863.231
08/15/2013  08:24:00       33.512      -13.778       17.556       43.369       44.888       31.124     1880.857     2014.924      968.675        0.324        0.243       36.233       33.966        0.879      342.577       18.085      863.248
08/15/2013  08:25:00        0.286      -11.791        5.397       15.048       17.180       20.620      226.439      295.157      425.205        0.056        0.047       11.794       14.906        1.597      342.901       18.635      863.252
08/15/2013  08:26:00        1.331       -7.487        4.672       28.136       21.106       28.778      791.655      445.475      828.166        0.107        0.103        7.604       17.027        5.013      343.063       18.911      863.261
08/15/2013  08:27:00       13.294       19.174       40.201       41.924       22.982       24.043     1757.605      528.169      578.061        0.251        0.143       23.332       13.288        0.324      342.886       18.609      863.267
08/15/2013  08:28:00       32.378        4.245       34.457       38.827       21.207       19.839     1507.530      449.735      393.596        0.230        0.118       32.655       15.910        0.237      342.787       18.442      863.271
08/15/2013  08:29:00       -3.483      -22.425       18.982       28.954       18.729       18.621      838.352      350.773      346.727        0.121        0.077       22.694       19.829        0.763      342.838       18.529      863.273
08/15/2013  08:30:00       36.640      -57.836        3.123       19.549       24.133       19.717      382.174      582.396      388.765        0.303        0.068       68.465       13.276        0.038      342.769       18.411      863.267
08/15/2013  08:31:00       -0.633        9.123       30.154       16.658       23.906       17.848      277.474      571.511      318.549        0.108        0.058        9.145       16.214        3.143      343.476       19.616      863.257
08/15/2013  08:32:00       10.092      -25.575        4.301       33.518       43.984       32.488     1123.448     1934.633     1055.444        0.244        0.206       27.494       23.502        0.731      342.987       18.781      863.247
08/15/2013  08:33:00       -9.714      -27.279       18.891       14.174       26.880       19.340      200.913      722.529      374.052        0.125        0.065       28.957        9.586        0.110      343.095       18.965      863.240
08/15/2013  08:34:00       60.904      -19.703       19.709       37.284       24.115       27.306     1390.097      581.514      745.643        0.360        0.136       64.011       20.396        0.102      342.562       18.058      863.238
08/15/2013  08:35:00       33.635        6.253       32.353       29.435       19.831       17.835      866.411      393.265      318.097        0.190        0.079       34.211       12.936        0.143      342.736       18.355      863.245
08/15/2013  08:36:00       -1.675       31.312       52.609       25.215       32.003       23.713      635.776     1024.193      562.313        0.299        0.111       31.357       26.487        0.714      343.124       19.016      863.245
08/15/2013  08:37:00       -5.174       30.621       40.874       23.735       21.895       20.013      563.333      479.388      400.505        0.204        0.072       31.055        9.658        0.097      342.939       18.701      863.246
08/15/2013  08:38:00       -1.699       22.426       41.975       30.554       26.024       20.879      933.577      677.230      435.928        0.216        0.102       22.490       21.305        0.897      343.189       19.126      863.260
08/15/2013  08:39:00      -18.642        9.772       37.463       14.134       19.495       19.596      199.772      380.062      384.017        0.140        0.048       21.048       16.522        0.616      343.503       19.661      863.275
08/15/2013  08:40:00      -15.524       13.961       43.648       13.023       21.541       14.257      169.596      464.000      203.273        0.159        0.042       20.879       13.725        0.432      343.840       20.236      863.292
08/15/2013  08:41:00       -1.671       19.590       38.627       28.011       25.393       23.417      784.626      644.816      548.340        0.193        0.099       19.661       20.238        1.060      343.476       19.617      863.304
08/15/2013  08:42:00       41.370      -20.197       11.972       33.629       30.129       27.100     1130.906      907.760      734.400        0.252        0.139       46.037       19.940        0.188      342.722       18.331      863.312
08/15/2013  08:43:00       21.895        2.077       11.397       24.930       25.797       28.930      621.527      665.489      836.956        0.137        0.106       21.993       24.421        1.233      343.135       19.034      863.319
08/15/2013  08:44:00       24.773       14.480       33.070       26.165       25.487       22.874      684.612      649.589      523.237        0.189        0.093       28.694       18.818        0.430      343.099       18.973      863.333
08/15/2013  08:45:00       21.999       13.018       34.117       35.750       32.883       23.957     1278.054     1081.276      573.944        0.237        0.147       25.562       20.993        0.674      343.009       18.819      863.341
08/15/2013  08:46:00       14.197       30.142       37.972       33.499       35.647       25.758     1122.161     1270.744      663.465        0.280        0.153       33.318       24.655        0.548      342.992       18.791      863.338
08/15/2013  08:47:00       24.373        1.987       10.329       34.157       22.104       23.785     1166.696      488.577      565.713        0.146        0.111       24.454       14.450        0.349      343.299       19.313      863.334
08/15/2013  08:48:00        3.911       27.564       15.805       26.793       19.866       19.914      717.890      394.666      396.585        0.127        0.075       27.840       15.436        0.307      343.557       19.753      863.327
08/15/2013  08:49:00       59.095       37.610       13.652       17.791       17.131       19.134      316.507      293.477      366.092        0.303        0.049       70.048        2.776        0.002      343.038       18.868      863.319
08/15/2013  08:50:00       66.616       52.969        2.631       17.710       19.240       20.282      313.645      370.185      411.343        0.417        0.055       85.108        3.540        0.002      343.197       19.139      863.324
08/15/2013  08:51:00       40.818       26.200        2.003       20.603       17.544       19.339      424.476      307.786      373.982        0.173        0.055       48.504        4.913        0.010      343.188       19.124      863.332
08/15/2013  08:52:00       65.150       30.569        3.344       28.942       28.966       29.699      837.668      839.032      882.041        0.387        0.128       71.965       17.298        0.058      343.429       19.534      863.330
08/15/2013  08:53:00       73.546       49.617        8.006       42.933       30.032       34.703     1843.251      901.896     1204.328        0.594        0.197       88.718       24.302        0.075      343.616       19.854      863.337
08/15/2013  08:54:00      109.194       73.908        1.532       34.069       27.895       27.028     1160.700      778.125      730.511        1.003        0.133      131.855       15.984        0.015      343.457       19.583      863.341
08/15/2013  08:55:00       82.710       61.812        8.037       45.096       30.446       24.463     2033.634      926.958      598.426        0.714        0.178      103.255       22.865        0.049      343.534       19.712      863.344
08/15/2013  08:56:00       69.406       40.417        7.956       53.386       28.251       28.598     2850.018      798.102      817.819        0.549        0.223       80.316       22.260        0.077      343.583       19.795      863.352
08/15/2013  08:57:00       62.929       55.338       11.558       41.947       36.829       30.484     1759.514     1356.401      929.301        0.560        0.202       83.799       23.732        0.080      343.809       20.184      863.351
08/15/2013  08:58:00       74.973       66.952       11.948       35.614       22.926       27.952     1268.351      525.595      781.290        0.641        0.129      100.516       22.540        0.050      343.632       19.881      863.348
08/15/2013  08:59:00       36.438       36.676       15.147       40.693       28.940       26.980     1655.927      837.519      727.933        0.306        0.161       51.700       11.057        0.046      343.944       20.413      863.337
08/15/2013  09:00:00       29.480       39.103        0.326       30.224       22.033       16.388      913.486      485.448      268.570        0.203        0.083       48.970        5.496        0.013      343.687       19.974      863.328
08/15/2013  09:01:00       30.446       32.255       12.608       37.424       38.803       23.932     1400.525     1505.678      572.721        0.280        0.174       44.355       12.949        0.085      344.060       20.611      863.319
08/15/2013  09:02:00       62.751       34.968       18.609       27.547       37.761       26.396      758.842     1425.875      696.748        0.419        0.144       71.836       17.449        0.059      343.797       20.162      863.310
08/15/2013  09:03:00       16.291        9.391        7.565       22.369       21.312       19.460      500.389      454.187      378.680        0.087        0.067       18.804       12.973        0.476      343.690       19.980      863.307
08/15/2013  09:04:00       14.972      -41.490        4.822       22.401       36.595       28.040      501.817     1339.217      786.225        0.230        0.131       44.108       21.604        0.240      343.561       19.761      863.301
08/15/2013  09:05:00       57.737       59.792       34.985       23.004       20.619       32.069      529.179      425.159     1028.414        0.506        0.099       83.118       13.858        0.028      343.382       19.455      863.304
08/15/2013  09:06:00       17.078      -37.700       24.988       33.674       46.650       28.961     1133.923     2176.193      838.751        0.324        0.207       41.388       20.948        0.256      343.314       19.338      863.306
08/15/2013  09:07:00       32.490      -75.770      -13.302       24.095       23.498       20.807      580.591      552.151      432.912        0.427        0.078       82.442        9.034        0.012      343.175       19.103      863.312
08/15/2013  09:08:00        2.783      -19.282        5.984       22.827       22.181       21.761      521.054      492.015      473.535        0.095        0.074       19.482        8.517        0.191      343.552       19.745      863.304
08/15/2013  09:09:00       11.409       -2.861        9.444       26.737       23.613       28.466      714.892      557.569      810.287        0.115        0.104       11.762       19.503        2.749      343.896       20.333      863.304
08/15/2013  09:10:00        4.208       -4.004        2.381        9.811       23.112       15.265       96.249      534.179      233.018        0.045        0.043        5.809        4.178        0.517      343.851       20.255      863.295
08/15/2013  09:11:00        5.574        5.102       19.914       20.958       16.755       16.961      439.252      280.737      287.690        0.073        0.050        7.556        6.551        0.752      344.149       20.765      863.282
08/15/2013  09:12:00       34.143      -50.551       15.225       25.479       38.546       23.935      649.195     1485.819      572.887        0.333        0.135       61.001       25.087        0.169      343.402       19.489      863.271
08/15/2013  09:13:00       18.678        7.667       31.336       32.130       37.373       31.934     1032.344     1396.774     1019.774        0.242        0.172       20.190       16.262        0.649      343.944       20.413      863.249
08/15/2013  09:14:00       42.341       -5.714       33.002       23.299       33.079       24.303      542.863     1094.235      590.656        0.257        0.111       42.725       18.241        0.182      343.800       20.166      863.233
08/15/2013  09:15:00       29.520      -16.228       37.631       32.152       30.512       23.187     1033.758      931.010      537.614        0.253        0.125       33.686       12.550        0.139      343.834       20.226      863.215
08/15/2013  09:16:00       32.396      -11.269       26.598       27.026       30.286       32.429      730.380      917.260     1051.655        0.229        0.135       34.300       22.118        0.416      343.782       20.136      863.202
08/15/2013  09:17:00       50.778       30.732       54.474       25.080       27.601       18.243      629.031      761.800      332.809        0.411        0.086       59.353        7.317        0.015      344.006       20.519      863.195
08/15/2013  09:18:00       90.085       49.458       23.873       37.211       36.738       31.317     1384.669     1349.654      980.776        0.742        0.186      102.769       19.787        0.037      343.783       20.138      863.199
08/15/2013  09:19:00       70.557       60.820        7.233       28.098       25.437       32.676      789.510      647.024     1067.743        0.562        0.125       93.152       12.416        0.018      343.786       20.145      863.202
08/15/2013  09:20:00       57.817       63.343        0.899       24.146       25.107       30.024      583.023      630.352      901.455        0.474        0.106       85.762       15.895        0.034      343.913       20.359      863.202
08/15/2013  09:21:00       86.073       81.885       22.628       42.782       32.679       42.245     1830.262     1067.941     1784.657        0.965        0.234      118.801       31.969        0.072      344.005       20.517      863.198
08/15/2013  09:22:00       25.002       16.808       21.213       31.637       43.846       28.532     1000.889     1922.443      814.088        0.255        0.187       30.126       10.063        0.112      344.534       21.422      863.194
08/15/2013  09:23:00       42.419       41.575       53.452       41.782       36.914       26.132     1745.723     1362.655      682.857        0.509        0.190       59.395       22.476        0.143      344.361       21.127      863.196
08/15/2013  09:24:00       67.886       85.886       43.564       28.748       32.972       31.353      826.463     1087.164      983.028        0.839        0.145      109.476       17.633        0.026      343.842       20.239      863.200
08/15/2013  09:25:00       21.691       -6.563       18.911       19.686       25.656       27.282      387.522      658.211      744.285        0.133        0.090       22.662       16.420        0.525      344.205       20.857      863.202
08/15/2013  09:26:00       23.188      -21.098       18.806       29.043       19.216       28.066      843.467      369.258      787.699        0.167        0.100       31.350       19.673        0.394      343.966       20.450      863.201
08/15/2013  09:27:00        7.746       15.417       37.733       22.408       21.092       19.205      502.105      444.885      368.842        0.152        0.066       17.253       13.162        0.582      344.855       21.970      863.194
08/15/2013  09:28:00       68.903       15.202       16.910       35.739       20.017       25.174     1277.265      400.677      633.711        0.379        0.116       70.560       18.094        0.066      344.214       20.874      863.184
08/15/2013  09:29:00       63.757       27.886       11.949       34.424       35.501       25.388     1185.036     1260.293      644.545        0.404        0.154       69.589       19.288        0.077      344.248       20.932      863.185
08/15/2013  09:30:00       76.371       55.704       -0.089       27.231       27.542       28.718      741.511      758.536      824.709        0.563        0.116       94.527       16.769        0.031      344.387       21.170      863.176
08/15/2013  09:31:00       16.635       23.171       23.854       31.642       26.521       28.793     1001.223      703.342      829.042        0.196        0.127       28.524       19.180        0.452      345.135       22.449      863.171
08/15/2013  09:32:00       11.355       38.328       68.669       29.223       28.048       21.176      853.987      786.692      448.411        0.420        0.104       39.975       14.338        0.129      344.829       21.926      863.168
08/15/2013  09:33:00       38.182       19.104       43.884       29.618       23.258       18.077      877.211      540.936      326.767        0.275        0.087       42.694       16.474        0.149      344.630       21.585      863.172
08/15/2013  09:34:00       27.866       35.533        3.949       17.519       39.154       21.451      306.898     1533.065      460.125        0.218        0.115       45.156       10.904        0.058      344.363       21.128      863.182
08/15/2013  09:35:00       44.554      -36.389      -11.168       43.310       45.170       25.725     1875.740     2040.289      661.762        0.401        0.229       57.526       21.554        0.140      344.004       20.516      863.179
08/15/2013  09:36:00       37.123      -26.640       17.505       31.650       40.179       33.479     1001.741     1614.325     1120.821        0.306        0.187       45.692       31.282        0.469      344.549       21.449      863.183
08/15/2013  09:37:00       21.689        5.637       32.908       29.308       32.930       23.326      858.940     1084.405      544.116        0.204        0.124       22.410       24.327        1.178      344.788       21.857      863.180
08/15/2013  09:38:00       32.461      -10.647       18.244       47.547       35.258       33.858     2260.699     1243.138     1146.379        0.307        0.233       34.163       36.645        1.151      344.477       21.324      863.180
08/15/2013  09:39:00       61.870      -61.445       10.517       38.317       31.640       29.641     1468.223     1001.089      878.572        0.553        0.167       87.197       22.756        0.068      344.047       20.590      863.181
08/15/2013  09:40:00       31.911      -41.670       18.472       43.578       23.964       21.262     1899.009      574.285      452.055        0.301        0.146       52.486       17.947        0.117      344.593       21.522      863.179
08/15/2013  09:41:00      -11.010      -31.967       20.807       13.602       25.718       22.260      185.016      661.397      495.500        0.146        0.067       33.809       19.084        0.319      344.856       21.972      863.170
08/15/2013  09:42:00       32.934       26.178       17.649       21.172       24.595       30.769      448.255      604.927      946.761        0.204        0.100       42.070       11.446        0.074      344.533       21.420      863.168
08/15/2013  09:43:00      -14.148        0.045       22.791       27.300       11.703       21.246      745.314      136.966      451.380        0.103        0.067       14.148       12.853        0.825      345.026       22.264      863.170
08/15/2013  09:44:00       36.292       20.546        7.312       32.825       31.865       19.998     1077.486     1015.365      399.932        0.214        0.125       41.704       17.142        0.169      344.984       22.191      863.167
08/15/2013  09:45:00       21.253       -8.837       31.192       21.455       25.735       18.723      460.330      662.268      350.553        0.149        0.074       23.016       11.981        0.271      345.063       22.326      863.162
08/15/2013  09:46:00       18.047      -13.143       21.192       18.555       22.311       22.206      344.283      497.760      493.124        0.114        0.067       22.326        8.333        0.139      344.907       22.062      863.161
08/15/2013  09:47:00       -4.977      -16.411       12.748       40.016       18.594       23.500     1601.293      345.737      552.264        0.148        0.125       17.149       17.969        1.098      344.793       21.865      863.169
08/15/2013  09:48:00      -47.300       13.944      -14.031       15.379       18.961       12.460      236.515      359.504      155.260        0.169        0.038       49.312        7.001        0.020      344.744       21.779      863.166
08/15/2013  09:49:00      -28.875      -29.955      -10.679       14.753       22.543       18.244      217.665      508.201      332.838        0.145        0.053       41.606       14.602        0.123      344.870       21.997      863.157
08/15/2013  09:50:00      -55.092      -28.318       -7.690       12.106       14.536       10.009      146.552      211.289      100.174        0.218        0.023       61.944        6.814        0.012      344.810       21.893      863.149
08/15/2013  09:51:00      -51.069       14.967       -1.875       19.666       20.311       18.768      386.767      412.542      352.252        0.199        0.058       53.217       16.775        0.099      345.030       22.269      863.145
08/15/2013  09:52:00      -36.467        6.958        4.775       13.662       11.368       12.871      186.640      129.234      165.670        0.094        0.024       37.125        8.807        0.056      344.996       22.212      863.137
08/15/2013  09:53:00      -51.620       19.107      -10.882       11.246       12.650       10.291      126.463      160.015      105.895        0.177        0.020       55.042        6.044        0.012      344.926       22.092      863.136
08/15/2013  09:54:00      -64.554       -3.176        0.072       18.063       14.856       10.051      326.269      220.687      101.027        0.241        0.032       64.632        8.228        0.016      344.926       22.094      863.123
08/15/2013  09:55:00      -55.739        6.692       -6.491       28.843       11.121       11.064      831.938      123.676      122.402        0.214        0.054       56.139       13.234        0.056      344.982       22.188      863.118
08/15/2013  09:56:00        1.364       11.012       22.806       19.167       17.495       16.668      367.362      306.065      277.835        0.080        0.048       11.096        5.134        0.214      346.020       23.967      863.109
08/15/2013  09:57:00        5.012       18.579       15.741       21.241       16.233       24.271      451.191      263.502      589.068        0.096        0.065       19.243       13.452        0.489      345.823       23.629      863.103
08/15/2013  09:58:00       -8.225        5.765       17.767       13.570       10.189       10.380      184.149      103.809      107.743        0.041        0.020       10.044        4.392        0.191      346.314       24.473      863.106
08/15/2013  09:59:00      -18.410        9.130       33.552       26.140       16.946       20.054      683.314      287.182      402.172        0.146        0.069       20.550       13.807        0.451      346.386       24.596      863.096
08/15/2013  10:00:00       18.967       10.705       19.928       29.587       28.565       23.222      875.383      815.971      539.253        0.155        0.112       21.779        7.307        0.113      345.956       23.856      863.091
08/15/2013  10:01:00       32.011       61.402       -7.924       28.547       42.078       28.592      814.948     1770.593      817.502        0.413        0.170       69.246       28.867        0.174      345.648       23.328      863.086
08/15/2013  10:02:00       21.155       10.105        4.029       22.410       32.829       26.546      502.186     1077.759      704.678        0.142        0.114       23.444       16.538        0.498      345.483       23.047      863.073
08/15/2013  10:03:00       45.912      -18.834       34.981       24.863       31.472       27.220      618.176      990.486      740.951        0.302        0.117       49.625       19.597        0.156      345.156       22.485      863.068
08/15/2013  10:04:00       53.360      -31.731      -10.314       44.076       29.950       23.329     1942.699      896.977      544.261        0.367        0.169       62.082       14.939        0.058      344.895       22.040      863.055
08/15/2013  10:05:00       76.810      -36.870       27.036       47.230       37.040       33.060     2230.655     1371.998     1092.974        0.634        0.235       85.201       18.955        0.049      344.937       22.111      863.037
08/15/2013  10:06:00       60.274      -24.865       19.590       39.422       30.186       28.083     1554.113      911.194      788.651        0.394        0.163       65.202       21.498        0.109      344.912       22.069      863.030
08/15/2013  10:07:00       25.590      -15.604       24.762       28.506       44.026       30.726      812.602     1938.311      944.084        0.260        0.185       29.972       32.401        1.169      345.321       22.768      863.029
08/15/2013  10:08:00        8.265       17.752       38.103       26.727       28.581       23.416      714.328      816.901      548.292        0.196        0.104       19.582       21.278        1.181      345.542       23.148      863.025
08/15/2013  10:09:00       13.862       12.761        4.687       22.568       18.515       28.127      509.313      342.793      791.140        0.101        0.082       18.842       11.943        0.402      345.499       23.073      863.021
08/15/2013  10:10:00       -5.159        8.232       37.986       15.252       15.433       14.302      232.620      238.175      204.560        0.111        0.034        9.714        8.423        0.752      346.492       24.781      863.014
08/15/2013  10:11:00      -29.886       15.195       19.813       21.035       14.105       17.962      442.489      198.941      322.643        0.124        0.048       33.527       12.822        0.146      345.966       23.875      863.005
08/15/2013  10:12:00       49.962       25.922       27.999       40.530       29.726       21.931     1642.686      883.657      480.974        0.348        0.150       56.286       18.693        0.110      345.930       23.813      863.006
08/15/2013  10:13:00       59.095       32.398        9.712       34.369       32.997       27.825     1181.208     1088.822      774.211        0.384        0.152       67.394       17.834        0.070      345.906       23.771      862.993
08/15/2013  10:14:00       31.527       49.553        7.712       35.333       37.982       31.218     1248.446     1442.611      974.594        0.359        0.183       58.732       23.209        0.156      346.218       24.309      862.989
08/15/2013  10:15:00       48.283       66.038       12.793       44.964       45.330       39.466     2021.754     2054.837     1557.590        0.624        0.282       81.806       32.091        0.154      346.420       24.654      862.983
08/15/2013  10:16:00      110.067       66.191       25.254       36.082       33.844       31.112     1301.896     1145.449      967.979        1.027        0.171      128.437       20.387        0.025      346.124       24.145      862.980
08/15/2013  10:17:00      103.480       90.046        7.160       49.405       29.613       35.038     2440.873      876.925     1227.657        1.171        0.227      137.173       21.117        0.024      345.786       23.565      862.983
08/15/2013  10:18:00       57.181       31.475       -6.691       49.824       33.347       25.786     2482.395     1112.038      664.922        0.428        0.213       65.271       18.172        0.078      345.794       23.579      862.985
08/15/2013  10:19:00       30.819       52.219       12.312       44.851       39.271       36.867     2011.626     1542.237     1359.139        0.437        0.246       60.635       30.433        0.252      346.644       25.041      862.984
08/15/2013  10:20:00        6.470       80.813        2.474       36.001       48.650       38.034     1296.053     2366.800     1446.614        0.584        0.255       81.072       35.158        0.188      346.302       24.453      862.986
08/15/2013  10:21:00       15.431       47.081        8.045       36.447       47.657       29.679     1328.406     2271.175      880.857        0.350        0.224       49.545       19.962        0.162      346.392       24.607      862.993
08/15/2013  10:22:00       43.256       47.287       23.605       48.545       57.863       52.751     2356.578     3348.176     2782.703        0.657        0.424       64.087       37.173        0.336      346.306       24.459      862.983
08/15/2013  10:23:00       68.354       81.778       13.295       45.319       59.818       38.469     2053.852     3578.191     1479.848        0.932        0.356      106.583       41.054        0.148      345.981       23.899      862.994
08/15/2013  10:24:00       86.363       71.602       14.499       44.755       48.545       31.670     2003.026     2356.662     1002.990        0.908        0.268      112.185       26.616        0.056      345.969       23.880      862.998
08/15/2013  10:25:00       32.212       65.056        8.110       36.848       41.559       39.482     1357.809     1727.126     1558.855        0.499        0.232       72.594       34.733        0.229      346.343       24.523      863.000
08/15/2013  10:26:00       87.418       64.339       21.011       44.893       41.550       33.972     2015.362     1726.399     1154.116        0.856        0.245      108.542       19.819        0.033      346.403       24.624      862.984
08/15/2013  10:27:00       38.539       13.148       13.109       45.214       23.973       23.205     2044.341      574.697      538.492        0.249        0.158       40.721       22.706        0.311      346.807       25.323      862.979
08/15/2013  10:28:00      -24.984       -4.559       21.955       38.607       71.748       35.721     1490.472     5147.784     1276.002        0.452        0.396       25.396       19.757        0.605      346.519       24.825      862.970
08/15/2013  10:29:00       -7.072        7.198       47.858       25.250       50.694       30.628      637.547     2569.878      938.067        0.327        0.207       10.091       23.635        5.486      346.707       25.150      862.958
08/15/2013  10:30:00       80.596       66.528       22.459       34.865       33.416       32.492     1215.536     1116.628     1055.754        0.741        0.169      104.507       17.028        0.027      346.291       24.432      862.952
08/15/2013  10:31:00       78.840       42.581       33.419       46.363       32.974       26.054     2149.523     1087.274      678.797        0.653        0.196       89.604       19.697        0.048      346.636       25.027      862.946
08/15/2013  10:32:00       35.947       56.194       48.303       44.464       33.035       30.085     1977.018     1091.290      905.081        0.538        0.199       66.708       26.718        0.160      346.874       25.436      862.936
08/15/2013  10:33:00       14.867       32.656       38.383       42.198       45.692       34.117     1780.710     2087.801     1163.972        0.390        0.252       35.881       26.057        0.527      347.171       25.946      862.936
08/15/2013  10:34:00       78.421       67.891        5.168       51.867       31.873       32.473     2690.192     1015.886     1054.509        0.777        0.238      103.726       19.603        0.036      346.579       24.928      862.918
08/15/2013  10:35:00       84.479       65.616        8.416       30.722       41.210       37.320      943.848     1698.236     1392.788        0.777        0.202      106.968       16.923        0.025      346.521       24.829      862.911
08/15/2013  10:36:00       44.083       48.331       17.712       27.703       27.861       32.595      767.471      776.213     1062.451        0.360        0.130       65.415       19.547        0.089      346.796       25.301      862.899
08/15/2013  10:37:00       37.085       55.430       78.425       46.877       35.754       33.156     2197.469     1278.360     1099.296        0.759        0.229       66.692       25.900        0.151      346.977       25.613      862.887
08/15/2013  10:38:00       68.041       70.474       25.092       25.241       25.529       29.983      637.084      651.749      899.003        0.621        0.109       97.960       20.651        0.044      346.125       24.146      862.881
08/15/2013  10:39:00        7.543        8.845       -1.195       16.822       32.483       16.954      282.982     1055.170      287.435        0.088        0.081       11.625       18.769        2.607      346.570       24.914      862.863
08/15/2013  10:40:00       57.163       12.256       32.786       36.676       46.977       28.231     1345.140     2206.883      796.999        0.442        0.217       58.462       25.809        0.195      346.720       25.171      862.861
08/15/2013  10:41:00       28.999       22.805       46.347       31.282       57.651       23.258      978.579     3323.623      540.955        0.418        0.242       36.892       20.974        0.323      347.096       25.819      862.842
08/15/2013  10:42:00        0.926       39.921       40.308       20.328       28.050       26.605      413.216      786.781      707.840        0.256        0.095       39.932       15.099        0.143      347.117       25.854      862.835
08/15/2013  10:43:00       -4.975       17.266       31.787       15.303       18.837       23.269      234.182      354.839      541.469        0.123        0.057       17.969        9.816        0.298      347.411       26.360      862.836
08/15/2013  10:44:00       -0.592       26.640       33.706       19.584       31.588       22.781      383.516      997.810      518.978        0.187        0.095       26.646       13.446        0.255      347.607       26.700      862.827
08/15/2013  10:45:00        8.745        8.347       27.500       26.218       26.104       27.027      687.381      681.413      730.448        0.150        0.105       12.089       18.041        2.227      347.416       26.368      862.832
08/15/2013  10:46:00       -5.049       30.660        2.284       41.026       22.077       25.610     1683.164      487.404      655.865        0.190        0.141       31.072       28.274        0.828      346.622       25.000      862.814
08/15/2013  10:47:00      -43.146      -11.877        5.742       32.641       18.257       14.658     1065.412      333.320      214.865        0.182        0.081       44.751       18.881        0.178      346.702       25.141      862.809
08/15/2013  10:48:00      -16.555       -4.556       25.645       24.849       17.112       19.466      617.495      292.810      378.936        0.112        0.064       17.171       17.054        0.986      347.703       26.867      862.799
08/15/2013  10:49:00       -6.535      -10.218        6.121       15.260       17.045       23.300      232.881      290.540      542.894        0.063        0.053       12.129       14.193        1.369      347.355       26.265      862.783
08/15/2013  10:50:00        1.465        2.738       33.897       34.109       48.817       36.767     1163.393     2383.117     1351.801        0.303        0.245        3.106       34.017      119.973      347.248       26.080      862.770
08/15/2013  10:51:00        0.942      -23.576       23.466       22.747       31.429       30.870      517.427      987.798      952.951        0.178        0.123       23.595       13.848        0.344      347.365       26.282      862.755
08/15/2013  10:52:00      -19.024      -32.069       29.993       24.451       36.628       18.415      597.831     1341.593      339.109        0.228        0.114       37.288       18.917        0.257      347.512       26.535      862.752
08/15/2013  10:53:00       18.950      -30.401       19.564       34.537       50.264       37.227     1192.795     2526.448     1385.850        0.338        0.255       35.823       20.854        0.339      347.508       26.528      862.733
08/15/2013  10:54:00       -1.881       11.685       53.630       38.727       28.119       25.046     1499.816      790.693      627.287        0.297        0.146       11.836       19.482        2.709      348.154       27.644      862.727
08/15/2013  10:55:00        4.535       28.089       81.587       34.064       46.387       20.504     1160.370     2151.711      420.407        0.560        0.187       28.452       16.367        0.331      347.787       27.010      862.720
08/15/2013  10:56:00       15.555      -13.518       44.165       41.272       53.949       35.444     1703.347     2910.494     1256.246        0.412        0.294       20.608       29.429        2.039      347.567       26.630      862.701
08/15/2013  10:57:00       18.933       -7.271       48.556       37.269       46.426       29.922     1388.972     2155.411      895.330        0.360        0.222       20.282       33.206        2.681      347.584       26.660      862.701
08/15/2013  10:58:00       19.132      -25.687        9.834       25.182       39.111       19.376      634.151     1529.698      375.419        0.183        0.127       32.029       21.359        0.445      347.241       26.067      862.686
08/15/2013  10:59:00      -41.680      -18.113        0.408       27.572       30.438       21.012      760.236      926.491      441.490        0.210        0.106       45.446       21.151        0.217      347.021       25.690      862.677
08/15/2013  11:00:00       -4.749       19.495       13.097       27.876       23.656       19.834      777.072      559.599      393.382        0.115        0.087       20.065       17.708        0.779      347.538       26.580      862.661
08/15/2013  11:01:00       12.722       56.364       63.458       23.476       30.786       20.565      551.115      947.766      422.927        0.464        0.096       57.782       14.620        0.064      347.406       26.353      862.643
08/15/2013  11:02:00       32.900       57.854       37.484       35.692       20.848       26.231     1273.919      434.648      688.091        0.412        0.120       66.555       24.040        0.130      347.110       25.843      862.636
08/15/2013  11:03:00       54.212       42.602       15.310       38.120       29.226       23.296     1453.118      854.170      542.682        0.392        0.142       68.948       13.312        0.037      347.288       26.149      862.622
08/15/2013  11:04:00       30.973       40.325       12.372       37.177       37.353       29.315     1382.158     1395.259      859.364        0.319        0.182       50.847       26.931        0.281      347.483       26.484      862.612
08/15/2013  11:05:00       73.265       63.801       11.607       43.753       23.587       26.690     1914.322      556.356      712.337        0.638        0.159       97.151       20.675        0.045      347.120       25.858      862.604
08/15/2013  11:06:00       76.496       63.590       23.717       28.072       19.499       32.837      788.054      380.229     1078.291        0.635        0.112       99.475        3.291        0.001      347.049       25.739      862.599
08/15/2013  11:07:00       88.449       62.614        8.937       55.936       30.321       36.762     3128.869      919.354     1351.411        0.861        0.270      108.369       22.629        0.044      347.290       26.153      862.584
08/15/2013  11:08:00       96.480       77.406        0.613       25.262       32.340       36.416      638.161     1045.845     1326.112        0.915        0.151      123.693       24.063        0.038      347.231       26.050      862.579
08/15/2013  11:09:00       30.362       59.177        1.270       31.539       35.391       35.121      994.697     1252.549     1233.454        0.395        0.174       66.512       19.000        0.082      347.486       26.490      862.570
08/15/2013  11:10:00       45.641       28.591       -0.998       19.875       22.319       28.981      395.028      498.155      839.910        0.232        0.087       53.857       17.009        0.100      347.529       26.564      862.559
08/15/2013  11:11:00       24.674       22.076       10.773       17.258       25.897       22.749      297.848      670.669      517.523        0.135        0.074       33.108       13.180        0.158      347.695       26.850      862.554
08/15/2013  11:12:00       26.075       43.827       -6.405       30.507       22.200       28.976      930.697      492.836      839.607        0.245        0.113       50.997       20.204        0.157      347.812       27.053      862.542
08/15/2013  11:13:00       52.621       22.604       21.334       44.569       33.562       25.064     1986.373     1126.407      628.182        0.374        0.187       57.270       21.216        0.137      347.918       27.237      862.532
08/15/2013  11:14:00       25.212       25.681       18.620       41.342       29.731       30.828     1709.157      883.940      950.389        0.259        0.177       35.988       15.534        0.186      347.966       27.319      862.520
08/15/2013  11:15:00       -6.183       18.076       26.827       44.077       30.709       25.806     1942.808      943.070      665.963        0.232        0.178       19.104       23.020        1.452      348.080       27.515      862.506
08/15/2013  11:16:00       40.978       22.326       17.088       42.635       41.210       34.769     1817.732     1698.289     1208.862        0.360        0.236       46.665       26.476        0.322      348.229       27.773      862.499
08/15/2013  11:17:00       36.172      -23.284       42.174       39.459       48.437       42.940     1556.978     2346.154     1843.874        0.469        0.287       43.018       27.668        0.414      348.075       27.507      862.479
08/15/2013  11:18:00       14.828       76.995      106.659       45.607       63.250       44.758     2079.958     4000.619     2003.288        1.280        0.404       78.410       46.456        0.351      347.840       27.102      862.474
08/15/2013  11:19:00       13.615       37.930       85.417       50.308       64.753       38.096     2530.917     4192.934     1451.328        0.855        0.409       40.299       41.246        1.048      348.044       27.454      862.462
08/15/2013  11:20:00       25.154      -29.764       20.943       30.657       48.326       39.705      939.832     2335.415     1576.513        0.340        0.243       38.969       39.486        1.027      348.218       27.755      862.451
08/15/2013  11:21:00      -11.854       63.547       80.802       17.598       32.710       28.100      309.684     1069.924      789.597        0.644        0.108       64.643       18.709        0.084      348.129       27.601      862.450
08/15/2013  11:22:00       20.864       58.045       87.055       53.923       52.839       31.790     2907.696     2791.985     1010.588        0.905        0.336       61.681       31.145        0.255      347.935       27.266      862.435
08/15/2013  11:23:00       26.840       56.432       43.841       42.808       40.865       33.341     1832.485     1669.966     1111.638        0.522        0.231       62.490       25.526        0.167      347.667       26.803      862.430
08/15/2013  11:24:00       26.637      -60.499        7.486       35.713       70.375       35.489     1275.425     4952.656     1259.496        0.596        0.374       66.104       28.483        0.186      347.810       27.048      862.418
08/15/2013  11:25:00        5.921       -3.435       51.082       27.591       61.513       32.545      761.251     3783.871     1059.187        0.413        0.280        6.845       38.470       31.585      348.091       27.534      862.407
08/15/2013  11:26:00       11.687       30.559       25.794       33.641       41.533       44.867     1131.728     1725.016     2013.074        0.330        0.243       32.718       34.737        1.127      347.973       27.332      862.411
08/15/2013  11:27:00       49.660       40.256       47.972       21.769       21.154       18.746      473.868      447.508      351.407        0.383        0.064       63.927        6.604        0.011      347.945       27.284      862.407
08/15/2013  11:28:00       19.654      -21.021       23.990       34.097       49.241       34.196     1162.597     2424.719     1169.372        0.308        0.238       28.778       34.768        1.460      348.020       27.412      862.409
08/15/2013  11:29:00       38.286       18.970       15.388       36.908       47.176       36.774     1362.216     2225.541     1352.306        0.350        0.247       42.728       23.600        0.305      348.078       27.513      862.403
08/15/2013  11:30:00      101.999       52.060       55.792       83.231       57.020       42.879     6927.326     3251.304     1838.649        1.412        0.601      114.516       38.632        0.114      347.981       27.343      862.396
08/15/2013  11:31:00       78.592       20.448       22.012       76.783       45.775       36.632     5895.642     2095.345     1341.925        0.820        0.467       81.209       33.263        0.168      348.033       27.435      862.379
08/15/2013  11:32:00       28.358       40.074       55.738       48.047       40.021       38.122     2308.483     1601.711     1453.264        0.544        0.268       49.093       26.390        0.289      348.245       27.801      862.376
08/15/2013  11:33:00       26.169       29.883       50.947       44.365       32.315       31.138     1968.263     1044.253      969.548        0.408        0.199       39.722       24.855        0.392      348.289       27.877      862.375
08/15/2013  11:34:00       17.683      -83.997        6.492       27.715       56.722       28.383      768.126     3217.406      805.567        0.610        0.240       85.838       18.435        0.046      348.063       27.486      862.361
08/15/2013  11:35:00       37.869      -16.411       24.237       26.520       47.107       26.362      703.304     2219.053      694.981        0.295        0.181       41.272       30.114        0.532      348.058       27.478      862.359
08/15/2013  11:36:00        1.256       12.750       32.544       26.452       29.635       20.938      699.694      878.226      438.402        0.162        0.101       12.812       15.534        1.470      348.305       27.904      862.342
08/15/2013  11:37:00       44.643       14.140       31.933       37.219       51.675       35.863     1385.255     2670.259     1286.187        0.428        0.267       46.829       28.937        0.382      348.115       27.575      862.346
08/15/2013  11:38:00       31.989       68.109        6.335       26.600       34.929       28.543      707.543     1220.048      814.697        0.422        0.137       75.247       12.663        0.028      347.909       27.219      862.340
08/15/2013  11:39:00       29.582       29.479       14.634       22.668       29.435       35.716      513.828      866.391     1275.666        0.231        0.133       41.763       26.809        0.412      348.577       28.374      862.327
08/15/2013  11:40:00       34.318      -23.349       10.455       27.509       53.035       26.123      756.721     2812.708      682.404        0.304        0.213       41.508       25.146        0.367      348.365       28.009      862.340
08/15/2013  11:41:00        0.106       58.549       10.328       23.457       49.172       27.819      550.230     2417.866      773.911        0.364        0.187       58.550       29.430        0.253      348.362       28.003      862.339
08/15/2013  11:42:00      -24.107       16.232        9.368       20.679       22.280       24.376      427.604      496.416      594.195        0.123        0.076       29.063       14.755        0.258      348.792       28.748      862.318
08/15/2013  11:43:00      -38.033      -29.847       11.913       29.061       33.800       26.935      844.551     1142.452      725.504        0.260        0.136       48.347       24.327        0.253      348.422       28.107      862.313
08/15/2013  11:44:00       18.527      -83.673       17.391       32.063       53.225       34.480     1028.006     2832.878     1188.884        0.635        0.252       85.700       33.065        0.149      348.279       27.859      862.309
08/15/2013  11:45:00       -9.796       27.001       45.400       15.756       23.445       18.396      248.264      549.647      338.416        0.201        0.057       28.723        3.014        0.011      348.829       28.811      862.301
08/15/2013  11:46:00        0.232      -41.383       -0.023       35.478       31.514       21.152     1258.685      993.114      447.421        0.221        0.135       41.384       17.689        0.183      348.347       27.977      862.293
08/15/2013  11:47:00        8.439       -5.282        8.066       19.323       17.823       21.301      373.367      317.659      453.721        0.065        0.057        9.956       15.554        2.441      348.835       28.822      862.277
08/15/2013  11:48:00      -35.180        2.219       13.025       44.642       26.019       24.042     1992.883      676.995      577.996        0.233        0.162       35.250       21.995        0.389      348.646       28.495      862.261
08/15/2013  11:49:00       26.961      -21.144       27.031       18.162       24.534       22.229      329.844      601.922      494.121        0.167        0.071       34.263       18.098        0.279      348.495       28.233      862.240
08/15/2013  11:50:00       16.152      -40.059       23.194       17.135       20.191       18.222      293.594      407.687      332.033        0.172        0.052       43.193       11.226        0.068      348.527       28.288      862.230
08/15/2013  11:51:00       -7.340      -72.318       15.545       22.795       63.539       22.400      519.620     4037.164      501.769        0.529        0.253       72.689       24.551        0.114      348.427       28.116      862.220
08/15/2013  11:52:00       26.468        6.535       36.921       33.897       43.442       29.197     1149.010     1887.222      852.463        0.300        0.194       27.263       28.939        1.127      348.416       28.096      862.219
08/15/2013  11:53:00       -6.605      -22.309       23.808       26.662       30.927       20.165      710.841      956.474      406.640        0.159        0.104       23.266       12.490        0.288      348.608       28.428      862.209
08/15/2013  11:54:00      -40.732      -36.199       -3.514       47.790       37.306       29.755     2283.887     1391.756      885.367        0.377        0.228       54.493       23.604        0.188      348.683       28.559      862.200
08/15/2013  11:55:00      -56.476      -45.148        8.554       60.821       46.221       31.042     3699.146     2136.373      963.620        0.605        0.340       72.304       29.495        0.166      348.637       28.478      862.188
08/15/2013  11:56:00      -86.694      -19.729       -0.575       65.970       48.857       31.672     4352.087     2387.043     1003.108        0.782        0.387       88.911       24.693        0.077      348.327       27.942      862.194
08/15/2013  11:57:00      -94.437        8.528      -17.634       26.225       28.397       19.255      687.751      806.374      370.765        0.558        0.093       94.822       15.775        0.028      348.204       27.728      862.184
08/15/2013  11:58:00      -98.251      -15.765       -3.484       21.711       29.227       20.239      471.375      854.215      409.614        0.582        0.087       99.508       14.182        0.020      348.284       27.870      862.176
08/15/2013  11:59:00      -50.562      -55.727       -1.966       53.581       25.970       26.231     2870.888      674.445      688.076        0.495        0.212       75.246       11.433        0.023      348.333       27.951      862.167
08/15/2013  12:00:00      -67.038      -13.683      -13.794       44.223       46.592       29.773     1955.665     2170.858      886.461        0.494        0.251       68.420       34.401        0.253      348.405       28.076      862.154
08/15/2013  12:01:00      -91.576       45.407      -12.055       30.097       24.565       20.028      905.837      603.419      401.128        0.625        0.096      102.216       10.450        0.010      348.284       27.866      862.138
08/15/2013  12:02:00      -87.172       71.352       -7.818       40.517       41.617       29.119     1641.601     1731.993      847.925        0.849        0.211      112.650       20.153        0.032      348.601       28.416      862.117
08/15/2013  12:03:00      -60.567       34.348        2.820       49.658       31.634       30.527     2465.924     1000.682      931.914        0.463        0.220       69.628       33.004        0.225      349.003       29.113      862.114
08/15/2013  12:04:00      -35.148       11.761        3.665       36.924       22.161       21.017     1363.376      491.104      441.710        0.184        0.115       37.064       20.822        0.316      348.983       29.077      862.106
08/15/2013  12:05:00      -11.690      -23.109       20.986       30.288       29.241       23.417      917.387      855.063      548.350        0.172        0.116       25.898       22.501        0.755      349.392       29.786      862.110
08/15/2013  12:06:00      -40.409      -72.735        8.211       57.839       56.025       28.831     3345.389     3138.746      831.223        0.715        0.366       83.206       24.211        0.085      348.701       28.591      862.102
08/15/2013  12:07:00      -32.528      -56.086        7.849       40.255       66.023       26.637     1620.465     4359.046      709.530        0.548        0.334       64.836       26.005        0.161      348.578       28.376      862.097
08/15/2013  12:08:00      -45.784        3.565        7.665       27.565       21.556       22.706      759.843      464.673      515.562        0.195        0.087       45.923       17.922        0.152      348.865       28.873      862.084
08/15/2013  12:09:00       22.428       41.383       35.901       32.384       32.148       18.987     1048.746     1033.511      360.504        0.297        0.122       47.070       10.845        0.053      348.963       29.044      862.067
08/15/2013  12:10:00       44.249       49.526       48.936       50.104       55.754       46.516     2510.440     3108.547     2163.784        0.729        0.389       66.414       34.299        0.267      348.878       28.896      862.058
08/15/2013  12:11:00       35.837       19.458       57.504       43.163       31.733       31.524     1863.018     1006.974      993.759        0.442        0.193       40.779       26.441        0.420      349.103       29.286      862.058
08/15/2013  12:12:00       45.219      -32.303       17.526       46.908       52.441       24.526     2200.359     2750.015      601.505        0.447        0.278       55.572       31.398        0.319      348.869       28.881      862.059
08/15/2013  12:13:00       24.932      -58.754       18.357       45.045       51.409       40.834     2029.016     2642.867     1667.443        0.537        0.317       63.825       31.569        0.245      348.982       29.076      862.042
08/15/2013  12:14:00      -26.095      -74.988       -3.366       33.186       53.820       29.232     1101.315     2896.545      854.504        0.558        0.243       79.398       17.991        0.051      349.032       29.164      862.038
08/15/2013  12:15:00      -37.387     -102.048       -9.747       39.341       35.700       29.103     1547.699     1274.517      846.965        0.779        0.183      108.681       14.200        0.017      348.781       28.729      862.039
08/15/2013  12:16:00      -98.556      -59.197       -7.330       61.276       52.651       34.756     3754.801     2772.095     1207.975        1.050        0.387      114.968       22.517        0.038      348.918       28.964      862.026
08/15/2013  12:17:00      -69.507     -117.506       -7.075       38.308       47.506       27.551     1467.496     2256.849      759.034        1.159        0.224      136.524       23.247        0.029      348.581       28.382      862.048
08/15/2013  12:18:00      -97.150      -47.624      -12.262       30.545       38.812       23.669      933.013     1506.400      560.223        0.743        0.150      108.195       21.286        0.039      348.571       28.363      862.040
08/15/2013  12:19:00      -20.045       51.596       25.168       40.660       39.592       25.171     1653.218     1567.562      633.590        0.378        0.193       55.353       22.091        0.159      349.500       29.974      862.027
08/15/2013  12:20:00      -19.067       13.034       15.514       22.793       16.226       27.149      519.505      263.277      737.081        0.115        0.076       23.096       18.590        0.648      349.784       30.467      862.009
08/15/2013  12:21:00      -16.229       19.943       20.145       31.050       34.480       24.023      964.081     1188.876      577.120        0.190        0.137       25.712       18.047        0.493      349.812       30.515      861.998
08/15/2013  12:22:00      -34.675      -16.419        8.523       49.942       33.890       26.703     2494.216     1148.507      713.042        0.295        0.218       38.366       31.227        0.662      349.221       29.490      861.988
08/15/2013  12:23:00        3.987       10.698       36.308       29.614       20.787       14.040      876.964      432.104      197.128        0.148        0.075       11.416       12.415        1.183      349.644       30.225      861.985
08/15/2013  12:24:00       45.983      -18.739        7.518       38.349       78.584       38.898     1470.617     6175.417     1513.016        0.584        0.458       49.654       32.439        0.427      348.478       28.203      861.958
08/15/2013  12:25:00      -18.701      -33.800       12.301       43.911       43.433       25.184     1928.197     1886.439      634.222        0.305        0.222       38.628       20.111        0.271      349.268       29.572      861.941
08/15/2013  12:26:00      -36.893        4.004        5.902       42.594       34.173       26.832     1814.287     1167.808      719.965        0.256        0.185       37.110       25.882        0.486      349.274       29.584      861.937
08/15/2013  12:27:00      -36.561      -46.306       -0.853       50.488       55.542       33.675     2549.013     3084.877     1133.995        0.512        0.338       59.000       27.354        0.215      349.304       29.634      861.926
08/15/2013  12:28:00      -65.270      -29.066       -7.012       33.406       31.600       24.172     1115.971      998.579      584.271        0.393        0.135       71.449       15.406        0.046      349.094       29.269      861.908
08/15/2013  12:29:00       10.353      -19.491        3.463       39.602       28.537       24.613     1568.327      814.381      605.818        0.174        0.149       22.070       20.108        0.830      349.510       29.993      861.904
08/15/2013  12:30:00       -0.069      -31.923       19.610       30.366       51.116       30.618      922.124     2612.825      937.439        0.294        0.224       31.923       32.344        1.027      349.507       29.986      861.889
08/15/2013  12:31:00      -25.388      -36.389        6.937       48.482       54.123       33.076     2350.530     2929.289     1094.012        0.419        0.319       44.370       36.184        0.665      349.495       29.966      861.882
08/15/2013  12:32:00     -132.315      -38.212      -13.044       41.130       46.356       29.773     1691.659     2148.852      886.435        1.193        0.236      137.722       23.951        0.030      348.688       28.567      861.884
08/15/2013  12:33:00     -145.626       45.486       -4.804       33.084       30.531       23.403     1094.532      932.162      547.704        1.294        0.129      152.565        6.790        0.002      348.755       28.682      861.872
08/15/2013  12:34:00     -118.252       77.249      -21.198       25.302       27.622       21.494      640.208      762.976      461.991        1.113        0.093      141.247       10.630        0.006      348.791       28.745      861.870
08/15/2013  12:35:00      -82.906       20.832      -18.432       47.620       28.894       19.028     2267.656      834.887      362.061        0.556        0.173       85.483       17.930        0.044      348.880       28.899      861.864
08/15/2013  12:36:00      -19.476        5.353       -0.822       56.019       54.338       31.273     3138.151     2952.566      978.013        0.374        0.353       20.199       25.492        1.593      349.313       29.651      861.854
08/15/2013  12:37:00       13.616       23.944       27.362       38.521       21.966       24.156     1483.890      482.488      583.508        0.203        0.127       27.545       22.540        0.670      349.304       29.634      861.829
08/15/2013  12:38:00       14.953       75.206       24.973       57.422       61.141       41.723     3297.275     3738.226     1740.820        0.764        0.439       76.678       38.734        0.255      349.487       29.951      861.822
08/15/2013  12:39:00        7.164       63.566       11.827       31.695       61.439       25.188     1004.570     3774.703      634.458        0.482        0.271       63.968       29.599        0.214      349.610       30.164      861.797
08/15/2013  12:40:00       51.036      131.789       -9.476       56.362       67.803       42.942     3176.717     4597.306     1844.005        1.484        0.481      141.326       41.160        0.085      349.295       29.617      861.787
08/15/2013  12:41:00       60.045       93.513       -1.785       42.459       45.745       38.932     1802.767     2092.601     1515.663        0.888        0.271      111.130       31.187        0.079      349.245       29.532      861.771
08/15/2013  12:42:00       64.653      173.943      -11.982       77.700       69.375       59.470     6037.337     4812.845     3536.642        2.448        0.719      185.570       53.556        0.083      349.183       29.421      861.763
08/15/2013  12:43:00       82.439       91.466       -2.365       50.157       69.515       43.709     2515.717     4832.392     1910.475        1.221        0.463      123.135       38.906        0.100      349.293       29.613      861.752
08/15/2013  12:44:00       -2.796       99.032       -0.706       49.082       55.750       36.781     2409.036     3108.062     1352.830        0.834        0.343       99.071       27.474        0.077      349.556       30.071      861.750
08/15/2013  12:45:00        1.649       -1.204       14.815       35.544       27.183       34.252     1263.387      738.911     1173.191        0.170        0.159        2.042       17.593       74.243      349.679       30.284      861.745
08/15/2013  12:46:00       38.893       20.371       22.307       45.430       27.148       19.858     2063.907      737.022      394.331        0.281        0.160       43.905       17.793        0.164      349.637       30.212      861.740
08/15/2013  12:47:00       41.058       37.143       16.381       27.029       37.601       28.938      730.549     1413.844      837.433        0.316        0.149       55.365       25.381        0.210      349.516       30.000      861.729
08/15/2013  12:48:00       44.527       34.979        9.631       23.921       34.000       19.252      572.194     1155.980      370.638        0.270        0.105       56.623       18.121        0.102      349.218       29.484      861.726
08/15/2013  12:49:00       -4.252       -1.160       26.739       13.453       37.298       25.227      180.971     1391.142      636.422        0.147        0.110        4.407       18.238       17.123      349.383       29.771      861.716
08/15/2013  12:50:00       38.874       38.801       24.784       28.932       20.375       25.892      837.053      415.155      670.388        0.278        0.096       54.925        7.037        0.016      349.567       30.091      861.715
08/15/2013  12:51:00       22.897      -14.652       14.675       22.029       34.083       28.055      485.267     1161.645      787.111        0.169        0.122       27.184       14.310        0.277      349.622       30.186      861.696
08/15/2013  12:52:00       29.622      -21.832        6.746       18.425       36.229       29.552      339.465     1312.565      873.299        0.196        0.126       36.798       27.063        0.541      349.287       29.606      861.683
08/15/2013  12:53:00        5.142       62.464        5.541       31.591       36.855       26.802      998.007     1358.292      718.349        0.352        0.154       62.675       17.019        0.074      349.628       30.195      861.656
08/15/2013  12:54:00       83.841       59.731       28.258       68.656       45.207       43.632     4713.612     2043.689     1903.760        1.003        0.433      102.942       27.609        0.072      349.541       30.046      861.642
08/15/2013  12:55:00      171.077      114.812       64.896      112.661       51.650       57.848    12692.561     2667.726     3346.338        3.268        0.935      206.032       57.857        0.079      349.408       29.811      861.619
08/15/2013  12:56:00      157.728      104.343       11.551       59.249       46.330       49.570     3510.486     2146.454     2457.234        2.201        0.406      189.118       34.078        0.032      349.232       29.508      861.633
08/15/2013  12:57:00       99.305       70.657       33.341       46.402       38.167       47.807     2153.174     1456.718     2285.544        1.093        0.295      121.877       26.941        0.049      349.384       29.772      861.636
08/15/2013  12:58:00       74.984       87.142       45.028       52.038       52.676       57.141     2707.958     2774.721     3265.117        1.199        0.437      114.962       43.348        0.142      349.078       29.243      861.638
08/15/2013  12:59:00       68.005       51.036        2.539       31.435       28.703       26.098      988.138      823.884      681.128        0.486        0.125       85.026       20.373        0.057      349.398       29.796      861.646
08/15/2013  13:00:00       57.032       40.340       28.623       33.250       47.638       36.133     1105.547     2269.426     1305.581        0.519        0.234       69.857       29.313        0.176      349.147       29.363      861.643
08/15/2013  13:01:00      111.011      -67.190        7.438       88.367       81.178       54.782     7808.789     6589.943     3001.075        1.714        0.870      129.761       59.197        0.208      349.466       29.912      861.629
08/15/2013  13:02:00       72.960      -80.923       11.422       77.724       88.403       44.700     6041.001     7815.122     1998.128        1.393        0.793      108.957       59.307        0.296      349.528       30.022      861.617
08/15/2013  13:03:00       56.964     -128.639      -15.907       67.930       74.079       33.542     4614.479     5487.725     1125.094        1.563        0.561      140.688       20.457        0.021      349.479       29.935      861.610
08/15/2013  13:04:00      -18.685      -86.933        7.473       58.198       52.973       36.632     3387.015     2806.122     1341.929        0.775        0.377       88.919       18.971        0.046      349.690       30.303      861.591
08/15/2013  13:05:00       17.604      -60.932       23.663       56.246       78.037       52.716     3163.578     6089.717     2778.966        0.831        0.602       63.424       48.834        0.593      349.858       30.595      861.598
08/15/2013  13:06:00      -66.513     -110.452        4.138       57.675       72.228       46.615     3326.370     5216.870     2172.978        1.368        0.536      128.932       35.397        0.075      349.605       30.156      861.609
08/15/2013  13:07:00      -70.391      -67.048       15.346       91.711       56.669       35.924     8410.911     3211.346     1290.564        1.130        0.646       97.213       37.173        0.146      349.725       30.362      861.606
08/15/2013  13:08:00       -3.791      -55.756        6.937       60.043       73.383       45.092     3605.211     5385.049     2033.295        0.710        0.551       55.885       44.356        0.630      349.973       30.795      861.609
08/15/2013  13:09:00       15.100     -120.170       -7.669       90.894       70.483       36.512     8261.669     4967.923     1333.116        1.464        0.728      121.115       37.844        0.098      349.634       30.205      861.606
08/15/2013  13:10:00       31.231      -66.404        4.266       43.023       59.027       35.071     1850.957     3484.135     1229.981        0.598        0.328       73.381       36.985        0.254      349.760       30.426      861.617
08/15/2013  13:11:00       -8.751       16.008       27.443       47.613       31.841       24.317     2267.014     1013.858      591.306        0.248        0.194       18.244        5.758        0.100      349.875       30.625      861.619
08/15/2013  13:12:00       25.572       54.490       67.936       55.727       41.861       33.336     3105.472     1752.355     1111.294        0.710        0.298       60.192       35.606        0.350      349.525       30.019      861.620
08/15/2013  13:13:00       53.708       57.575       31.331       29.014       37.205       26.935      841.798     1384.175      725.498        0.507        0.148       78.737       17.830        0.051      349.446       29.881      861.611
08/15/2013  13:14:00       38.143      -35.245       10.472       45.137       61.743       45.668     2037.390     3812.183     2085.532        0.537        0.397       51.934       36.189        0.486      349.332       29.683      861.616
08/15/2013  13:15:00      130.203     -130.000        1.396       67.233       85.208       55.468     4520.223     7260.347     3076.672        2.435        0.743      183.992       57.562        0.098      349.459       29.899      861.614
08/15/2013  13:16:00       54.270     -121.921      -18.420       56.211       49.182       41.690     3159.677     2418.900     1738.036        1.273        0.366      133.454       30.585        0.053      349.582       30.117      861.617
08/15/2013  13:17:00      -32.307      -51.009       -0.086       51.231       42.814       35.169     2624.585     1833.014     1236.824        0.467        0.285       60.379       28.580        0.224      350.031       30.895      861.613
08/15/2013  13:18:00      -21.063      -42.957       -8.164       41.404       56.636       29.199     1714.277     3207.667      852.606        0.406        0.289       47.843       20.604        0.185      349.726       30.367      861.595
08/15/2013  13:19:00       20.249       33.189       50.686       37.813       53.142       39.926     1429.813     2824.103     1594.067        0.496        0.292       38.879       30.656        0.622      349.446       29.881      861.584
08/15/2013  13:20:00       30.823      -75.568       13.125       57.929       48.861       37.001     3355.805     2387.376     1369.072        0.697        0.356       81.612       34.519        0.179      349.473       29.928      861.595
08/15/2013  13:21:00       38.694     -125.494       -2.274       37.161       47.926       37.396     1380.940     2296.877     1398.496        1.116        0.254      131.324       22.126        0.028      349.293       29.614      861.597
08/15/2013  13:22:00      -12.873      -77.770       24.083       46.032       77.000       34.352     2118.945     5929.024     1180.071        0.801        0.461       78.829       38.262        0.236      349.611       30.166      861.584
08/15/2013  13:23:00       24.916       -9.024       39.820       53.794       90.767       55.084     2893.813     8238.597     3034.274        0.822        0.708       26.500       65.547        6.118      349.606       30.158      861.570
08/15/2013  13:24:00       48.880     -176.286      -29.100       51.428       45.525       37.501     2644.890     2072.535     1406.360        2.022        0.306      182.937       29.727        0.026      349.482       29.941      861.572
08/15/2013  13:25:00       85.875      -88.795        5.370       44.283       96.661       43.128     1960.952     9343.258     1859.982        1.422        0.658      123.528       52.731        0.182      349.553       30.065      861.577
08/15/2013  13:26:00       10.142        9.837       18.514       21.802       44.147       27.653      475.342     1948.981      764.707        0.187        0.159       14.129       27.377        3.754      349.793       30.483      861.565
08/15/2013  13:27:00      -17.500       43.289        7.003       23.450       25.952       26.617      549.914      673.484      708.488        0.208        0.097       46.693       13.931        0.089      349.998       30.838      861.543
08/15/2013  13:28:00      -47.099       48.059        0.059       44.088       21.044       30.115     1943.763      442.852      906.896        0.391        0.165       67.291       24.458        0.132      349.723       30.361      861.538
08/15/2013  13:29:00       23.450       20.487        0.867       31.048       38.975       30.336      964.007     1519.020      920.251        0.219        0.170       31.139       19.630        0.397      349.333       29.686      861.516
08/15/2013  13:30:00      -75.166       78.151      -13.367       37.044       60.211       29.800     1372.294     3625.385      888.016        0.891        0.294      108.432       26.927        0.062      350.034       30.900      861.499
08/15/2013  13:31:00      -70.858      101.969      -17.940       75.655       39.404       32.428     5723.663     1552.669     1051.579        1.203        0.416      124.171       30.886        0.062      349.951       30.757      861.497
08/15/2013  13:32:00     -170.176       34.722      -21.710       61.401       38.393       29.302     3770.074     1473.994      858.620        1.837        0.305      173.683       16.691        0.009      349.416       29.825      861.488
08/15/2013  13:33:00     -165.075      -47.451      -13.798       89.664       64.659       35.582     8039.636     4180.742     1266.067        2.159        0.674      171.760       42.603        0.062      349.489       29.952      861.446
08/15/2013  13:34:00      -40.225      -54.332       19.898       52.185       34.476       37.932     2723.267     1188.622     1438.839        0.516        0.268       67.602       28.453        0.177      349.762       30.428      861.447
08/15/2013  13:35:00      -89.633      -42.809       10.695       81.220       50.452       36.714     6596.711     2545.384     1347.932        1.023        0.525       99.331       41.108        0.171      349.851       30.580      861.458
08/15/2013  13:36:00      -33.441      -53.782       -2.189       81.687       38.857       36.502     6672.843     1509.875     1332.414        0.676        0.476       63.331       30.552        0.233      349.803       30.499      861.446
08/15/2013  13:37:00       18.681      -31.553       25.736       35.514       67.425       40.828     1261.258     4546.154     1666.897        0.474        0.374       36.668       41.745        1.296      350.015       30.869      861.440
08/15/2013  13:38:00     -100.459      -99.091       -6.505       89.383       52.943       37.485     7989.391     2802.941     1405.125        1.607        0.610      141.107       50.062        0.126      349.606       30.156      861.447
08/15/2013  13:39:00      -92.317      -90.053       -5.165       56.641       40.777       31.656     3208.175     1662.754     1002.086        1.126        0.294      128.965       24.874        0.037      349.624       30.189      861.440
08/15/2013  13:40:00       -2.931      -33.755       -4.552       20.845       34.378       15.196      434.527     1181.877      230.916        0.151        0.092       33.882        8.357        0.061      349.648       30.231      861.424
08/15/2013  13:41:00       21.939       17.871       33.263       21.172       21.374       16.012      448.273      456.867      256.374        0.153        0.058       28.296       11.316        0.160      350.084       30.987      861.403
08/15/2013  13:42:00       55.466       48.002       -3.508       24.443       21.705       23.833      597.438      471.094      568.027        0.351        0.082       73.353       10.460        0.020      349.433       29.857      861.391
08/15/2013  13:43:00        9.686       18.251       20.228       25.103       32.640       22.869      630.149     1065.400      522.977        0.153        0.111       20.661       20.118        0.948      350.215       31.216      861.379
08/15/2013  13:44:00      -33.992        9.703        4.435       14.504       17.021       17.394      210.378      289.716      302.557        0.104        0.040       35.350       11.560        0.107      349.888       30.647      861.372
08/15/2013  13:45:00      -69.677        5.804        7.239       63.783       39.861       30.883     4068.209     1588.912      953.781        0.577        0.331       69.918       24.259        0.120      349.924       30.710      861.372
08/15/2013  13:46:00     -146.895       69.471       -7.690       61.770       31.536       29.364     3815.491      994.506      862.216        1.607        0.284      162.494       34.377        0.045      349.755       30.415      861.365
08/15/2013  13:47:00      -36.098       13.766        8.849       67.126       44.302       33.990     4505.838     1962.659     1155.305        0.460        0.381       38.634       31.900        0.682      350.187       31.167      861.351
08/15/2013  13:48:00       -6.442       -0.683        3.249       48.841       34.483       35.150     2385.446     1189.085     1235.517        0.243        0.241        6.478       31.334       23.400      350.163       31.125      861.346
08/15/2013  13:49:00     -110.797       22.012      -13.451       72.151       39.599       22.933     5205.832     1568.105      525.937        1.012        0.365      112.963       27.187        0.058      349.786       30.468      861.319
08/15/2013  13:50:00      -37.783      123.380        8.818       55.862       77.360       36.541     3120.565     5984.647     1335.276        1.358        0.522      129.036       40.782        0.100      349.973       30.794      861.278
08/15/2013  13:51:00      -46.046      176.832      -25.011       40.769       58.176       30.492     1662.121     3384.430      929.770        1.999        0.299      182.728       22.373        0.015      349.587       30.123      861.259
08/15/2013  13:52:00       -3.940      114.786      -21.099       34.462       55.075       28.849     1187.640     3033.224      832.240        0.934        0.253      114.853       24.039        0.044      349.805       30.503      861.251
08/15/2013  13:53:00       -0.939        2.541        7.784       21.717       18.909       19.039      471.619      357.547      362.501        0.063        0.060        2.709        7.210        7.083      350.391       31.521      861.237
08/15/2013  13:54:00      -21.378      -23.357       -1.780       52.875       57.769       27.769     2795.752     3337.279      771.127        0.395        0.345       31.663       34.084        1.159      350.068       30.961      861.252
08/15/2013  13:55:00     -171.997      -81.941      -10.238       72.447       64.987       34.016     5248.533     4223.306     1157.121        2.351        0.531      190.519       22.233        0.014      349.792       30.477      861.233
08/15/2013  13:56:00     -122.081      -77.067       -9.782       75.708       50.609       30.963     5731.766     2561.284      958.693        1.509        0.463      144.372       39.096        0.073      349.867       30.609      861.217
08/15/2013  13:57:00       19.086      -48.539       22.590       35.028       80.509       36.968     1226.927     6481.731     1366.598        0.615        0.454       52.157       48.447        0.863      350.331       31.418      861.207
08/15/2013  13:58:00      -66.127      -53.637        0.019       50.005       46.109       32.490     2500.533     2126.036     1055.622        0.647        0.284       85.145       23.535        0.076      350.340       31.433      861.176
08/15/2013  13:59:00     -120.889      -96.301       -2.866       83.014       73.341       45.218     6891.369     5378.881     2044.706        1.910        0.716      154.557       37.568        0.059      350.232       31.244      861.171
08/15/2013  14:00:00      -43.106     -160.990       13.281       84.478       78.137       52.010     7136.601     6105.454     2704.994        2.195        0.797      166.661       40.139        0.058      349.891       30.649      861.152
08/15/2013  14:01:00     -254.972     -179.278        1.324      175.825      110.971       76.115    30914.367    12314.605     5793.529        7.308        2.451      311.691       88.145        0.080      349.865       30.603      861.131
08/15/2013  14:02:00     -247.842       20.628      -23.959      106.549       76.854       46.771    11352.593     5906.551     2187.564        4.093        0.972      248.699       45.915        0.034      349.870       30.613      861.150
08/15/2013  14:03:00      -69.319       91.626       -8.340       58.891       73.911       34.884     3468.169     5462.830     1216.896        1.171        0.507      114.893       20.091        0.031      349.934       30.726      861.148
08/15/2013  14:04:00      -13.325       57.106       10.711       27.536       45.970       31.135      758.227     2113.226      969.416        0.370        0.192       58.640       29.796        0.258      350.260       31.295      861.147
08/15/2013  14:05:00      -43.389       11.065       -3.923       40.544       32.326       24.544     1643.804     1044.952      602.388        0.266        0.165       44.778       13.548        0.092      350.194       31.180      861.147
08/15/2013  14:06:00     -127.718       -0.153       11.054       76.737       66.340       46.348     5888.573     4401.003     2148.120        1.443        0.622      127.718       54.371        0.181      350.030       30.893      861.144
08/15/2013  14:07:00      -28.708       54.127       -5.389       32.364       54.417       21.951     1047.444     2961.212      481.849        0.414        0.225       61.269       13.499        0.049      350.085       30.988      861.130
08/15/2013  14:08:00       49.233       85.442       18.849       35.961       35.948       37.295     1293.204     1292.280     1390.883        0.703        0.199       98.612       20.347        0.043      350.126       31.060      861.103
08/15/2013  14:09:00       16.339       58.690        1.661       42.642       29.656       33.431     1818.359      879.468     1117.627        0.376        0.191       60.922       23.826        0.153      350.155       31.111      861.089
08/15/2013  14:10:00      -16.765       -1.646       15.263       97.128       53.035       37.965     9433.797     2812.730     1441.306        0.710        0.684       16.846       42.079        6.240      349.733       30.378      861.110
08/15/2013  14:11:00     -219.033     -164.825       -3.168       95.433       80.855       54.082     9107.521     6537.472     2924.821        4.686        0.928      274.122       56.261        0.042      349.967       30.780      861.109
08/15/2013  14:12:00     -257.424     -160.318       -3.579      119.942      106.800       57.611    14386.171    11406.278     3319.068        6.054        1.456      303.263       67.377        0.049      349.876       30.622      861.116
08/15/2013  14:13:00     -244.793     -150.223       -2.965       95.843       86.229       56.340     9185.869     7435.426     3174.160        5.114        0.990      287.212       62.049        0.047      349.995       30.829      861.141
08/15/2013  14:14:00     -208.323      -59.637        0.985      113.247       65.773       51.742    12824.954     4326.061     2677.232        3.339        0.991      216.691       61.010        0.079      350.139       31.081      861.144
08/15/2013  14:15:00      -22.652       85.008       12.911       67.483       78.926       50.203     4553.977     6229.274     2520.363        1.060        0.665       87.975       32.982        0.141      350.104       31.022      861.121
08/15/2013  14:16:00       34.260        7.460       -5.853       54.298       30.056       28.866     2948.277      903.385      833.219        0.297        0.234       35.063       15.243        0.189      350.043       30.916      861.117
08/15/2013  14:17:00      -39.592       -7.494        9.430       49.196       59.015       39.255     2420.218     3482.777     1540.937        0.458        0.372       40.295       38.371        0.907      350.337       31.427      861.119
08/15/2013  14:18:00       41.864      -25.768       12.509       99.288      127.865       61.543     9858.148    16349.394     3787.536        1.628        1.500       49.159       43.741        0.792      349.637       30.211      861.094
08/15/2013  14:19:00       54.590      -28.986       55.582      106.590      166.529      131.148    11361.504    27731.834    17199.918        3.159        2.815       61.808      132.264        4.579      349.881       30.632      861.035
08/15/2013  14:20:00       99.957      210.422      218.150      185.220      102.697      100.450    34306.537    10546.652    10090.142        7.839        2.747      232.957      108.809        0.218      349.685       30.291      860.936
08/15/2013  14:21:00      169.043       75.022       70.864      140.251      113.865      101.986    19670.462    12965.142    10401.174        4.112        2.152      184.943       87.782        0.225      349.803       30.498      860.942
08/15/2013  14:22:00      -86.752      -22.969      -18.956       63.926       41.150       31.531     4086.586     1693.322      994.222        0.759        0.339       89.741       34.248        0.146      350.321       31.400      860.979
08/15/2013  14:23:00       91.227     -189.233      -10.944       54.704       93.619       35.346     2992.581     8764.572     1249.369        2.863        0.650      210.076       39.747        0.036      350.233       31.244      861.010
08/15/2013  14:24:00       83.742     -125.760        5.721       97.148      146.317       85.263     9437.693    21408.650     7269.715        3.048        1.906      151.090       81.687        0.292      350.289       31.342      860.997
08/15/2013  14:25:00       56.053     -100.084        6.130       63.501      115.967       52.206     4032.326    13448.287     2725.446        1.670        1.010      114.712       66.730        0.338      350.106       31.024      861.011
08/15/2013  14:26:00       -1.136     -137.140        0.873       97.219      121.894       85.307     9451.525    14858.245     7277.295        2.519        1.579      137.145       57.937        0.178      350.279       31.323      860.986
08/15/2013  14:27:00      -19.478     -120.972      -18.602       66.682       62.475       42.762     4446.452     3903.067     1828.606        1.277        0.509      122.530       17.725        0.021      350.280       31.328      861.023
08/15/2013  14:28:00     -110.532      -65.172       -1.999       88.733      120.975       42.103     7873.566    14635.026     1772.654        2.037        1.214      128.315       56.078        0.191      350.291       31.344      861.031
08/15/2013  14:29:00      -26.105      -45.186        5.078       53.127       47.099       31.399     2822.427     2218.290      985.894        0.439        0.301       52.184       28.886        0.306      350.694       32.047      861.023
08/15/2013  14:30:00      -53.576      -66.811       18.038       87.873       66.713       40.265     7721.648     4450.659     1621.288        1.072        0.690       85.639       46.121        0.290      350.643       31.957      861.029
08/15/2013  14:31:00     -100.290     -113.630       -9.681       82.618       85.540       45.449     6825.705     7317.166     2065.590        1.963        0.810      151.558       44.398        0.086      350.351       31.450      861.034
08/15/2013  14:32:00      -22.062     -185.286        1.752       88.593       94.733       52.336     7848.674     8974.294     2739.035        2.719        0.978      186.595       28.514        0.023      350.226       31.231      861.043
08/15/2013  14:33:00       23.997      -91.114       -3.348       73.713       74.828       34.655     5433.671     5599.234     1200.992        1.056        0.612       94.221       30.828        0.107      350.223       31.228      861.036
08/15/2013  14:34:00      105.027     -138.505        8.634       59.913       94.388       45.204     3589.587     8909.149     2043.417        2.241        0.727      173.822       48.749        0.079      350.130       31.065      861.019
08/15/2013  14:35:00       52.708      -49.182       37.008       59.405       92.055       54.666     3528.966     8474.188     2988.354        1.078        0.750       72.090       54.022        0.562      350.349       31.446      860.995
08/15/2013  14:36:00       30.263     -128.365       40.771      137.774      155.383      101.896    18981.722    24143.940    10382.845        3.627        2.675      131.884      101.297        0.590      350.500       31.708      860.953
08/15/2013  14:37:00      -93.280      -85.102       19.273      102.513       53.530       54.356    10508.822     2865.435     2954.532        1.632        0.816      126.267       24.680        0.038      350.745       32.136      860.988
08/15/2013  14:38:00       -6.634     -228.005        3.353       69.749      154.298       57.806     4864.925    23808.020     3341.487        4.202        1.601      228.102       65.999        0.084      350.229       31.237      861.038
08/15/2013  14:39:00        3.458     -151.272       -1.398       77.720       82.214       52.966     6040.380     6759.174     2805.371        1.925        0.780      151.312       36.255        0.057      350.250       31.275      861.025
08/15/2013  14:40:00      -45.809      -97.203       14.782      174.275      101.587       65.713    30371.867    10319.943     4318.252        2.838        2.251      107.457       47.375        0.194      350.355       31.456      861.028
08/15/2013  14:41:00       75.405     -179.018        3.949      103.069      156.459       84.083    10623.274    24479.547     7069.901        3.995        2.109      194.250       79.854        0.169      350.360       31.465      861.027
08/15/2013  14:42:00       49.095     -126.568        7.220       93.208      105.746       61.293     8687.762    11182.241     3756.871        2.105        1.181      135.757       53.514        0.155      350.355       31.456      861.051
08/15/2013  14:43:00       -0.419       -4.777        7.452       26.907       36.850       39.749      724.006     1357.946     1579.963        0.187        0.183        4.795       16.831       12.319      350.459       31.641      861.034
08/15/2013  14:44:00      -11.079       17.810       20.511       33.961       23.084       27.511     1153.379      532.848      756.852        0.165        0.122       20.974       19.467        0.861      350.362       31.472      861.023
08/15/2013  14:45:00       49.058     -107.246       16.581      108.366       81.795       50.090    11743.207     6690.470     2509.011        1.756        1.047      117.934       30.058        0.065      350.205       31.197      861.013
08/15/2013  14:46:00      147.909      -77.999       36.854       93.427      148.958       73.354     8728.597    22188.634     5380.855        3.280        1.815      167.215       75.686        0.205      350.197       31.180      860.964
08/15/2013  14:47:00      136.344       -8.233       87.952      137.395      113.489       97.052    18877.367    12879.846     9419.093        3.378        2.059      136.593       92.834        0.462      350.363       31.469      860.932
08/15/2013  14:48:00      152.366     -169.462       12.191      154.804      150.761       90.765    23964.144    22728.978     8238.294        5.350        2.747      227.887       96.820        0.181      350.355       31.455      860.920
08/15/2013  14:49:00      130.127     -200.725        8.533      146.603      165.602      101.503    21492.562    27424.067    10302.903        5.825        2.961      239.214      104.912        0.192      350.616       31.910      860.970
08/15/2013  14:50:00      -51.332     -236.234       -5.055      124.775      149.884       79.765    15568.687    22465.353     6362.393        5.142        2.220      241.747       60.694        0.063      350.540       31.777      861.004
08/15/2013  14:51:00        0.525     -107.734       33.123       82.174       96.968       49.352     6752.583     9402.761     2435.584        1.564        0.930      107.736       44.128        0.168      350.697       32.052      860.998
08/15/2013  14:52:00      114.430     -176.072       12.112      138.465      164.820       81.474    19172.632    27165.707     6638.039        4.860        2.649      209.989       93.512        0.198      350.301       31.361      860.991
08/15/2013  14:53:00      120.775       -7.843      159.537      222.385      287.990      165.051    49455.308    82938.092    27241.919        9.984        7.982      121.030      202.730        2.806      350.424       31.575      860.896
08/15/2013  14:54:00      -20.620     -136.714      -43.680      128.597      104.172       61.337    16537.203    10851.843     3762.255        2.608        1.558      138.260       43.304        0.098      350.551       31.798      861.001
08/15/2013  14:55:00       77.311     -199.535        0.265       92.803      131.849       73.598     8612.398    17384.182     5416.616        3.860        1.571      213.989       59.872        0.078      350.157       31.111      861.037
08/15/2013  14:56:00       12.186      -80.791      -14.667       54.032      107.893       49.821     2919.486    11640.931     2482.156        1.196        0.852       81.705       62.122        0.578      350.478       31.671      860.990
08/15/2013  14:57:00       19.204      -60.350        8.765      108.909       76.464       54.132    11861.215     5846.731     2930.235        1.236        1.032       63.332       43.164        0.465      350.555       31.805      861.011
08/15/2013  14:58:00      -43.967     -118.276       -7.751       89.620       68.407       48.232     8031.820     4679.505     2326.286        1.551        0.752      126.183       40.147        0.101      350.674       32.012      861.024
08/15/2013  14:59:00      -18.869     -118.948       -4.697      113.854      101.982       50.360    12962.661    10400.318     2536.128        2.021        1.295      120.435       52.968        0.193      350.535       31.769      861.026
08/15/2013  15:00:00      -30.089      -32.214       18.303       78.792       74.801       44.437     6208.256     5595.141     1974.666        0.803        0.689       44.080       27.756        0.396      350.710       32.076      861.009
08/15/2013  15:01:00       48.576      -92.748        1.975      129.319      167.776       89.178    16723.393    28148.718     7952.704        3.189        2.641      104.698       89.660        0.733      350.607       31.894      860.982
08/15/2013  15:02:00      196.613     -304.643      -26.972      131.234      187.345       99.080    17222.340    35098.097     9816.792        9.715        3.107      362.579       97.975        0.073      350.187       31.164      860.991
08/15/2013  15:03:00       50.175     -223.834      -27.303       91.730      107.971       53.391     8414.413    11657.800     2850.552        3.814        1.146      229.389       31.083        0.018      350.342       31.432      861.018
08/15/2013  15:04:00      -28.199      -49.934        2.343       79.090       60.250       42.873     6255.235     3630.085     1838.058        0.751        0.586       57.346       18.162        0.100      350.700       32.059      861.034
08/15/2013  15:05:00      -65.350      -12.513        0.757      139.201       91.683       62.308    19377.041     8405.785     3882.293        1.804        1.583       66.537       52.495        0.622      350.284       31.335      861.011
08/15/2013  15:06:00     -101.240     -208.052       -8.714       96.234      147.479       59.905     9260.933    21750.174     3588.578        4.410        1.730      231.377       51.370        0.049      350.328       31.408      861.022
08/15/2013  15:07:00       -4.503     -196.154       -3.154      129.925      107.945       51.598    16880.601    11652.146     2662.333        3.485        1.560      196.206       51.163        0.068      350.266       31.301      861.022
08/15/2013  15:08:00     -101.153     -250.260      -10.679       87.613       90.805       51.018     7676.058     8245.502     2602.809        4.575        0.926      269.929       32.301        0.014      350.300       31.358      861.048
08/15/2013  15:09:00     -100.680     -151.379      -23.080       69.611      111.813       49.811     4845.653    12502.080     2481.092        2.670        0.991      181.802       44.205        0.059      350.386       31.510      861.049
08/15/2013  15:10:00     -213.534      -82.672       13.636      153.233      119.518       80.735    23480.458    14284.658     6518.216        4.844        2.214      228.979       51.195        0.050      350.605       31.892      861.066
08/15/2013  15:11:00     -272.757     -218.963      -20.428      120.224      142.007       64.257    14453.856    20166.022     4129.017        8.075        1.937      349.773       57.178        0.027      350.109       31.028      861.056
08/15/2013  15:12:00     -148.497      -92.395       -5.221      125.475       97.803       63.252    15743.859     9565.463     4000.755        2.996        1.466      174.895       53.412        0.093      350.128       31.061      860.943
08/15/2013  15:13:00     -137.204     -195.301        9.712      148.811      130.967       68.663    22144.758    17152.294     4714.628        5.053        2.201      238.679       76.437        0.103      350.445       31.612      860.945
08/15/2013  15:14:00     -286.647     -210.821       -8.595      172.630      135.858       84.860    29801.240    18457.329     7201.216        9.106        2.773      355.826       85.337        0.058      350.361       31.466      860.987
08/15/2013  15:15:00     -183.525     -197.550        4.326      125.875      107.331       61.941    15844.570    11519.916     3836.691        5.196        1.560      269.643       45.786        0.029      350.488       31.684      861.003
08/15/2013  15:16:00     -114.867      -69.710       12.579      105.912       91.024       57.982    11217.397     8285.457     3361.877        2.053        1.143      134.365       53.792        0.160      350.503       31.713      860.984
08/15/2013  15:17:00     -273.240     -134.996        6.466      171.870      119.081       70.399    29539.282    14180.282     4956.016        7.079        2.434      304.769       69.374        0.052      350.379       31.496      860.952
08/15/2013  15:18:00     -275.662     -240.516       -5.188      254.607      117.290       87.684    64824.816    13756.987     7688.448       11.005        4.314      365.838       76.122        0.043      350.330       31.411      860.917
08/15/2013  15:19:00     -377.113     -121.982        9.262      188.123      158.537       91.961    35390.152    25133.925     8456.901       11.307        3.449      396.351       86.628        0.048      350.324       31.400      860.919
08/15/2013  15:20:00     -294.161     -184.876       -0.722      213.847      150.125       94.021    45730.639    22537.605     8839.894        9.890        3.855      347.433      111.229        0.102      350.454       31.627      860.893
08/15/2013  15:21:00     -222.278     -265.585        1.751      184.634      149.147       89.286    34089.727    22244.809     7971.902        9.212        3.215      346.327      100.481        0.084      350.333       31.417      860.894
08/15/2013  15:22:00     -280.959     -178.488        1.337      230.675      146.635       82.613    53210.940    21501.938     6824.953        9.615        4.077      332.860      101.531        0.093      350.363       31.470      860.889
08/15/2013  15:23:00     -262.395     -150.675       11.348      157.241      153.810       70.218    24724.695    23657.656     4930.575        7.249        2.666      302.579       78.003        0.066      350.491       31.692      860.898
08/15/2013  15:24:00     -240.486     -190.452        0.982      151.140      135.708       64.321    22843.190    18416.675     4137.181        6.974        2.270      306.766       63.957        0.043      350.397       31.529      860.919
08/15/2013  15:25:00     -311.566     -221.047        9.865      152.390      113.463       76.468    23222.643    12873.909     5847.314        9.398        2.097      382.014       87.190        0.052      350.344       31.435      860.939
08/15/2013  15:26:00     -287.872     -229.116       -9.356      138.604      118.130       76.355    19211.171    13954.774     5830.032        8.722        1.950      367.919       79.654        0.047      350.441       31.604      860.947
08/15/2013  15:27:00      -76.727     -140.198        5.125      108.806      116.440       46.112    11838.800    13558.218     2126.274        2.654        1.376      159.820       41.511        0.067      350.545       31.786      860.958
08/15/2013  15:28:00     -149.133     -152.143        0.380      150.573      150.191       69.491    22672.365    22557.277     4828.960        4.772        2.503      213.045       78.958        0.137      350.565       31.820      860.939
08/15/2013  15:29:00     -350.125     -219.421      -12.632      145.529      129.500       67.687    21178.579    16770.148     4581.480       10.670        2.127      413.199       64.477        0.024      350.481       31.673      860.941
08/15/2013  15:30:00     -375.610     -165.458      -17.720      164.709      160.463       82.017    27129.126    25748.438     6726.723       11.418        2.980      410.438       85.484        0.043      350.221       31.222      860.949
08/15/2013  15:31:00     -100.589     -144.836       23.458      105.065       69.318       58.841    11038.754     4804.994     3462.206        2.547        0.965      176.340       58.726        0.111      350.454       31.629      860.918
08/15/2013  15:32:00     -232.071     -181.534       -0.585      183.740      117.170       70.352    33760.415    13728.910     4949.457        6.962        2.622      294.638       74.540        0.064      350.495       31.699      860.902
08/15/2013  15:33:00     -356.269     -120.181      -12.885      144.888      146.377       64.312    20992.607    21426.271     4135.980        9.404        2.328      375.993       68.537        0.033      350.360       31.463      860.914
08/15/2013  15:34:00     -281.845     -248.549       12.097      221.367      179.923      107.139    49003.270    32372.114    11478.717       11.709        4.643      375.784      124.307        0.109      350.372       31.485      860.867
08/15/2013  15:35:00     -311.803     -155.904       -7.909      144.319      111.633       76.398    20828.111    12461.831     5836.624        8.035        1.956      348.607       70.367        0.041      350.401       31.534      860.860
08/15/2013  15:36:00     -278.260     -110.213        8.864      162.353      137.793       65.378    26358.392    18987.020     4274.229        6.963        2.481      299.292       73.321        0.060      350.398       31.530      860.844
08/15/2013  15:37:00     -330.602      -59.434      -12.692      178.246      123.714       71.993    31771.548    15305.174     5182.923        8.262        2.613      335.902       90.581        0.073      350.475       31.663      860.792
08/15/2013  15:38:00     -361.970     -113.086        1.026      207.865      136.720       74.844    43207.888    18692.471     5601.672       10.565        3.375      379.224       90.739        0.057      350.410       31.550      860.818
08/15/2013  15:39:00     -481.764       -1.057      -24.941      215.317      168.455       82.930    46361.625    28377.139     6877.398       15.715        4.081      481.765       83.170        0.030      350.249       31.269      860.772
08/15/2013  15:40:00     -432.330     -130.329      -26.582      244.025      151.819      107.111    59548.067    23049.045    11472.688       14.932        4.703      451.547      126.924        0.079      350.239       31.252      860.788
08/15/2013  15:41:00     -228.133     -171.706       11.234      178.082      136.072       80.355    31713.359    18515.719     6456.896        6.916        2.834      285.530       96.526        0.114      350.166       31.127      860.771
08/15/2013  15:42:00     -401.978      -66.114      -24.083      173.639      137.543       65.634    30150.660    18918.074     4307.875       10.995        2.669      407.379       68.322        0.028      350.237       31.249      860.778
08/15/2013  15:43:00     -267.150     -154.774        2.795      174.773      127.042       75.486    30545.528    16139.651     5698.195        7.385        2.619      308.746       83.847        0.074      350.383       31.503      860.794
08/15/2013  15:44:00     -202.081     -106.798       22.640      142.902      142.873       76.128    20421.079    20412.588     5795.536        4.968        2.331      228.566       85.331        0.139      350.465       31.647      860.775
08/15/2013  15:45:00     -244.349     -197.177        5.664      176.253      148.959       93.600    31065.129    22188.841     8760.943        8.031        3.101      313.983       99.054        0.100      350.279       31.322      860.764
08/15/2013  15:46:00     -309.935     -173.852       -7.647      193.036      212.378       79.371    37262.803    45104.422     6299.712       10.749        4.433      355.365       87.912        0.061      350.252       31.277      860.756
08/15/2013  15:47:00     -468.426     -125.755      -29.108      208.337      182.529       83.220    43404.229    33316.769     6925.583       15.985        4.182      485.012       91.107        0.035      350.333       31.416      860.743
08/15/2013  15:48:00     -445.362     -157.036       -0.611      267.761      276.640      122.559    71696.028    76529.487    15020.641       19.310        8.162      472.236      137.414        0.085      350.145       31.090      860.753
08/15/2013  15:49:00     -465.136     -258.163      -28.525      235.993      215.761      102.628    55692.590    46552.944    10532.528       19.828        5.639      531.977       99.253        0.035      350.023       30.877      860.723
08/15/2013  15:50:00     -400.484     -129.857      -12.720      202.171      178.658       97.728    40873.270    31918.713     9550.694       12.986        4.117      421.011      101.263        0.058      350.148       31.095      860.729
08/15/2013  15:51:00     -281.901     -162.912       26.848      239.684      192.935      108.187    57448.349    37223.849    11704.386       10.654        5.319      325.589      126.088        0.150      350.271       31.310      860.702
08/15/2013  15:52:00     -350.772      -60.000        0.374      236.102      150.206       90.587    55743.973    22561.927     8206.076       10.656        4.326      355.866      111.934        0.099      350.341       31.431      860.735
08/15/2013  15:53:00     -454.670     -146.353      -23.931      197.102      173.676       85.338    38849.272    30163.374     7282.587       15.249        3.815      477.645       99.083        0.043      350.101       31.014      860.740
08/15/2013  15:54:00     -251.758      -24.566        3.013      175.118      120.141       78.023    30666.147    14433.967     6087.637        5.758        2.559      252.954       81.161        0.103      350.385       31.508      860.723
08/15/2013  15:55:00     -304.506     -253.550      -16.243      187.726      156.710       96.246    35241.163    24558.001     9263.315       11.316        3.453      396.247      100.034        0.064      350.372       31.484      860.728
08/15/2013  15:56:00     -427.489     -265.263       -6.095      227.216      162.092       89.609    51626.932    26273.697     8029.833       16.953        4.297      503.102      100.708        0.040      350.195       31.177      860.737
08/15/2013  15:57:00     -341.081     -273.468       -4.524      210.439      169.093       96.363    44284.402    28592.339     9285.772       13.664        4.108      437.174       97.611        0.050      350.270       31.307      860.726
08/15/2013  15:58:00     -442.743     -336.069        7.812      258.812      196.109      132.600    66983.704    38458.876    17582.731       21.600        6.151      555.845      139.124        0.063      350.029       30.889      860.724
08/15/2013  15:59:00     -349.683     -153.132      -14.404      195.021      209.467       83.116    38033.232    43876.624     6908.302       11.736        4.441      381.743      101.475        0.071      350.256       31.284      860.751
08/15/2013  16:00:00     -390.267      -82.461      -40.078      135.617      137.915       73.054    18392.088    19020.439     5336.915       10.172        2.137      398.883       74.583        0.035      350.300       31.358      860.743
08/15/2013  16:01:00     -570.681      -71.724      -22.784      191.195      188.831       93.171    36555.631    35657.113     8680.776       20.610        4.045      575.171      100.347        0.030      350.207       31.198      860.718
08/15/2013  16:02:00     -354.842     -109.917       -7.909      206.462      153.236       85.565    42626.474    23481.151     7321.370       10.573        3.671      371.476       99.421        0.072      350.248       31.268      860.745
08/15/2013  16:03:00     -507.504     -216.052      -22.959      257.711      159.491      107.211    66415.139    25437.523    11494.101       20.404        5.167      551.578      127.496        0.053      350.080       30.975      860.735
08/15/2013  16:04:00     -439.562     -163.548      -16.420      197.019      182.324       89.279    38816.463    33242.011     7970.803       15.012        4.001      469.002       95.503        0.041      350.051       30.926      860.704
08/15/2013  16:05:00     -305.078      -67.840        5.751      146.266      156.449       85.248    21393.679    24476.213     7267.268        7.541        2.657      312.530       92.466        0.088      350.254       31.279      860.725
08/15/2013  16:06:00     -371.395     -223.454      -13.704      220.865      235.032      107.654    48781.319    55239.980    11589.354       15.181        5.781      433.435      118.463        0.075      350.145       31.090      860.720
08/15/2013  16:07:00     -510.296     -249.556        0.858      276.202      233.369      116.422    76287.579    54461.217    13554.051       23.347        7.215      568.050      128.280        0.051      350.071       30.962      860.679
08/15/2013  16:08:00     -293.051      -76.743        5.294      289.719      142.114      102.329    83936.927    20196.362    10471.303       10.318        5.730      302.933      128.891        0.181      350.292       31.347      860.732
08/15/2013  16:09:00     -371.093      -93.037       -1.175      261.868      147.664       85.721    68574.821    21804.750     7348.046       12.203        4.886      382.578      112.851        0.087      350.064       30.949      860.745
08/15/2013  16:10:00     -413.675     -191.984      -29.955      247.752      203.687      106.021    61381.163    41488.576    11240.434       16.148        5.706      456.053      127.283        0.078      350.168       31.129      860.731
08/15/2013  16:11:00     -357.208      -76.084       -6.899      206.876      160.649       95.832    42797.575    25808.116     9183.772       10.560        3.889      365.221       99.126        0.074      350.260       31.291      860.751
08/15/2013  16:12:00     -398.873     -126.166      -14.279      196.026      167.583       76.708    38426.254    28084.104     5884.090       12.380        3.620      418.351       83.672        0.040      350.047       30.919      860.773
08/15/2013  16:13:00     -297.709      -25.291        6.343      157.016      128.326       83.528    24654.016    16467.463     6976.889        6.870        2.405      298.781       93.881        0.099      350.169       31.131      860.758
08/15/2013  16:14:00     -404.884       -1.422       -7.704      204.098      118.821       84.985    41655.861    14118.542     7222.512       11.348        3.150      404.887       80.696        0.040      350.150       31.097      860.752
08/15/2013  16:15:00     -232.022     -165.582       11.292      192.621      155.359       73.159    37102.782    24136.517     5352.263        7.397        3.330      285.047       84.109        0.087      350.154       31.106      860.777
08/15/2013  16:16:00     -218.200     -118.311       -0.138      142.167      124.120       64.900    20211.351    15405.728     4211.999        5.071        1.991      248.211       62.232        0.063      350.178       31.147      860.761
08/15/2013  16:17:00     -451.608     -110.916        4.471      262.330      200.673      106.637    68817.108    40269.482    11371.388       16.835        6.023      465.030      131.274        0.080      350.107       31.024      860.732
08/15/2013  16:18:00     -549.594     -111.536        3.846      306.715      179.862      109.644    94074.273    32350.474    12021.767       22.645        6.922      560.797      132.795        0.056      350.010       30.856      860.707
08/15/2013  16:19:00     -593.967      -98.587      -28.660      207.748      169.591       90.103    43159.426    28761.040     8118.586       22.167        4.002      602.093      109.294        0.033      350.004       30.845      860.752
08/15/2013  16:20:00     -445.661     -241.949      -23.088      180.079      143.447       78.958    32428.556    20576.943     6234.359       15.845        2.962      507.103       90.366        0.032      349.991       30.822      860.773
08/15/2013  16:21:00     -363.342     -277.826      -17.179      183.981      127.643       75.042    33848.944    16292.724     5631.228       13.263        2.789      457.390       89.039        0.038      349.998       30.834      860.770
08/15/2013  16:22:00     -301.524     -182.984       -6.399      180.612      127.844       97.005    32620.765    16344.067     9410.047        9.140        2.919      352.704       96.825        0.075      350.218       31.218      860.783
08/15/2013  16:23:00     -264.175      -86.544       -6.216      172.143      108.980       57.385    29633.328    11876.741     3293.066        6.105        2.240      277.990       77.266        0.077      350.021       30.874      860.779
08/15/2013  16:24:00     -450.399     -159.087       -0.015      185.176      152.324       89.885    34290.075    23202.459     8079.259       14.686        3.279      477.669       97.782        0.042      350.012       30.859      860.755
08/15/2013  16:25:00     -264.448     -122.579       21.401      198.079      189.700       93.824    39235.325    35986.259     8802.925        8.471        4.201      291.476      112.914        0.150      350.155       31.106      860.732
08/15/2013  16:26:00     -184.845      -67.381       19.610      189.280      134.298       75.362    35826.955    18035.943     5679.404        4.931        2.977      196.744       88.546        0.203      350.347       31.443      860.755
08/15/2013  16:27:00     -533.573      -89.200      -30.488      249.541      210.689       89.976    62270.669    44389.717     8095.591       20.415        5.738      540.977       86.082        0.025      350.061       30.944      860.743
08/15/2013  16:28:00     -542.394     -138.362      -10.460      293.756      186.077      106.528    86292.819    34624.687    11348.219       22.283        6.613      559.763      122.071        0.048      350.002       30.842      860.729
08/15/2013  16:29:00     -463.515      -50.387      -21.242      164.049      132.857       87.337    26912.095    17650.872     7627.710       13.500        2.610      466.246       87.579        0.035      350.106       31.022      860.723
08/15/2013  16:30:00     -635.174      -96.871      -44.502      192.032      164.404       82.628    36876.207    27028.720     6827.462       24.276        3.537      642.519       83.476        0.017      350.088       30.990      860.700
08/15/2013  16:31:00     -657.988     -148.532      -49.961      179.600      209.490       86.011    32256.111    43885.975     7397.881       27.051        4.177      674.544       83.444        0.015      349.992       30.824      860.689
08/15/2013  16:32:00     -576.333      -40.278      -25.329      239.662      176.467      103.951    57437.764    31140.761    10805.752       21.689        4.969      577.738      122.221        0.045      350.120       31.046      860.665
08/15/2013  16:33:00     -388.654     -132.361      -13.513      187.718      131.659       82.734    35237.876    17334.161     6844.961       11.408        2.971      410.574       89.759        0.048      350.270       31.308      860.709
08/15/2013  16:34:00     -273.238     -132.948       -4.901      169.033      136.391       78.455    28572.185    18602.427     6155.109        7.283        2.666      303.865       86.085        0.080      350.368       31.478      860.740
08/15/2013  16:35:00     -259.945     -152.451        3.434      161.308      126.601       68.820    26020.418    16027.814     4736.226        6.880        2.339      301.351       77.794        0.067      350.407       31.545      860.751
08/15/2013  16:36:00     -385.854     -261.582       -0.870      238.612      178.774      100.719    56935.829    31960.164    10144.376       15.816        4.952      466.163      109.702        0.055      350.139       31.079      860.783
08/15/2013  16:37:00     -281.448     -201.089        9.457      195.023      169.934       82.892    38033.844    28877.609     6871.124        9.675        3.689      345.904       93.246        0.073      350.046       30.919      860.765
08/15/2013  16:38:00     -334.704     -300.121      -11.498      225.018      188.490       99.419    50633.100    35528.451     9884.089       14.912        4.802      449.555      101.114        0.051      349.973       30.790      860.782
08/15/2013  16:39:00     -359.264     -270.096       -3.477      241.361      173.429      113.411    58255.324    30077.541    12862.167       15.160        5.060      449.469      128.613        0.082      349.991       30.824      860.830
08/15/2013  16:40:00     -234.103     -119.723       -8.983      178.404      146.780       84.598    31827.934    21544.314     7156.871        6.486        3.026      262.941       88.579        0.113      350.022       30.877      860.810
08/15/2013  16:41:00     -179.134      -61.497       16.444      172.894      156.424       78.586    29892.493    24468.550     6175.762        4.833        3.027      189.397       81.874        0.187      350.102       31.017      860.788
08/15/2013  16:42:00     -294.030      -74.681       -7.243      189.040      147.363       84.174    35736.205    21715.933     7085.234        7.830        3.227      303.366       93.069        0.094      350.121       31.049      860.773
08/15/2013  16:43:00     -395.301        0.374      -15.887      220.899      180.128       90.728    48796.211    32446.135     8231.496       12.298        4.474      395.301       96.864        0.060      350.140       31.080      860.731
08/15/2013  16:44:00     -398.808      -43.510      -29.510      248.872      195.147       94.938    61937.379    38082.515     9013.226       13.540        5.452      401.175      103.631        0.067      350.150       31.098      860.763
08/15/2013  16:45:00     -596.904      -69.440      -33.384      230.326      183.262      112.485    53050.125    33584.811    12652.789       23.074        4.964      600.930      122.966        0.042      349.963       30.774      860.766
08/15/2013  16:46:00     -443.453     -214.968      -54.371      253.798      176.364       89.575    64413.405    31104.249     8023.751       17.466        5.177      492.810      104.444        0.045      349.977       30.797      860.771
08/15/2013  16:47:00     -454.942     -170.045      -22.562      167.238      160.610       89.598    27968.613    25795.550     8027.841       14.908        3.090      485.683       85.122        0.031      349.945       30.742      860.727
08/15/2013  16:48:00     -355.259     -120.172        2.956      202.802      121.215       70.403    41128.763    14693.037     4956.641       10.071        3.039      375.034       89.746        0.057      350.114       31.035      860.760
08/15/2013  16:49:00     -476.804        2.046       -7.868      345.719      188.037      110.211   119521.548    35358.068    12146.534       19.719        8.351      476.808      154.744        0.105      350.022       30.877      860.749
08/15/2013  16:50:00     -338.913     -121.991       -6.411      205.053      159.005       92.064    42046.560    25282.453     8475.747       10.278        3.790      360.200      109.055        0.092      349.989       30.820      860.802
08/15/2013  16:51:00     -348.514      -78.841       -9.725      176.120      132.498       64.848    31018.226    17555.619     4205.307        9.027        2.639      357.321       69.790        0.038      349.963       30.773      860.784
08/15/2013  16:52:00     -304.160     -140.680       -7.960      164.180      173.857       95.369    26955.145    30226.415     9095.246        8.931        3.314      335.118       99.407        0.088      350.106       31.021      860.788
08/15/2013  16:53:00     -403.932     -153.358       -0.930      246.531      212.818       93.751    60777.403    45291.554     8789.229       15.075        5.743      432.065      114.757        0.071      350.086       30.988      860.788
08/15/2013  16:54:00     -505.025     -311.994       -9.612      266.151      245.803      105.551    70836.581    60419.341    11141.047       24.742        7.120      593.625      125.260        0.045      349.880       30.629      860.857
08/15/2013  16:55:00     -204.755      -61.297       19.042      111.147      125.891       56.995    12353.767    15848.513     3248.405        3.874        1.573      213.734       44.789        0.044      350.157       31.109      860.797
08/15/2013  16:56:00     -200.345     -192.519       10.216      184.683      118.017       86.433    34107.988    13927.972     7470.612        6.640        2.775      277.852       92.630        0.111      350.054       30.932      860.809
08/15/2013  16:57:00     -367.595     -237.889       -9.231      235.101      190.774      109.215    55272.503    36394.601    11927.914       14.768        5.180      437.855      122.762        0.079      349.908       30.678      860.791
08/15/2013  16:58:00     -496.824     -121.603       10.437      381.208      190.281      127.656   145319.821    36206.959    16296.091       22.974        9.891      511.490      161.451        0.100      349.924       30.705      860.758
08/15/2013  16:59:00     -402.674     -185.383      -20.193      238.395      156.220       98.345    56831.949    24404.737     9671.822       14.390        4.545      443.298       91.470        0.043      349.958       30.767      860.794
08/15/2013  17:00:00     -478.767     -147.436       -8.452      274.564      237.654      121.957    75385.412    56479.472    14873.537       19.886        7.337      500.954      140.442        0.079      349.963       30.774      860.767
08/15/2013  17:01:00     -578.684      -61.743      -19.889      214.463      196.412      107.416    45994.339    38577.603    11538.191       21.758        4.806      581.968      120.035        0.043      349.940       30.734      860.774
08/15/2013  17:02:00     -461.429     -158.870      -27.763      188.462      181.752       97.342    35517.916    33033.719     9475.411       15.846        3.901      488.012       88.928        0.033      349.894       30.654      860.787
08/15/2013  17:03:00     -193.963      -35.771        4.931      146.844      103.845       73.781    21563.143    10783.800     5443.628        3.835        1.890      197.234       77.566        0.155      350.050       30.926      860.777
08/15/2013  17:04:00     -423.367     -152.672      -13.282      190.665      142.935       69.204    36353.083    20430.449     4789.240       13.214        3.079      450.054       81.046        0.032      349.919       30.698      860.767
08/15/2013  17:05:00     -267.174     -192.487       12.568      287.082      176.068      101.232    82416.065    31000.036    10247.998       11.611        6.183      329.292      120.169        0.133      350.004       30.845      860.803
08/15/2013  17:06:00     -332.309     -254.348       -0.305      205.096      164.291       87.731    42064.174    26991.524     7696.690       12.592        3.838      418.476       93.121        0.050      349.881       30.632      860.803
08/15/2013  17:07:00     -261.997        6.483        8.691      260.959      137.504      100.679    68099.591    18907.272    10136.162        8.294        4.857      262.077      124.457        0.226      350.088       30.991      860.790
08/15/2013  17:08:00     -387.190      -23.976       -3.046      230.358      138.611       87.972    53064.872    19212.963     7739.115       11.525        4.001      387.931      106.099        0.075      350.019       30.870      860.785
08/15/2013  17:09:00     -309.897      -63.049       -9.589      208.450      133.643       62.932    43451.468    17860.365     3960.411        8.268        3.264      316.245       80.943        0.066      350.164       31.122      860.800
08/15/2013  17:10:00     -120.124      -81.620        9.260      123.639      100.458       64.982    15286.645    10091.876     4222.711        2.538        1.480      145.229       63.973        0.194      350.050       30.926      860.814
08/15/2013  17:11:00     -321.220     -125.607       -8.039      227.191      176.888       93.405    51615.552    31289.510     8724.471       10.531        4.581      344.905      103.808        0.091      350.026       30.883      860.820
08/15/2013  17:12:00     -335.264     -177.603       -9.484      203.465      168.961       97.959    41397.858    28547.804     9595.893       11.177        3.977      379.401      117.660        0.096      349.908       30.677      860.818
08/15/2013  17:13:00     -323.816      -42.940        1.931      239.291      136.108       84.659    57260.003    18525.354     7167.087        9.481        4.148      326.651      106.893        0.107      350.041       30.908      860.809
08/15/2013  17:14:00     -328.695      -86.637      -15.428      197.751      190.289       82.141    39105.261    36209.841     6747.142        9.891        4.103      339.922       74.703        0.048      349.956       30.762      860.792
08/15/2013  17:15:00     -240.588     -178.279        1.779      169.072      137.514       99.288    28585.237    18910.113     9858.184        7.350        2.868      299.443       91.532        0.093      350.038       30.903      860.809
08/15/2013  17:16:00     -139.421     -113.768       27.338      175.614      151.438       97.580    30840.449    22933.441     9521.821        4.820        3.165      179.948      103.781        0.333      350.056       30.936      860.794
08/15/2013  17:17:00     -305.043     -165.549      -11.087      158.601      162.113       85.065    25154.243    26280.774     7236.057        8.962        2.934      347.070       71.018        0.042      349.954       30.758      860.783
08/15/2013  17:18:00     -220.932      -16.572       12.007      149.647      141.074       67.534    22394.157    19901.837     4560.846        4.804        2.343      221.553       77.122        0.121      350.024       30.880      860.782
08/15/2013  17:19:00     -215.575      -63.670        6.242      104.739      116.441       67.344    10970.245    13558.391     4535.164        3.981        1.453      224.781       59.843        0.071      350.022       30.877      860.792
08/15/2013  17:20:00     -196.572     -118.003       -7.282      134.704       84.405       58.753    18145.087     7124.220     3451.860        4.066        1.436      229.271       58.133        0.064      350.012       30.858      860.789
08/15/2013  17:21:00     -390.386     -130.170       -6.321      217.864      122.075       81.301    47464.794    14902.419     6609.829       11.917        3.449      411.517       93.032        0.051      349.987       30.817      860.806
08/15/2013  17:22:00     -308.758     -116.983       -0.802      139.172       90.911       65.753    19368.752     8264.734     4323.403        7.048        1.598      330.176       62.978        0.036      349.823       30.531      860.760
08/15/2013  17:23:00     -425.869     -203.312      -14.015      205.075      186.883       78.834    42055.851    34925.312     6214.723       15.303        4.160      471.911       86.099        0.033      349.695       30.307      860.737
08/15/2013  17:24:00     -246.421     -179.467       -1.206      192.965      129.110       93.913    37235.467    16669.282     8819.663        7.782        3.136      304.847      107.388        0.124      349.807       30.502      860.773
08/15/2013  17:25:00     -404.243     -116.711      -19.960      153.371      183.375       73.096    23522.549    33626.476     5342.973       11.995        3.125      420.754       59.515        0.020      349.754       30.410      860.783
08/15/2013  17:26:00     -300.530      -60.457        9.005      262.641      121.635       79.811    68980.298    14795.076     6369.830        9.208        4.507      306.550      106.715        0.121      349.903       30.672      860.769
08/15/2013  17:27:00     -399.686      -85.696      -13.382      244.077      132.801       83.055    59573.509    17636.066     6898.149       12.568        4.205      408.770      112.404        0.076      349.846       30.569      860.785
08/15/2013  17:28:00     -296.011     -229.679       -2.418      228.252      163.163      101.078    52098.801    26622.030    10216.813       11.464        4.447      374.666      116.125        0.096      349.778       30.453      860.771
08/15/2013  17:29:00     -239.757     -214.634       10.418      212.004      156.775       94.374    44945.820    24578.536     8906.377        9.103        3.922      321.794      115.966        0.130      349.856       30.588      860.774
08/15/2013  17:30:00     -276.698     -112.367       15.426      190.202      164.759       90.736    36176.681    27145.631     8233.033        8.048        3.578      298.643      108.913        0.133      349.863       30.600      860.766
08/15/2013  17:31:00     -378.381     -232.806      -10.749      187.360      153.644       75.788    35103.764    23606.440     5743.822       13.096        3.223      444.265       76.033        0.029      349.810       30.506      860.752
08/15/2013  17:32:00     -326.785     -110.853      -17.947      180.101      133.831       83.707    32436.433    17910.862     7006.857        8.837        2.868      345.075       94.558        0.075      349.883       30.636      860.779
08/15/2013  17:33:00     -388.593     -186.776      -14.614      228.953      171.281       81.505    52419.352    29337.294     6643.059       13.724        4.420      431.150       99.072        0.053      349.797       30.485      860.728
08/15/2013  17:34:00     -333.550     -112.567      -12.103      210.014      166.937       77.380    44105.837    27867.935     5987.707       10.100        3.898      352.033       87.990        0.062      349.933       30.721      860.750
08/15/2013  17:35:00     -416.212     -152.920      -22.177      274.780      151.616       77.446    75504.142    22987.262     5997.892       15.078        5.224      443.415      102.768        0.054      349.766       30.433      860.763
08/15/2013  17:36:00     -268.694      -43.505       -4.501      127.597      111.787       58.432    16280.930    12496.282     3414.328        5.315        1.610      272.194       47.356        0.030      349.898       30.660      860.771
08/15/2013  17:37:00     -443.535     -183.055      -14.924      250.013      162.455      101.827    62506.267    26391.509    10368.776       16.484        4.963      479.826      108.019        0.051      349.741       30.387      860.773
08/15/2013  17:38:00     -425.523      -94.718      -21.738      216.738      146.768       85.101    46975.484    21540.780     7242.206       13.312        3.788      435.938       80.457        0.034      349.729       30.366      860.799
08/15/2013  17:39:00     -415.919     -134.686      -11.886      245.568      175.551       95.768    60303.538    30818.138     9171.430       14.577        5.015      437.183      114.018        0.068      349.666       30.257      860.796
08/15/2013  17:40:00     -290.564     -150.462        0.510      164.921      184.810       92.262    27198.852    34154.568     8512.197        8.845        3.493      327.209       88.550        0.073      349.676       30.276      860.806
08/15/2013  17:41:00     -229.629     -136.408       16.958      174.023      168.386       79.217    30283.927    28353.719     6275.301        6.826        3.246      267.090       85.113        0.102      349.759       30.419      860.795
08/15/2013  17:42:00     -302.321     -101.545       13.588      201.491      160.497       84.382    40598.500    25759.356     7120.270        8.767        3.674      318.919       72.476        0.052      349.743       30.391      860.790
08/15/2013  17:43:00     -157.997     -159.165       13.993      158.740      144.347       68.583    25198.505    20835.978     4703.626        5.061        2.537      224.268       69.239        0.095      349.718       30.349      860.814
08/15/2013  17:44:00     -437.684     -261.475       -5.121      242.098      158.059      102.428    58611.609    24982.606    10491.445       17.701        4.704      509.839      124.400        0.060      349.604       30.150      860.798
08/15/2013  17:45:00     -336.323     -136.870        0.461      188.690      118.903       75.035    35604.070    14137.907     5630.214        9.360        2.769      363.107       82.481        0.052      349.654       30.237      860.790
08/15/2013  17:46:00     -283.362     -196.161        3.355      168.415      115.405       80.477    28363.564    13318.232     6476.535        8.346        2.408      344.635       87.383        0.064      349.634       30.202      860.778
08/15/2013  17:47:00     -166.133      -99.775        6.701      146.788      125.423       70.802    21546.788    15730.840     5012.988        3.994        2.115      193.791       76.598        0.156      349.748       30.400      860.802
08/15/2013  17:48:00     -434.540      -23.463      -19.697      184.213      132.250       76.530    33934.331    17490.002     5856.916       12.351        2.864      435.173       80.038        0.034      349.817       30.519      860.806
08/15/2013  17:49:00     -404.074     -130.224       -6.607      181.668      194.095       70.466    33003.173    37672.827     4965.441       12.795        3.782      424.540       80.388        0.036      349.791       30.474      860.822
08/15/2013  17:50:00     -431.279      -56.601       -9.750      202.064      167.341       95.382    40829.906    28002.860     9097.805       13.360        3.897      434.977       94.195        0.047      349.633       30.198      860.800
08/15/2013  17:51:00     -574.952      -81.416      -46.525      177.037      159.276       88.765    31342.082    25368.880     7879.289       20.197        3.230      580.688       90.740        0.024      349.585       30.118      860.802
08/15/2013  17:52:00     -323.387      -79.333      -10.738      230.664      187.807       82.498    53206.094    35271.590     6805.932       10.312        4.764      332.976      102.176        0.094      349.654       30.237      860.812
08/15/2013  17:53:00     -471.471     -109.210      -23.632      250.548      148.910       92.439    62774.546    22174.072     8545.019       16.412        4.675      483.954       98.468        0.041      349.581       30.110      860.801
08/15/2013  17:54:00     -328.531      -87.722      -13.107      176.175      121.793       80.730    31037.802    14833.632     6517.343        8.409        2.619      340.041       78.646        0.053      349.587       30.121      860.811
08/15/2013  17:55:00     -331.483      -88.386       -6.869      168.129      128.450       69.897    28267.341    16499.401     4885.649        8.369        2.483      343.064       78.984        0.053      349.629       30.194      860.868
08/15/2013  17:56:00     -366.598      -85.256      -10.369      170.849      159.613       80.300    29189.256    25476.174     6448.048       10.143        3.056      376.381       86.091        0.052      349.565       30.082      860.868
08/15/2013  17:57:00     -262.174      -80.496       -0.107      125.966      109.501       64.066    15867.467    11990.532     4104.430        5.358        1.598      274.253       56.577        0.043      349.595       30.134      860.856
08/15/2013  17:58:00     -180.042      -54.272        0.739      108.653       93.941       52.001    11805.368     8824.998     2704.142        2.934        1.167      188.044       49.446        0.069      349.734       30.376      860.870
08/15/2013  17:59:00     -160.773     -142.555       11.110      185.204      140.932       86.472    34300.574    19861.954     7477.357        5.396        3.082      214.872      102.802        0.229      349.609       30.161      860.864
08/15/2013  18:00:00     -386.829     -103.555      -11.543      223.455      123.267       68.828    49932.335    15194.690     4737.353       11.517        3.493      400.451       91.657        0.052      349.545       30.049      860.858
08/15/2013  18:01:00     -401.189     -111.929      -10.352      241.492      169.575       99.177    58318.580    28755.760     9836.078       13.523        4.846      416.510      115.585        0.077      349.468       29.916      860.825
08/15/2013  18:02:00     -379.682      -52.447       -7.790      167.647      158.617       69.671    28105.484    25159.457     4854.087       10.253        2.906      383.287       73.528        0.037      349.527       30.016      860.807
08/15/2013  18:03:00     -192.139      -93.246        9.247      167.841      110.534       60.375    28170.730    12217.805     3645.145        4.486        2.202      213.571       73.315        0.118      349.531       30.024      860.821
08/15/2013  18:04:00     -295.842      -52.434        1.893      188.270      153.435       82.203    35445.458    23542.283     6757.299        7.800        3.287      300.453       97.369        0.105      349.524       30.012      860.830
08/15/2013  18:05:00     -350.003     -108.079        0.727      156.693      148.979       73.670    24552.836    22194.836     5427.309        9.317        2.609      366.310       72.270        0.039      349.477       29.930      860.821
08/15/2013  18:06:00     -389.293       -7.205      -14.211      142.248      123.222       66.999    20234.624    15183.628     4488.904        9.585        1.995      389.360       65.559        0.028      349.489       29.951      860.821
08/15/2013  18:07:00     -267.768      -85.817       -3.476      172.799      144.762       82.312    29859.572    20955.994     6775.291        6.832        2.880      281.183       87.648        0.097      349.481       29.936      860.808
08/15/2013  18:08:00     -438.838      -49.263       -2.604      280.596      192.373       79.523    78734.310    37007.386     6323.956       15.852        6.103      441.595       96.837        0.048      349.366       29.737      860.783
08/15/2013  18:09:00     -523.481     -133.416      -27.912      285.570      197.458       82.713    81549.991    38989.833     6841.498       20.997        6.369      540.215      109.953        0.041      349.332       29.678      860.762
08/15/2013  18:10:00     -359.386     -113.681        4.444      218.780      138.719       87.772    47864.820    19243.011     7703.992       10.844        3.741      376.938      105.373        0.078      349.360       29.728      860.798
08/15/2013  18:11:00     -317.831     -213.623       -4.781      207.329      214.105      101.080    42985.448    45840.952    10217.212       12.284        4.952      382.951      111.419        0.085      349.274       29.579      860.792
08/15/2013  18:12:00     -490.211     -306.644       -2.855      285.726      187.789      123.460    81639.423    35264.673    15242.470       23.322        6.607      578.219      124.181        0.046      349.177       29.411      860.750
08/15/2013  18:13:00     -330.976     -128.164       -3.326      229.629      182.754       87.328    52729.372    33398.886     7626.118       10.985        4.688      354.924       97.086        0.075      349.291       29.611      860.775
08/15/2013  18:14:00     -362.793       45.837      -20.654      202.665      150.434       92.991    41072.937    22630.378     8647.277       10.324        3.618      365.677       94.192        0.066      349.287       29.600      860.809
08/15/2013  18:15:00     -423.639     -292.067       -4.597      218.732      152.221      101.701    47843.680    23171.196    10343.125       17.306        4.068      514.561      100.235        0.038      349.219       29.482      860.802
08/15/2013  18:16:00     -436.225     -225.418       -6.797      236.072      156.457       85.101    55730.124    24478.782     7242.174       16.429        4.373      491.025      105.640        0.046      349.163       29.387      860.822
08/15/2013  18:17:00     -251.898      -88.619        1.532      152.249      163.445       79.021    23179.853    26714.274     6244.331        6.371        2.807      267.031       71.969        0.073      349.225       29.493      860.838
08/15/2013  18:18:00     -329.809     -136.209       -6.701      217.068      125.642       71.280    47118.627    15785.976     5080.801        9.767        3.399      356.829       95.685        0.072      349.181       29.417      860.821
08/15/2013  18:19:00     -282.715     -202.543       -2.968      198.439      195.688      101.943    39378.099    38293.662    10392.451       10.450        4.403      347.781       99.094        0.081      349.142       29.349      860.789
08/15/2013  18:20:00     -438.448      -31.733       -1.987      224.716      175.772       90.857    50497.132    30895.908     8254.975       14.143        4.482      439.595       83.750        0.036      349.169       29.395      860.796
08/15/2013  18:21:00     -563.751       -1.202      -36.614      226.349      198.545       98.928    51233.900    39420.124     9786.819       20.978        5.022      563.752      104.205        0.034      349.030       29.154      860.753
08/15/2013  18:22:00     -409.423     -143.280       -1.279      281.869      189.250      112.871    79450.382    35815.561    12739.883       15.806        6.400      433.770      115.943        0.071      348.988       29.081      860.758
08/15/2013  18:23:00     -457.872     -113.471      -35.072      215.472      152.438       78.471    46428.033    23237.214     6157.691       14.977        3.791      471.723       71.545        0.023      348.963       29.039      860.759
08/15/2013  18:24:00     -621.118      -32.333      -47.652      237.019      135.003       94.147    56178.229    18225.704     8863.594       23.617        4.163      621.959      114.243        0.034      348.933       28.988      860.775
08/15/2013  18:25:00     -390.560      -81.190      -17.744      269.270      141.450       96.877    72506.406    20008.087     9385.223       13.065        5.095      398.909      124.411        0.097      348.986       29.080      860.800
08/15/2013  18:26:00     -444.238     -134.777       -8.622      251.652      219.832      110.521    63328.852    48326.308    12214.976       16.971        6.194      464.233      121.244        0.068      348.920       28.964      860.807
08/15/2013  18:27:00     -191.638      -64.416        1.728      167.482      117.696       72.951    28050.191    13852.239     5321.802        4.404        2.361      202.175       85.651        0.179      348.958       29.033      860.846
08/15/2013  18:28:00     -243.572      -69.518        1.940      122.841      128.155       72.228    15089.967    16423.749     5216.927        5.044        1.837      253.298       70.695        0.078      348.947       29.012      860.843
08/15/2013  18:29:00     -385.987      -73.893      -20.872      129.917       88.156       62.502    16878.475     7771.442     3906.535        9.171        1.428      392.996       63.624        0.026      348.969       29.050      860.870
08/15/2013  18:30:00     -378.276      -41.100        3.566      213.899      159.390      102.903    45752.857    25405.253    10589.025       11.326        4.087      380.502      106.016        0.078      348.861       28.862      860.868
08/15/2013  18:31:00     -448.314     -141.870      -29.097      203.761      188.184       91.464    41518.742    35413.216     8365.573       15.361        4.265      470.226      105.704        0.051      348.745       28.661      860.850
08/15/2013  18:32:00     -580.678     -139.343      -26.902      218.218      148.071       92.199    47618.958    21925.021     8500.586       21.767        3.902      597.163      104.590        0.031      348.715       28.611      860.878
08/15/2013  18:33:00     -629.057     -140.506      -32.832      188.457      179.806       84.763    35516.139    32330.250     7184.778       24.577        3.752      644.558      100.447        0.024      348.634       28.470      860.882
08/15/2013  18:34:00     -429.523     -107.190       -1.081      301.965      246.872      117.120    91183.054    60945.981    13717.003       18.089        8.292      442.696      146.742        0.110      348.617       28.441      860.872
08/15/2013  18:35:00     -315.392      -61.797       -6.838      199.377      142.237       82.820    39751.345    20231.438     6859.123        8.508        3.342      321.389       76.566        0.057      348.668       28.529      860.922
08/15/2013  18:36:00     -552.872      -32.549      -32.810      346.944      210.207      121.526   120370.326    44187.174    14768.460       24.353        8.966      553.829      158.819        0.082      348.563       28.347      860.904
08/15/2013  18:37:00     -640.335     -142.500      -20.948      247.726      185.934      120.320    61368.247    34571.609    14476.838       27.058        5.521      656.000      136.071        0.043      348.493       28.228      860.895
08/15/2013  18:38:00     -335.187     -196.246      -30.315      205.203      200.082      102.922    42108.408    40032.746    10592.983       12.224        4.637      388.411      108.381        0.078      348.517       28.268      860.900
08/15/2013  18:39:00     -582.506     -141.980      -23.526      261.863      188.482      103.318    68572.113    35525.411    10674.644       23.738        5.739      599.559      117.525        0.038      348.481       28.205      860.924
08/15/2013  18:40:00     -675.322     -179.536      -38.780      212.725      208.833      104.179    45251.985    43611.320    10853.302       29.474        4.986      698.780       83.279        0.014      348.450       28.152      860.899
08/15/2013  18:41:00     -691.081     -193.131      -46.505      201.622      299.737      104.869    40651.231    89842.343    10997.462       32.925        7.075      717.560       93.690        0.017      348.421       28.101      860.928
08/15/2013  18:42:00     -623.031     -214.232      -23.658      270.759      208.039      121.582    73310.360    43280.185    14782.181       28.298        6.569      658.835      144.918        0.048      348.405       28.073      860.896
08/15/2013  18:43:00     -504.565      -48.409      -23.613      197.234      180.084      102.658    38901.416    32430.283    10538.693       16.966        4.094      506.882      104.896        0.043      348.430       28.115      860.912
08/15/2013  18:44:00     -577.243     -138.770      -27.909      212.512      149.712       83.066    45161.247    22413.777     6900.037       21.385        3.724      593.689       97.807        0.027      348.401       28.067      860.933
08/15/2013  18:45:00     -541.074       33.313      -40.867      211.302      147.252       94.778    44648.585    21683.116     8982.882       18.541        3.766      542.098      101.626        0.035      348.409       28.081      860.942
08/15/2013  18:46:00     -627.305     -184.934      -37.032      289.310      204.400      105.511    83700.243    41779.256    11132.515       28.282        6.831      653.997      117.787        0.032      348.302       27.896      860.930
08/15/2013  18:47:00     -490.624     -127.805      -21.626      210.686      166.323      100.501    44388.492    27663.206    10100.466       16.982        4.108      506.997      113.585        0.050      348.319       27.924      860.944
08/15/2013  18:48:00     -478.660      -83.942       -5.738      296.559      243.529      111.641    87947.418    59306.531    12463.779       19.793        7.986      485.964      143.177        0.087      348.291       27.877      860.939
08/15/2013  18:49:00     -262.015      -32.849       31.708      226.045      176.014      113.045    51096.378    30980.914    12779.253        8.278        4.743      264.066      112.385        0.181      348.309       27.908      860.935
08/15/2013  18:50:00     -457.998     -100.856      -33.446      210.913      189.454       90.297    44484.481    35892.881     8153.518       15.478        4.427      468.971      100.750        0.046      348.290       27.873      860.923
08/15/2013  18:51:00     -645.999      -55.160      -30.736      211.670      218.437       98.751    44804.090    47714.810     9751.747       26.177        5.114      648.349      108.593        0.028      348.278       27.853      860.964
08/15/2013  18:52:00     -393.329      -62.936       -5.110      290.852      186.925      116.649    84595.041    34941.109    13607.033       14.590        6.657      398.333      141.350        0.126      348.259       27.821      860.972
08/15/2013  18:53:00     -376.263      -28.771        1.198      221.192      149.647       88.477    48926.051    22394.164     7828.171       11.076        3.957      377.362       99.018        0.069      348.278       27.853      860.991
08/15/2013  18:54:00     -454.640     -122.119      -18.746      249.834      195.529      100.652    62417.182    38231.677    10130.738       16.635        5.539      470.755       91.941        0.038      348.229       27.769      861.000
08/15/2013  18:55:00     -456.261      -90.316      -30.619      192.724      166.164       84.683    37142.452    27610.490     7171.191       14.458        3.596      465.114       97.177        0.044      348.202       27.724      861.029
08/15/2013  18:56:00     -441.097      -61.973      -20.668      200.487      123.279       81.120    40194.908    15197.791     6580.392       13.039        3.099      445.429       76.171        0.029      348.228       27.768      861.061
08/15/2013  18:57:00     -688.618     -105.640      -35.940      276.408      174.210      102.654    76401.553    30349.034    10537.769       30.195        5.864      696.674      126.608        0.033      348.170       27.668      861.084
08/15/2013  18:58:00     -571.223      -97.436      -14.357      248.092      186.931      103.821    61549.729    34943.222    10778.713       22.162        5.364      579.474      103.417        0.032      348.129       27.597      861.086
08/15/2013  18:59:00     -612.679     -154.463      -36.451      287.271      240.182      102.202    82524.401    57687.267    10445.252       27.558        7.533      631.850      122.221        0.037      348.111       27.564      861.081
08/15/2013  19:00:00     -577.542      -43.510      -19.660      230.675      196.640      104.697    53211.142    38667.217    10961.413       21.932        5.142      579.179      117.615        0.041      348.088       27.524      861.110
08/15/2013  19:01:00     -478.928     -100.571       -8.175      252.747      171.793      105.271    63881.102    29513.003    11082.011       17.200        5.224      489.373      107.408        0.048      348.075       27.502      861.124
08/15/2013  19:02:00     -443.430     -100.598      -20.124      167.717      147.612       77.130    28128.872    21789.310     5949.093       13.150        2.793      454.698       73.828        0.026      348.070       27.492      861.160
08/15/2013  19:03:00     -467.805      -74.523      -22.729      227.654      166.357       89.474    51826.330    27674.740     8005.580       15.619        4.375      473.704      116.327        0.060      348.044       27.450      861.166
08/15/2013  19:04:00     -390.624      -67.525       -7.609      215.315      150.754       88.726    46360.458    22726.904     7872.261       11.707        3.848      396.418       94.974        0.057      348.037       27.437      861.180
08/15/2013  19:05:00     -469.258     -157.988      -15.850      248.360      202.366      103.705    61682.618    40952.048    10754.643       17.938        5.669      495.140      110.694        0.050      347.997       27.369      861.163
08/15/2013  19:06:00     -202.303      -23.419       23.766      178.614      150.817       85.843    31902.806    22745.816     7368.979        5.202        3.101      203.654       87.727        0.186      347.974       27.330      861.169
08/15/2013  19:07:00     -417.297      -99.715      -21.755      285.861      211.153       84.912    81716.627    44585.666     7210.013       15.901        6.676      429.045       94.577        0.049      347.987       27.351      861.158
08/15/2013  19:08:00     -532.840      -89.255      -20.424      230.918      179.175       96.011    53323.000    32103.662     9218.203       19.346        4.732      540.264       95.889        0.032      347.967       27.317      861.149
08/15/2013  19:09:00     -531.202     -123.540      -40.251      220.183      166.104      103.384    48480.550    27590.437    10688.351       19.289        4.338      545.379      116.478        0.046      347.938       27.265      861.165
08/15/2013  19:10:00     -582.092     -145.149      -33.067      288.999      180.224      105.017    83520.254    32480.838    11028.476       24.399        6.351      599.916      137.337        0.052      347.940       27.269      861.186
08/15/2013  19:11:00     -666.678     -160.301      -36.312      200.026      181.907       97.447    40010.343    33090.312     9495.890       27.702        4.130      685.679       90.783        0.018      347.924       27.241      861.183
08/15/2013  19:12:00     -365.165      -83.969       -5.630      196.476      162.128       85.441    38602.690    26285.637     7300.153       10.630        3.609      374.694       90.126        0.058      347.936       27.263      861.214
08/15/2013  19:13:00     -603.682     -117.108      -28.533      236.692      186.552       97.745    56022.888    34801.673     9553.992       23.965        5.019      614.936      107.594        0.031      347.866       27.143      861.241
08/15/2013  19:14:00     -552.701     -177.592      -13.670      249.749      163.057      100.211    62374.763    26587.500    10042.146       21.809        4.950      580.532       93.936        0.026      347.811       27.047      861.258
08/15/2013  19:15:00     -604.557      -81.842      -47.331      215.760      210.296      106.180    46552.266    44224.522    11274.205       23.822        5.103      610.072      107.243        0.031      347.814       27.053      861.238
08/15/2013  19:16:00     -689.414     -112.679      -40.689      207.769      208.102       97.878    43167.884    43306.609     9580.075       29.283        4.803      698.562       95.431        0.019      347.812       27.048      861.246
08/15/2013  19:17:00     -414.394     -126.897        0.085      213.420      121.220       85.287    45548.177    14694.172     7273.904       12.766        3.376      433.388       89.255        0.042      347.803       27.033      861.274
08/15/2013  19:18:00     -430.569      -66.363      -26.071      164.647      144.242       76.047    27108.763    20805.823     5783.095       12.208        2.685      435.653       76.471        0.031      347.787       27.006      861.318
08/15/2013  19:19:00     -656.447      -33.473      -44.414      239.793      190.904      116.918    57500.715    36444.299    13669.929       27.080        5.381      657.300      134.090        0.042      347.750       26.942      861.333
08/15/2013  19:20:00     -717.767     -158.528      -26.967      304.468      188.819      113.207    92700.590    35652.490    12815.890       34.108        7.058      735.065      139.326        0.036      347.757       26.955      861.321
08/15/2013  19:21:00     -562.873      -47.769      -17.884      174.649      209.134       96.217    30502.425    43736.826     9257.669       20.145        4.175      564.897      101.653        0.032      347.752       26.945      861.346
08/15/2013  19:22:00     -576.417     -174.258      -14.787      196.895      184.380       95.745    38767.660    33996.038     9167.147       22.237        4.097      602.182       99.311        0.027      347.727       26.903      861.338
08/15/2013  19:23:00     -468.358      -68.264      -24.557      214.869      152.510       98.925    46168.838    23259.188     9786.241       15.191        3.961      473.307      115.794        0.060      347.709       26.871      861.340
08/15/2013  19:24:00     -351.156      -90.241       -1.605      220.656      174.717       97.866    48689.268    30526.022     9577.718       11.011        4.440      362.566      117.689        0.105      347.690       26.839      861.335
08/15/2013  19:25:00     -378.201      -29.375      -13.552      152.586      130.084       79.068    23282.529    16921.901     6251.736        9.526        2.323      379.340       86.871        0.052      347.673       26.808      861.358
08/15/2013  19:26:00     -595.829      -45.882      -36.005      316.042      202.817      125.170    99882.831    41134.661    15667.523       25.752        7.834      597.593      149.249        0.062      347.671       26.804      861.334
08/15/2013  19:27:00     -432.767       26.209      -15.270      271.243      170.445      102.352    73573.029    29051.392    10475.878       15.063        5.655      433.560      124.026        0.082      347.658       26.783      861.355
08/15/2013  19:28:00     -451.147     -120.259      -28.112      289.168      148.473       97.416    83618.361    22044.312     9489.938       16.695        5.758      466.900      135.748        0.085      347.635       26.743      861.357
08/15/2013  19:29:00     -539.164     -101.820      -25.262      294.461      159.762      106.897    86707.378    25523.873    11426.904       21.266        6.183      548.694      133.685        0.059      347.616       26.712      861.395
08/15/2013  19:30:00     -431.206     -177.391       -1.393      201.408      209.568      101.454    40565.216    43918.644    10292.932       15.608        4.739      466.268       98.937        0.045      347.627       26.729      861.402
08/15/2013  19:31:00     -256.907     -107.049       -2.576      190.947      150.200       83.744    36460.568    22560.146     7013.091        7.174        3.302      278.317       86.460        0.097      347.625       26.727      861.415
08/15/2013  19:32:00     -319.817      -97.033      -18.329      183.126      131.892       76.802    33535.297    17395.507     5898.595        8.442        2.841      334.213       80.874        0.059      347.612       26.704      861.440
08/15/2013  19:33:00     -404.401     -121.501      -22.508      181.694      102.210       77.030    33012.726    10446.943     5933.635       11.409        2.470      422.259       73.842        0.031      347.575       26.642      861.468
08/15/2013  19:34:00     -453.024      -77.977       -6.907      227.375      189.699       92.616    51699.354    35985.801     8577.685       15.379        4.813      459.686       85.931        0.035      347.518       26.543      861.475
08/15/2013  19:35:00     -520.057      -79.140      -14.500      218.650      176.796       84.856    47807.840    31256.758     7200.469       18.158        4.313      526.044       89.700        0.029      347.536       26.573      861.478
08/15/2013  19:36:00     -549.337     -133.497      -20.297      224.346      184.557       86.478    50330.972    34061.317     7478.455       20.592        4.594      565.325       71.614        0.016      347.538       26.576      861.476
08/15/2013  19:37:00     -499.162      -90.819      -13.849      223.728      176.424       90.278    50054.159    31125.528     8150.062       17.345        4.466      507.357       90.635        0.032      347.532       26.566      861.476
08/15/2013  19:38:00     -425.823       -9.972      -19.091      189.206      119.144       75.208    35798.924    14195.348     5656.245       11.871        2.783      425.939       73.398        0.030      347.536       26.573      861.505
08/15/2013  19:39:00     -488.496       -8.446      -16.827      168.895      156.728       91.879    28525.672    24563.514     8441.768       15.025        3.077      488.569       81.273        0.028      347.500       26.510      861.533
08/15/2013  19:40:00     -501.346      -95.577      -16.009      227.302      159.451       93.676    51666.386    25424.735     8775.143       17.329        4.293      510.375       90.989        0.032      347.499       26.510      861.484
08/15/2013  19:41:00     -374.876      -52.598      -15.588      183.363      177.079       88.932    33622.142    31356.874     7908.987       10.820        3.644      378.548       99.402        0.069      347.476       26.469      861.537
08/15/2013  19:42:00     -350.895     -140.763       -4.428      204.112      152.445       97.861    41661.652    23239.531     9576.692       10.871        3.724      378.077      106.928        0.080      347.447       26.418      861.533
08/15/2013  19:43:00     -341.589      -46.722        4.190      217.619      103.638       80.725    47358.153    10740.799     6516.451        9.174        3.231      344.770       85.876        0.062      347.421       26.375      861.571
08/15/2013  19:44:00     -451.781     -112.297       -3.587      326.851      219.754      106.222   106831.705    48291.959    11283.190       19.154        8.320      465.529      142.961        0.094      347.412       26.360      861.538
08/15/2013  19:45:00     -345.330      -75.568       -3.782      166.585      151.710       83.627    27750.568    23015.981     6993.399        9.136        2.888      353.502       79.851        0.051      347.418       26.370      861.569
08/15/2013  19:46:00     -667.723     -193.788      -26.226      238.744      178.641      104.928    56998.795    31912.678    11009.956       29.199        4.996      695.275      114.576        0.027      347.429       26.387      861.581
08/15/2013  19:47:00     -545.875     -101.953       -7.894      215.623      160.777       86.304    46493.265    25849.236     7448.369       19.410        3.990      555.314       91.947        0.027      347.408       26.352      861.610
08/15/2013  19:48:00     -448.793      -63.272      -23.811      275.816      177.026       99.582    76074.396    31338.351     9916.641       16.164        5.866      453.231      130.261        0.083      347.380       26.303      861.626
08/15/2013  19:49:00     -236.093      -58.861       17.125      181.225      150.956       89.584    32842.375    22787.726     8025.233        6.157        3.183      243.320       97.812        0.162      347.336       26.228      861.635
08/15/2013  19:50:00     -348.231     -100.186       20.539      251.010      144.485      102.296    63005.932    20875.799    10464.376       11.302        4.717      362.356      125.293        0.120      347.353       26.258      861.655
08/15/2013  19:51:00     -458.447      -36.951       -8.047      250.293      164.981       85.740    62646.554    27218.860     7351.348       15.439        4.861      459.933      115.186        0.063      347.326       26.211      861.662
08/15/2013  19:52:00     -555.234     -136.954      -19.469      259.285      144.770      100.712    67228.867    20958.210    10142.997       21.286        4.917      571.875      106.373        0.035      347.341       26.236      861.659
08/15/2013  19:53:00     -449.952     -141.007       -5.528      223.064      190.374       89.039    49757.672    36242.106     7927.882       15.813        4.696      471.530      100.034        0.045      347.290       26.149      861.659
08/15/2013  19:54:00     -414.152      -45.851       -4.907      197.868      170.781       95.674    39151.624    29166.209     9153.453       12.555        3.874      416.682      101.290        0.059      347.283       26.136      861.678
08/15/2013  19:55:00     -394.594      -62.516      -13.195      213.137      147.829       82.243    45427.321    21853.308     6763.958       11.690        3.702      399.515       86.978        0.047      347.262       26.100      861.695
08/15/2013  19:56:00     -379.029      -94.632      -20.318      136.593      154.224       79.394    18657.714    23785.004     6303.342       10.088        2.437      390.664       74.136        0.036      347.237       26.057      861.730
08/15/2013  19:57:00     -607.901     -166.420       -5.945      276.895      228.937      117.110    76670.953    52412.103    13714.645       27.001        7.140      630.269      138.079        0.048      347.264       26.105      861.723
08/15/2013  19:58:00     -388.330     -130.143      -17.427      184.774      162.852       80.338    34141.423    26520.901     6454.273       11.757        3.356      409.558       81.097        0.039      347.241       26.063      861.725
08/15/2013  19:59:00     -613.672      -50.017      -30.106      232.189      135.523       97.106    53911.953    18366.531     9429.663       23.084        4.085      615.707      114.807        0.035      347.257       26.091      861.743
08/15/2013  20:00:00     -508.853     -133.931      -11.489      226.584      179.860       94.932    51340.294    32349.582     9012.032       18.484        4.635      526.183       96.996        0.034      347.226       26.039      861.731
08/15/2013  20:01:00     -604.035       16.386      -35.480      193.006      219.280       95.917    37251.174    48083.616     9200.117       23.044        4.727      604.257       96.031        0.025      347.219       26.026      861.740
08/15/2013  20:02:00     -439.553     -131.012       -0.280      278.070      208.029      113.968    77323.117    43275.886    12988.726       17.196        6.679      458.662      142.872        0.097      347.218       26.023      861.742
08/15/2013  20:03:00     -372.773     -129.742      -10.773      250.388      143.497       91.069    62694.099    20591.354     8293.592       12.373        4.579      394.706      108.496        0.076      347.210       26.011      861.783
08/15/2013  20:04:00     -323.637      -30.062        2.318      182.963      160.362       88.137    33475.551    25715.813     7768.061        8.629        3.348      325.030       96.143        0.087      347.181       25.961      861.814
08/15/2013  20:05:00     -457.705     -127.582      -18.673      172.623      133.288       79.974    29798.639    17765.686     6395.883       14.003        2.698      475.154       78.433        0.027      347.189       25.975      861.808
08/15/2013  20:06:00     -505.896      -89.443       -9.605      202.938      148.382       79.172    41183.788    22017.270     6268.141       16.673        3.473      513.742       89.064        0.030      347.163       25.930      861.808
08/15/2013  20:07:00     -467.751      -29.187      -15.349      191.889      152.072       86.810    36821.461    23125.787     7536.059       14.367        3.374      468.661       97.890        0.044      347.144       25.898      861.837
08/15/2013  20:08:00     -619.617      -46.496      -44.189      231.912      189.331       90.311    53783.122    35846.364     8156.025       24.290        4.889      621.359      105.424        0.029      347.159       25.923      861.830
08/15/2013  20:09:00     -317.980     -110.692        7.415      201.754      136.875       85.317    40704.866    18734.647     7278.943        9.006        3.336      336.696      105.961        0.099      347.094       25.813      861.848
08/15/2013  20:10:00     -270.037     -102.360        3.072      168.860      139.803       85.276    28513.811    19544.875     7271.963        6.936        2.767      288.787      102.680        0.126      347.143       25.895      861.841
08/15/2013  20:11:00     -460.391     -124.628      -10.265      215.728      132.978       77.820    46538.438    17683.119     6055.918       14.893        3.514      476.962       88.976        0.035      347.147       25.902      861.858
08/15/2013  20:12:00     -422.171      -55.990        2.440      227.235      157.013       90.924    51635.682    24653.189     8267.261       13.295        4.228      425.867      112.150        0.069      347.115       25.848      861.854
08/15/2013  20:13:00     -345.207      -24.994      -14.935      182.702      175.515       75.396    33379.853    30805.492     5684.568        9.493        3.493      346.110       87.065        0.063      347.117       25.851      861.896
08/15/2013  20:14:00     -452.251      -75.543      -23.295      275.153      153.401       84.065    75708.960    23531.730     7066.988       15.853        5.315      458.517      105.424        0.053      347.123       25.861      861.892
08/15/2013  20:15:00     -403.437     -100.687      -34.540      163.626      116.986       78.932    26773.390    13685.816     6230.250       11.038        2.334      415.811       70.948        0.029      347.087       25.798      861.897
08/15/2013  20:16:00     -482.983     -145.728      -19.938      198.183      181.696       82.815    39276.419    33013.597     6858.316       16.701        3.957      504.489       90.202        0.032      347.085       25.795      861.917
08/15/2013  20:17:00     -396.969      -31.656      -23.268      195.945      128.411       88.000    38394.467    16489.411     7743.913       11.087        3.131      398.229       94.228        0.056      347.038       25.715      861.943
08/15/2013  20:18:00     -465.004      -43.294      -22.171      254.461      149.358       96.029    64750.382    22307.676     9221.595       15.742        4.814      467.015      103.000        0.049      347.035       25.708      861.956
08/15/2013  20:19:00     -373.210       -2.951      -14.855      192.089      139.730       75.040    36898.261    19524.461     5631.005       10.077        3.103      373.222       91.802        0.061      347.024       25.691      861.991
08/15/2013  20:20:00     -417.069      -21.453      -29.113      187.049      145.896       72.440    34987.240    21285.775     5247.603       11.838        3.076      417.620       76.561        0.034      347.022       25.689      862.012
08/15/2013  20:21:00     -254.179      -92.760       12.798      175.576      150.662       76.843    30826.809    22699.162     5904.890        6.639        2.972      270.576       88.016        0.106      346.975       25.606      862.013
08/15/2013  20:22:00     -323.433      -39.101      -18.074      165.069      114.630       67.503    27247.907    13139.963     4556.618        7.570        2.247      325.788       66.719        0.042      346.949       25.561      862.015
08/15/2013  20:23:00     -425.144     -125.762      -20.473      222.888      184.488       99.026    49678.844    34035.649     9806.184       14.524        4.676      443.355      115.011        0.067      346.991       25.634      862.000
08/15/2013  20:24:00     -526.494     -174.153      -11.883      216.305      172.367       87.399    46787.785    29710.392     7638.550       19.589        4.207      554.550       94.242        0.029      346.989       25.630      861.983
08/15/2013  20:25:00     -510.055     -115.558      -23.575      169.911      179.457       87.347    28869.775    32204.815     7629.455       17.137        3.435      522.981       83.944        0.026      346.983       25.619      861.982
08/15/2013  20:26:00     -724.847      -34.965      -72.090      221.062      146.138       78.874    48868.475    21356.214     6221.037       30.412        3.822      725.690       86.954        0.014      346.997       25.643      861.995
08/15/2013  20:27:00     -434.263     -133.719      -23.849      162.582      121.818       77.498    26433.013    14839.604     6005.885       12.715        2.364      454.384       74.195        0.027      346.923       25.516      862.021
08/15/2013  20:28:00     -371.004      -38.238      -18.305      205.485      156.575       91.903    42224.196    24515.864     8446.231       10.730        3.759      372.970       96.698        0.067      346.899       25.475      862.043
08/15/2013  20:29:00     -328.804      -88.229        2.609      192.358      137.075       82.468    37001.784    18789.675     6800.905        8.924        3.130      340.435       95.342        0.078      346.865       25.418      862.058
08/15/2013  20:30:00     -235.905      -33.490       -6.124      123.098      102.395       55.408    15153.121    10484.807     3070.083        4.275        1.435      238.271       59.860        0.063      346.840       25.375      862.073
08/15/2013  20:31:00     -263.346      -20.266      -23.102      111.922      103.368       53.624    12526.597    10685.042     2875.507        4.819        1.304      264.125       47.652        0.033      346.848       25.387      862.075
08/15/2013  20:32:00     -350.324      -65.960      -17.660      172.564      121.727       62.350    29778.491    14817.514     3887.549        8.793        2.424      356.479       66.727        0.035      346.798       25.301      862.088
08/15/2013  20:33:00     -359.456      -29.743       -7.379      129.566      116.443       58.950    16787.249    13558.873     3475.049        8.198        1.691      360.684       59.436        0.027      346.804       25.311      862.106
08/15/2013  20:34:00     -482.919      -44.026      -39.412      176.285      176.143       75.544    31076.402    31026.329     5706.834       15.224        3.390      484.921       82.071        0.029      346.809       25.322      862.105
08/15/2013  20:35:00     -393.142      -26.371      -16.142      211.847      140.116       68.662    44879.254    19632.366     4714.432       11.236        3.461      394.026       85.150        0.047      346.758       25.232      862.120
08/15/2013  20:36:00     -595.103     -109.596      -41.312      208.324      158.253       83.928    43398.968    25043.939     7043.888       22.166        3.774      605.111       99.151        0.027      346.792       25.293      862.149
08/15/2013  20:37:00     -264.486      -44.443       -5.077      109.381      106.493       55.784    11964.226    11340.749     3111.807        4.918        1.321      268.194       50.781        0.036      346.749       25.217      862.206
08/15/2013  20:38:00     -333.969      -38.210      -15.039      147.664       94.245       57.631    21804.749     8882.044     3321.389        7.361        1.700      336.147       67.454        0.040      346.771       25.253      862.187
08/15/2013  20:39:00     -392.491       -5.451      -38.911      143.177      109.343       62.020    20499.711    11955.879     3846.527        9.594        1.815      392.529       66.509        0.029      346.755       25.228      862.208
08/15/2013  20:40:00     -334.864     -109.737       -6.811      120.890      126.354       58.208    14614.495    15965.373     3388.127        7.909        1.698      352.386       50.934        0.021      346.706       25.143      862.218
08/15/2013  20:41:00     -257.887      -47.249       11.722      152.667      114.949       64.974    23307.126    13213.298     4221.576        5.480        2.037      262.179       70.199        0.072      346.647       25.041      862.237
08/15/2013  20:42:00     -367.881      -88.339      -18.418      155.587      154.325       59.333    24207.245    23816.355     3520.396        9.750        2.577      378.339       66.775        0.031      346.666       25.074      862.252
08/15/2013  20:43:00     -436.760     -139.677      -24.966      171.198      129.494       63.446    29308.658    16768.775     4025.378       13.049        2.505      458.551       64.267        0.020      346.692       25.118      862.272
08/15/2013  20:44:00     -278.597      -92.430       -9.812      122.333       88.604       66.227    14965.289     7850.701     4386.030        5.672        1.360      293.530       60.690        0.043      346.654       25.054      862.259
08/15/2013  20:45:00     -234.883      -35.050        1.343      115.490      100.346       57.327    13337.882    10069.420     3286.425        4.154        1.335      237.484       54.916        0.053      346.601       24.963      862.292
08/15/2013  20:46:00     -346.656      -38.673      -28.312      152.361       84.673       50.346    23213.723     7169.449     2534.737        7.769        1.646      348.807       56.189        0.026      346.621       24.997      862.284
08/15/2013  20:47:00     -379.322      -33.970      -11.953      198.355      108.032       71.698    39344.563    11670.852     5140.541       10.066        2.808      380.840       90.083        0.056      346.588       24.940      862.277
08/15/2013  20:48:00     -388.272      -32.403      -26.628      176.886      143.247       71.251    31288.622    20519.608     5076.676       10.469        2.844      389.622       83.475        0.046      346.661       25.065      862.296
08/15/2013  20:49:00     -453.135      -26.335      -15.646      157.971      139.884       65.881    24954.813    19567.521     4340.269       12.756        2.443      453.900       63.538        0.020      346.677       25.092      862.300
08/15/2013  20:50:00     -461.267      -64.507      -11.094      173.413      116.673       70.043    30072.112    13612.534     4906.009       13.281        2.430      465.756       79.301        0.029      346.644       25.037      862.333
08/15/2013  20:51:00     -418.495     -118.170       -3.804      185.941      113.184       62.136    34574.029    12810.639     3860.829       12.017        2.562      434.859       65.591        0.023      346.648       25.042      862.336
08/15/2013  20:52:00     -443.811     -130.509      -21.632      151.940      126.934       64.900    23085.844    16112.204     4212.041       12.893        2.171      462.603       69.812        0.023      346.642       25.032      862.375
08/15/2013  20:53:00     -320.166     -101.479      -16.661      174.125      153.499       70.366    30319.430    23562.065     4951.333        8.595        2.942      335.863       78.079        0.054      346.593       24.950      862.367
08/15/2013  20:54:00     -478.414      -63.914      -39.743      128.284      125.644       60.061    16456.900    15786.318     3607.320       13.519        1.793      482.665       57.885        0.014      346.623       25.000      862.389
08/15/2013  20:55:00     -319.949      -62.181       -7.753      167.106      120.935       70.162    27924.301    14625.228     4922.746        7.688        2.374      325.935       79.926        0.060      346.513       24.813      862.431
08/15/2013  20:56:00     -266.598      -66.577       -9.875       95.167       96.020       53.452     9056.713     9219.768     2857.082        4.837        1.057      274.785       42.394        0.024      346.529       24.838      862.471
08/15/2013  20:57:00     -244.331      -85.292      -12.450      131.405       68.377       51.012    17267.191     4675.366     2602.184        4.583        1.227      258.791       49.547        0.037      346.549       24.875      862.495
08/15/2013  20:58:00     -206.708     -101.804       -6.031      104.480       64.181       36.849    10915.979     4119.183     1357.841        3.476        0.820      230.417       33.459        0.021      346.607       24.974      862.506
08/15/2013  20:59:00     -191.933      -53.677      -15.677       59.196       72.963       32.381     3504.222     5323.656     1048.555        2.492        0.494      199.298       26.254        0.017      346.602       24.964      862.475
08/15/2013  21:00:00     -179.621      -74.541       12.886      142.243       75.348       56.141    20233.154     5677.380     3151.840        3.352        1.453      194.473       78.514        0.163      346.529       24.838      862.504
08/15/2013  21:01:00     -278.321      -31.059      -21.008      128.977      131.651       68.282    16635.061    17332.010     4662.379        5.874        1.931      280.048       48.901        0.030      346.471       24.740      862.517
08/15/2013  21:02:00     -381.010      -14.431      -19.828      150.554      100.520       70.178    22666.570    10104.173     4924.994        9.173        1.885      381.283       78.148        0.042      346.514       24.813      862.515
08/15/2013  21:03:00     -462.755      -69.779      -18.117      170.516      129.440       76.633    29075.618    16754.834     5872.623       13.551        2.585      467.986       86.096        0.034      346.535       24.849      862.516
08/15/2013  21:04:00     -325.439      -84.894       -0.763      171.290      127.555       75.389    29340.134    16270.279     5683.536        8.220        2.565      336.330       90.160        0.072      346.486       24.766      862.542
08/15/2013  21:05:00     -393.865      -82.140      -10.609      157.534      108.095       71.387    24817.014    11684.475     5096.170       10.179        2.080      402.339       80.522        0.040      346.511       24.809      862.554
08/15/2013  21:06:00     -312.587      -62.223       -4.986      127.403      120.196       62.125    16231.406    14447.037     3859.471        6.807        1.727      318.720       61.940        0.038      346.477       24.749      862.555
08/15/2013  21:07:00     -306.986     -100.771       -0.389      106.425       99.134       53.395    11326.192     9827.528     2851.013        6.420        1.200      323.103       59.087        0.033      346.454       24.710      862.585
08/15/2013  21:08:00     -408.909     -199.534      -19.715      139.807      133.788       65.985    19545.942    17899.115     4354.069       12.460        2.090      454.995       57.878        0.016      346.524       24.830      862.592
08/15/2013  21:09:00     -382.179     -138.044      -27.269      166.458      131.291       70.803    27708.294    17237.288     5013.082       10.790        2.498      406.346       70.791        0.030      346.600       24.962      862.571
08/15/2013  21:10:00     -316.578     -155.965      -13.991      103.551      154.772       67.486    10722.758    23954.336     4554.293        8.198        1.962      352.912       64.014        0.033      346.498       24.786      862.573
08/15/2013  21:11:00     -280.105      -57.970      -10.829      140.126      104.412       63.607    19635.394    10901.822     4045.910        5.825        1.729      286.041       71.670        0.063      346.435       24.678      862.594
08/15/2013  21:12:00     -253.844      -64.015      -16.339      109.439       83.670       57.299    11976.974     7000.600     3283.128        4.553        1.113      261.791       54.761        0.044      346.421       24.652      862.594
08/15/2013  21:13:00     -252.830      -42.869       -2.161      137.789       92.298       70.254    18985.676     8518.950     4935.598        4.910        1.622      256.439       64.600        0.063      346.417       24.646      862.597
08/15/2013  21:14:00     -357.837     -142.462       -1.603      179.362      136.677       74.180    32170.892    18680.506     5502.687       10.234        2.818      385.153       83.566        0.047      346.459       24.720      862.598
08/15/2013  21:15:00     -341.007     -179.515      -27.288      171.058      138.900       72.048    29260.675    19293.294     5190.872       10.149        2.687      385.372       73.449        0.036      346.507       24.801      862.612
08/15/2013  21:16:00     -227.212     -123.591       12.868      152.438      128.524       83.779    23237.296    16518.430     7018.946        5.691        2.339      258.650       80.844        0.098      346.437       24.681      862.652
08/15/2013  21:17:00     -201.412      -87.305       -6.228      130.966      101.997       55.213    17152.142    10403.464     3048.438        3.941        1.530      219.520       59.101        0.072      346.445       24.696      862.668
08/15/2013  21:18:00     -264.544     -123.487      -22.097      163.854      134.018       55.040    26848.174    17960.826     3029.419        6.677        2.392      291.946       70.696        0.059      346.421       24.654      862.660
08/15/2013  21:19:00     -317.963      -73.786      -16.532      138.924      139.065       72.897    19299.847    19339.018     5313.945        7.538        2.198      326.412       69.463        0.045      346.408       24.630      862.658
08/15/2013  21:20:00     -268.392      -23.650      -11.496      132.888       94.582       66.159    17659.194     8945.729     4377.006        5.185        1.549      269.432       63.252        0.055      346.376       24.575      862.672
08/15/2013  21:21:00     -299.716      -58.571       -4.084      121.894      112.946       75.968    14858.163    12756.693     5771.103        6.333        1.669      305.385       71.065        0.054      346.306       24.456      862.686
08/15/2013  21:22:00     -373.466      -67.576       -7.067      137.820      114.591       68.545    18994.320    13131.188     4698.475        9.045        1.841      379.530       67.678        0.032      346.311       24.464      862.699
08/15/2013  21:23:00     -374.610     -104.919       -6.123      158.793      130.558       65.047    25215.329    17045.402     4231.111        9.893        2.325      389.026       75.809        0.038      346.360       24.546      862.707
08/15/2013  21:24:00     -183.048     -121.079        8.109      175.514      126.910       65.170    30805.068    16106.232     4247.106        4.969        2.558      219.469       74.534        0.115      346.372       24.569      862.712
08/15/2013  21:25:00     -430.307     -174.889      -12.151      190.098      171.797       71.414    36137.158    29514.254     5099.965       14.331        3.538      464.489       74.261        0.026      346.427       24.663      862.729
08/15/2013  21:26:00     -310.088     -136.089       -2.024      178.477      135.718       82.243    31854.138    18419.310     6763.878        8.585        2.852      338.636       91.073        0.072      346.398       24.614      862.756
08/15/2013  21:27:00     -271.071     -126.146        4.617      141.717      148.315       64.841    20083.769    21997.303     4204.344        6.784        2.314      298.986       65.458        0.048      346.383       24.588      862.765
08/15/2013  21:28:00     -457.057       12.044      -14.870      166.487      159.809       77.618    27717.922    25538.842     6024.627       13.426        2.964      457.215       74.449        0.027      346.407       24.629      862.780
08/15/2013  21:29:00     -358.804      -17.699      -25.612      149.869       98.414       66.396    22460.756     9685.224     4408.382        8.313        1.828      359.240       70.119        0.038      346.324       24.486      862.797
08/15/2013  21:30:00     -306.262     -117.592      -15.966      139.671      129.955       64.365    19507.984    16888.310     4142.811        7.420        2.027      328.062       68.749        0.044      346.312       24.466      862.807
08/15/2013  21:31:00     -372.237      -61.717       -8.547      136.377       91.012       65.628    18598.596     8283.199     4307.058        8.681        1.559      377.319       70.237        0.035      346.298       24.440      862.827
08/15/2013  21:32:00     -316.020      -75.322       -4.634      182.273      109.291       58.817    33223.327    11944.583     3459.466        7.709        2.431      324.872       72.004        0.049      346.257       24.370      862.819
08/15/2013  21:33:00     -296.891        5.547      -17.281      121.026      107.258       59.415    14647.343    11504.174     3530.201        5.907        1.484      296.943       58.823        0.039      346.255       24.366      862.829
08/15/2013  21:34:00     -277.968      -78.238      -18.248      145.788      120.194       57.654    21254.211    14446.567     3324.027        6.137        1.951      288.769       58.720        0.041      346.183       24.243      862.842
08/15/2013  21:35:00     -404.845      -89.866      -19.220      151.891      134.818       72.151    23070.906    18175.842     5205.764       10.939        2.323      414.699       81.172        0.038      346.237       24.337      862.835
08/15/2013  21:36:00     -376.840     -181.916      -25.374      231.231      162.342       91.349    53467.691    26355.075     8344.552       13.194        4.408      418.452      109.868        0.069      346.251       24.360      862.838
08/15/2013  21:37:00     -229.255      -31.429        5.969      243.879      112.620       79.554    59477.039    12683.152     6328.844        6.602        3.924      231.400      108.931        0.222      346.165       24.213      862.846
08/15/2013  21:38:00     -271.337      -58.116       -4.932      142.241      106.503       72.442    20232.571    11342.789     5247.898        5.692        1.841      277.491       68.457        0.061      346.226       24.318      862.859
08/15/2013  21:39:00     -227.644      -38.161      -10.829      107.431      102.385       60.730    11541.419    10482.754     3688.123        3.955        1.286      230.821       56.016        0.059      346.202       24.276      862.857
08/15/2013  21:40:00     -245.858     -162.960        5.329      115.850      101.289       60.859    13421.117    10259.560     3703.782        5.720        1.369      294.961       53.983        0.033      346.207       24.285      862.840
08/15/2013  21:41:00     -377.391     -120.517      -25.110      165.797      135.819       74.188    27488.752    18446.700     5503.789       10.450        2.572      396.166       74.350        0.035      346.167       24.216      862.834
08/15/2013  21:42:00     -162.096      -46.209       15.925      138.143       93.564       67.573    19083.526     8754.281     4566.099        3.053        1.620      168.554       82.014        0.237      346.065       24.040      862.843
08/15/2013  21:43:00     -214.066      -56.542       10.963      184.658      103.532       68.546    34098.557    10718.897     4698.613        4.932        2.476      221.407       86.278        0.152      346.113       24.125      862.827
08/15/2013  21:44:00     -321.279      -36.912      -16.869      202.185      119.054       81.371    40878.578    14173.818     6621.226        8.326        3.084      323.392       95.202        0.087      346.123       24.141      862.832
08/15/2013  21:45:00     -252.175      -26.015      -17.005      189.657      113.420       61.247    35969.797    12864.029     3751.222        5.856        2.629      253.513       56.953        0.050      346.103       24.108      862.832
08/15/2013  21:46:00     -444.112      -83.571      -27.293      190.405      125.564       80.083    36254.194    15766.260     6413.328       13.169        2.922      451.907       87.880        0.038      346.193       24.261      862.834
08/15/2013  21:47:00     -282.356     -110.962       -5.037      163.166      139.450       71.131    26623.168    19446.312     5059.657        7.159        2.556      303.377       88.548        0.085      346.145       24.179      862.821
08/15/2013  21:48:00     -346.893      -73.458      -20.899      126.542      133.618       74.049    16012.765    17853.679     5483.279        8.275        1.967      354.586       61.996        0.031      346.186       24.247      862.809
08/15/2013  21:49:00     -239.803      -55.091        3.792      155.414      111.340       63.210    24153.407    12396.578     3995.505        5.054        2.027      246.049       55.014        0.050      346.131       24.154      862.800
08/15/2013  21:50:00     -270.701      -26.844       -1.329      225.860      141.701       81.526    51012.807    20079.309     6646.569        7.586        3.887      272.029       96.530        0.126      346.097       24.095      862.808
08/15/2013  21:51:00     -349.414      -26.114      -17.319      171.748      104.344       72.688    29497.231    10887.591     5283.474        8.436        2.283      350.389       79.900        0.052      346.183       24.244      862.784
08/15/2013  21:52:00     -298.564      -61.045        7.182      224.794      145.200       86.888    50532.141    21083.023     7549.583        8.603        3.958      304.741       98.735        0.105      346.152       24.192      862.787
08/15/2013  21:53:00     -344.358      -69.775      -12.575      181.169      120.939       78.081    32822.123    14626.191     6096.661        8.857        2.677      351.356       81.587        0.054      346.209       24.289      862.787
08/15/2013  21:54:00     -305.044     -118.681        4.525      146.408      181.205       81.642    21435.331    32835.354     6665.385        8.404        3.047      327.318       75.722        0.054      346.258       24.372      862.786
08/15/2013  21:55:00     -313.309     -109.180       -4.405      159.225      193.401       83.507    25352.483    37403.903     6973.381        8.990        3.486      331.787       76.259        0.053      346.217       24.300      862.761
08/15/2013  21:56:00     -287.939     -151.340       -1.905      179.384      156.830       91.542    32178.526    24595.571     8379.972        8.547        3.258      325.289       96.265        0.088      346.251       24.361      862.753
08/15/2013  21:57:00     -286.199      -48.294       -0.629      223.028      121.126       77.509    49741.357    14671.474     6007.632        7.732        3.521      290.245      111.552        0.148      346.178       24.236      862.756
08/15/2013  21:58:00     -328.386      -75.841       11.890      268.207      140.263       97.088    71935.112    19673.571     9426.122       10.737        5.052      337.031      135.740        0.162      346.181       24.241      862.766
08/15/2013  21:59:00     -178.714      -62.142       24.691      163.002      140.153       90.805    26569.681    19642.975     8245.487        4.542        2.723      189.210       90.702        0.230      346.168       24.219      862.773
08/15/2013  22:00:00     -338.294      -74.788       -9.102      221.963      141.304       67.776    49267.747    19966.720     4593.632        9.696        3.691      346.462       89.537        0.067      346.192       24.261      862.789
08/15/2013  22:01:00     -252.938      -74.626        9.403      157.699      133.415       88.095    24869.025    17799.679     7760.813        6.002        2.521      263.718       89.720        0.116      346.132       24.156      862.792
08/15/2013  22:02:00     -220.270      -24.816       15.944      172.326      121.931       89.118    29696.132    14867.244     7941.933        5.094        2.625      221.663      105.820        0.228      346.081       24.068      862.782
08/15/2013  22:03:00     -358.904      -55.173       -8.186      184.765      141.277       82.248    34138.211    19959.317     6764.661        9.638        3.043      363.120       86.569        0.057      346.142       24.173      862.789
08/15/2013  22:04:00     -445.690     -146.784      -18.300      165.483      123.213       77.973    27384.680    15181.423     6079.726       13.457        2.432      469.239       79.358        0.029      346.164       24.210      862.804
08/15/2013  22:05:00     -271.937        1.875       -3.653      220.399      114.663       66.936    48575.660    13147.678     4480.453        7.007        3.310      271.944       96.092        0.125      346.094       24.091      862.811
08/15/2013  22:06:00     -285.885       -4.212       -8.119      184.364      103.347       65.938    33990.227    10680.622     4347.802        6.541        2.451      285.916       65.073        0.052      346.098       24.098      862.833
08/15/2013  22:07:00     -277.320      -73.322       -6.113      133.863       97.286       61.709    17919.413     9464.558     3807.972        5.675        1.560      286.849       70.246        0.060      346.083       24.072      862.838
08/15/2013  22:08:00     -499.810     -157.419      -25.559      171.162      169.419       80.534    29296.467    28702.765     6485.782       16.985        3.224      524.014       83.063        0.025      346.134       24.159      862.830
08/15/2013  22:09:00     -271.989     -127.618        9.783      245.739      144.134       87.397    60387.554    20774.748     7638.299        8.957        4.440      300.440      124.272        0.171      346.085       24.076      862.840
08/15/2013  22:10:00     -197.773      -77.182       -1.078      149.412      108.060       63.017    22324.003    11676.935     3971.205        4.152        1.899      212.300       68.717        0.105      346.066       24.045      862.861
08/15/2013  22:11:00     -149.434     -123.868      -14.612      172.529      144.897       81.286    29766.185    20995.237     6607.335        4.762        2.868      194.097       88.340        0.207      346.011       23.950      862.840
08/15/2013  22:12:00     -415.016        1.045      -18.929      192.345      123.163       79.819    36996.579    15169.036     6371.085       11.556        2.927      415.017       78.425        0.036      346.147       24.181      862.849
08/15/2013  22:13:00     -358.833      -41.253      -14.949      186.281      110.721       82.156    34700.582    12259.141     6749.647        9.219        2.685      361.197       97.971        0.074      346.116       24.128      862.860
08/15/2013  22:14:00     -358.425      -91.605      -11.211      224.798      139.002       86.054    50533.960    19321.671     7405.240       10.711        3.863      369.946      101.292        0.075      346.029       23.979      862.860
08/15/2013  22:15:00     -297.875      -87.391       -2.256      222.490      116.505       83.220    49501.924    13573.454     6925.634        8.317        3.500      310.430      114.120        0.135      346.009       23.944      862.860
08/15/2013  22:16:00     -242.746      -79.603        3.078      122.403      101.448       65.795    14982.536    10291.782     4328.923        4.743        1.480      255.465       67.571        0.070      346.016       23.957      862.869
08/15/2013  22:17:00     -254.740     -110.162        2.018      155.724      120.417       60.673    24249.959    14500.298     3681.191        5.972        2.122      277.540       68.284        0.061      345.999       23.927      862.883
08/15/2013  22:18:00     -292.932      -89.756       -8.676      123.054       94.002       48.396    15142.385     8836.348     2342.135        6.013        1.316      306.374       54.226        0.031      346.000       23.930      862.884
08/15/2013  22:19:00     -389.104      -55.929      -25.604      132.751      128.707       67.534    17622.793    16565.394     4560.887        9.696        1.937      393.103       65.240        0.028      346.063       24.037      862.881
08/15/2013  22:20:00     -153.687      -55.420        8.428      122.578      106.720       73.632    15025.333    11389.106     5421.692        2.929        1.592      163.374       74.182        0.206      346.032       23.985      862.868
08/15/2013  22:21:00     -237.611      -88.117        0.689      145.101       95.199       64.048    21054.194     9062.790     4102.108        4.922        1.711      253.424       71.865        0.080      345.962       23.864      862.891
08/15/2013  22:22:00     -180.230      -69.127        2.109      108.528      135.893       62.192    11778.388    18466.963     3867.861        3.568        1.706      193.032       58.435        0.092      345.964       23.869      862.905
08/15/2013  22:23:00     -273.511      -94.372        1.141      144.551      129.356       61.393    20894.981    16733.011     3769.044        6.255        2.070      289.334       54.782        0.036      345.992       23.917      862.914
08/15/2013  22:24:00     -297.642      -32.832       -5.657      176.804       98.185       61.078    31259.508     9640.319     3730.554        6.716        2.232      299.447       78.390        0.069      345.924       23.800      862.919
08/15/2013  22:25:00     -347.821      -51.983      -11.054      118.533      104.374       62.044    14049.972    10893.950     3849.406        7.629        1.440      351.684       65.045        0.034      345.956       23.856      862.920
08/15/2013  22:26:00     -267.452      -81.082        4.921      126.677       87.299       61.251    16046.974     7621.099     3751.737        5.277        1.371      279.472       67.022        0.058      345.905       23.766      862.935
08/15/2013  22:27:00     -299.738      -80.546       -8.019      102.068      111.502       60.791    10417.838    12432.587     3695.591        6.147        1.327      310.372       53.519        0.030      346.014       23.953      862.929
08/15/2013  22:28:00     -254.339       11.041       -0.497      113.972      125.441       52.366    12989.579    15735.409     2742.162        4.813        1.573      254.579       53.549        0.044      345.928       23.807      862.927
08/15/2013  22:29:00     -267.163      -23.170      -18.885      108.129       65.092       45.002    11691.893     4236.931     2025.179        4.511        0.898      268.166       52.528        0.038      346.019       23.962      862.931
08/15/2013  22:30:00     -317.887     -146.681      -12.690      119.309      109.832       59.006    14234.557    12063.100     3481.748        7.625        1.489      350.097       63.281        0.033      346.018       23.960      862.943
08/15/2013  22:31:00     -112.573      -35.694        8.299       93.062       85.241       46.156     8660.607     7266.033     2130.374        1.603        0.903      118.096       46.760        0.157      345.867       23.704      862.946
08/15/2013  22:32:00     -227.652      -72.633       -4.912      113.782       91.949       46.656    12946.250     8454.527     2176.753        4.035        1.179      238.958       48.566        0.041      345.911       23.777      862.923
08/15/2013  22:33:00     -253.962      -66.001        0.987      109.522       81.882       48.417    11994.991     6704.649     2344.199        4.495        1.052      262.398       51.414        0.038      345.868       23.704      862.921
08/15/2013  22:34:00     -260.933      -30.559      -13.318      107.432       81.722       45.626    11541.579     6678.412     2081.708        4.475        1.015      262.716       45.933        0.031      345.824       23.626      862.935
08/15/2013  22:35:00     -224.010      -77.273        7.506      125.118      125.456       62.933    15654.597    15739.116     3960.593        4.578        1.768      236.963       69.361        0.086      345.801       23.588      862.939
08/15/2013  22:36:00     -168.400      -28.980        8.862      134.483       84.967       54.746    18085.587     7219.395     2997.130        2.878        1.415      170.875       62.841        0.135      345.791       23.572      862.933
08/15/2013  22:37:00     -294.399      -53.770      -14.010      128.996      110.230       59.112    16639.996    12150.704     3494.255        6.102        1.614      299.270       60.157        0.040      345.894       23.748      862.929
08/15/2013  22:38:00     -222.016      -34.841       -0.570      106.400       96.923       61.575    11320.998     9394.092     3791.425        3.750        1.225      224.734       56.897        0.064      345.874       23.714      862.930
08/15/2013  22:39:00     -234.160      -85.387       -5.325      145.583       92.114       57.675    21194.539     8484.943     3326.365        4.757        1.650      249.243       61.559        0.061      345.829       23.637      862.931
08/15/2013  22:40:00     -336.751     -119.560       -0.329      179.066      144.031       69.171    32064.571    20745.062     4784.590        9.264        2.880      357.346       80.199        0.050      345.931       23.812      862.949
08/15/2013  22:41:00     -260.556     -116.656       -6.586      131.639      122.943       52.171    17328.896    15114.914     2721.796        5.835        1.758      285.479       55.755        0.038      345.950       23.844      862.950
08/15/2013  22:42:00     -225.754      -10.926      -12.041       97.361       96.415       51.581     9479.121     9295.770     2660.566        3.633        1.072      226.018       47.183        0.044      345.852       23.676      862.974
08/15/2013  22:43:00     -338.515     -124.068      -13.367      117.679       81.393       48.995    13848.302     6624.898     2400.500        7.652        1.144      360.535       51.515        0.020      345.928       23.806      863.010
08/15/2013  22:44:00     -193.126      -68.386        0.853       89.697       73.379       47.256     8045.624     5384.489     2233.111        2.882        0.783      204.876       49.037        0.057      346.014       23.953      863.012
08/15/2013  22:45:00     -134.464      -15.195        1.559       83.872       59.568       43.148     7034.573     3548.393     1861.740        1.538        0.622      135.320       47.409        0.123      345.980       23.899      862.990
08/15/2013  22:46:00     -140.385      -59.925        1.460      108.549       59.868       29.987    11782.900     3584.182      899.241        1.978        0.813      152.640       29.800        0.038      345.856       23.684      862.986
08/15/2013  22:47:00     -225.433      -49.572        7.701       77.413       77.369       45.747     5992.725     5986.006     2092.785        3.370        0.704      230.819       39.247        0.029      345.893       23.746      862.981
08/15/2013  22:48:00     -169.225      -44.912        3.020      102.585       70.319       46.086    10523.622     4944.759     2123.893        2.412        0.880      175.084       52.027        0.088      345.811       23.606      862.962
08/15/2013  22:49:00     -179.165      -29.061        7.843       91.748       96.235       46.485     8417.768     9261.181     2160.853        2.642        0.992      181.507       40.657        0.050      345.849       23.671      862.971
08/15/2013  22:50:00     -136.576      -77.427        9.624       93.668       81.124       55.044     8773.654     6581.053     3029.806        2.156        0.919      156.996       48.367        0.095      345.855       23.681      862.951
08/15/2013  22:51:00     -175.281     -101.723       -0.106      118.786       90.258       49.403    14110.008     8146.502     2440.622        3.288        1.235      202.660       51.615        0.065      345.807       23.598      862.940
08/15/2013  22:52:00     -200.452      -75.170        3.012      101.601       82.364       46.026    10322.772     6783.832     2118.399        3.253        0.961      214.083       48.304        0.051      345.877       23.718      862.949
08/15/2013  22:53:00     -178.975      -74.062       -5.148       93.090       55.651       43.495     8665.712     3097.018     1891.793        2.560        0.683      193.694       42.493        0.048      345.754       23.508      862.966
08/15/2013  22:54:00     -103.286      -78.921        4.245       69.639       62.115       36.779     4849.659     3858.243     1352.713        1.349        0.503      129.986       32.479        0.062      345.717       23.447      862.951
08/15/2013  22:55:00      -32.995      -16.098       14.275       55.986       58.520       31.893     3134.430     3424.585     1017.194        0.456        0.379       36.712       33.664        0.841      345.639       23.314      862.919
08/15/2013  22:56:00      -38.542       13.597       10.841       43.689       41.480       31.023     1908.703     1720.575      962.433        0.319        0.230       40.870       23.401        0.328      345.660       23.350      862.889
08/15/2013  22:57:00     -139.125      -81.375        2.859      115.466       90.115       44.004    13332.447     8120.766     1936.328        2.468        1.169      161.176       44.557        0.076      345.683       23.387      862.914
08/15/2013  22:58:00     -207.329     -133.010        3.653      129.798      100.296       58.005    16847.411    10059.305     3364.541        4.548        1.514      246.327       62.539        0.064      345.828       23.634      862.942
08/15/2013  22:59:00     -242.496     -112.330       -6.301      156.286      101.654       58.065    24425.363    10333.578     3371.583        5.479        1.907      267.249       67.318        0.063      346.001       23.931      862.926
08/15/2013  23:00:00     -199.573      -73.061        1.927      104.307       73.652       40.440    10879.972     5424.571     1635.367        3.155        0.897      212.526       50.687        0.057      345.930       23.810      862.936
08/15/2013  23:01:00     -184.377      -46.386      -12.535       94.273       49.518       37.316     8887.471     2452.077     1392.483        2.452        0.637      190.122       48.417        0.065      345.920       23.793      862.916
08/15/2013  23:02:00     -152.361      -56.909        0.938       87.599       70.669       36.508     7673.518     4994.071     1332.835        2.022        0.700      162.642       43.659        0.072      345.797       23.582      862.942
08/15/2013  23:03:00     -312.368      -67.191      -15.768      129.506      115.416       61.080    16771.907    13320.784     3730.792        6.807        1.691      319.513       62.872        0.039      345.792       23.573      862.958
08/15/2013  23:04:00     -335.344     -106.728      -13.371      110.740      100.084       51.827    12263.340    10016.875     2686.072        7.449        1.248      351.918       52.524        0.022      345.870       23.705      862.979
08/15/2013  23:05:00     -231.914     -150.022      -11.162      104.167      136.768       58.730    10850.747    18705.420     3449.265        5.470        1.650      276.208       61.396        0.049      345.916       23.785      862.988
08/15/2013  23:06:00     -315.152     -197.667       -6.684      133.001      109.706       61.243    17689.170    12035.441     3750.658        8.595        1.674      372.012       55.274        0.022      346.080       24.067      862.996
08/15/2013  23:07:00     -136.294     -113.916        7.559       81.133       69.872       45.366     6582.579     4882.035     2058.079        2.256        0.676      177.631       42.149        0.056      345.979       23.894      863.017
08/15/2013  23:08:00     -121.396      -71.590        1.773       64.974       55.031       32.787     4221.597     3028.364     1075.009        1.409        0.416      140.933       34.539        0.060      346.012       23.952      863.036
08/15/2013  23:09:00      -72.843      -92.822        8.087       58.581       34.948       27.179     3431.749     1221.365      738.702        0.969        0.270      117.992       27.137        0.053      346.011       23.951      863.044
08/15/2013  23:10:00      -97.474      -75.623        3.721       84.140       60.517       34.614     7079.471     3662.321     1198.118        1.358        0.597      123.370       41.216        0.112      345.896       23.753      863.045
08/15/2013  23:11:00      -62.610      -76.531        7.674       58.189       52.252       30.654     3385.995     2730.284      939.685        0.844        0.353       98.879       34.096        0.119      345.821       23.627      863.054
08/15/2013  23:12:00       -6.109      -19.674       15.770       30.840       31.420       22.944      951.116      987.225      526.426        0.157        0.123       20.600       20.016        0.944      345.522       23.113      863.061
08/15/2013  23:13:00     -132.467     -130.160       -8.223       73.177       64.744       33.257     5354.816     4191.800     1106.003        2.260        0.533      185.713       30.546        0.027      345.878       23.721      863.081
08/15/2013  23:14:00      -53.627      -13.562        2.509       44.785       39.466       28.821     2005.677     1557.596      830.643        0.373        0.220       55.316       17.578        0.101      345.684       23.390      863.109
08/15/2013  23:15:00     -135.807      -26.846       -7.634       80.750       59.156       38.883     6520.587     3499.377     1511.895        1.538        0.577      138.435       25.245        0.033      345.887       23.737      863.124
08/15/2013  23:16:00      -47.154       -0.878       16.203       91.419       73.277       49.809     8357.475     5369.553     2480.910        0.934        0.810       47.162       41.909        0.790      345.614       23.269      863.127
08/15/2013  23:17:00      -19.163      -36.796        1.661       38.998       40.889       28.945     1520.850     1671.916      837.819        0.288        0.202       41.487       21.785        0.276      345.552       23.165      863.135
08/15/2013  23:18:00        0.702      -31.112        8.489       32.251       23.179       23.726     1040.126      537.258      562.936        0.159        0.107       31.120       17.693        0.323      345.028       22.266      863.158
08/15/2013  23:19:00       31.790      -19.293       14.819       47.371       50.047       29.540     2244.032     2504.668      872.620        0.361        0.281       37.187       34.784        0.875      345.161       22.496      863.172
08/15/2013  23:20:00        3.202      -35.847       19.365       32.280       48.110       25.238     1042.026     2314.572      636.932        0.283        0.200       35.989       24.526        0.464      345.205       22.569      863.184
08/15/2013  23:21:00       28.388     -100.492        2.976       27.636       33.454       20.571      763.723     1119.151      423.172        0.661        0.115      104.425       15.092        0.021      345.630       23.297      863.202
08/15/2013  23:22:00       -1.113      -13.555       18.533       14.791       34.499       15.923      218.780     1190.200      253.529        0.110        0.083       13.601       10.579        0.605      345.319       22.764      863.229
08/15/2013  23:23:00       23.885       -0.525       12.170       39.243       23.605       22.014     1540.020      557.175      484.630        0.165        0.129       23.891       17.213        0.519      344.787       21.852      863.242
08/15/2013  23:24:00       24.546       -8.189       19.179       31.798       38.941       30.914     1011.093     1516.422      955.698        0.226        0.174       25.876       29.234        1.276      344.312       21.042      863.246
08/15/2013  23:25:00       12.323      -23.176       17.439       38.626       43.220       28.810     1491.985     1867.988      830.006        0.259        0.209       26.248       17.331        0.436      344.772       21.828      863.254
08/15/2013  23:26:00       41.207      -38.705       13.293       40.302       55.227       32.974     1624.243     3050.010     1087.286        0.457        0.288       56.534       37.520        0.440      344.813       21.897      863.274
08/15/2013  23:27:00       30.851       -5.705       17.940       44.242       42.985       31.935     1957.369     1847.676     1019.867        0.306        0.241       31.374       31.448        1.005      344.340       21.091      863.291
08/15/2013  23:28:00       31.433      -27.524       18.512       39.637       42.284       30.082     1571.100     1787.972      904.901        0.318        0.213       41.781       27.547        0.435      344.562       21.469      863.318
08/15/2013  23:29:00       73.753      -20.552        7.440       42.367       37.205       30.578     1794.973     1384.221      934.995        0.502        0.206       76.563       31.048        0.164      344.352       21.110      863.331
08/15/2013  23:30:00       63.992      -35.508       12.737       41.873       32.865       33.421     1753.336     1080.130     1116.935        0.473        0.198       73.184       22.777        0.097      344.333       21.078      863.318
08/15/2013  23:31:00        8.733        2.903       26.290       28.373       32.230       25.963      805.014     1038.752      674.058        0.165        0.126        9.202       17.746        3.719      344.411       21.211      863.310
08/15/2013  23:32:00       11.512      -98.676       -7.005       42.596       60.766       35.056     1814.388     3692.540     1228.957        0.833        0.337       99.345       33.961        0.117      345.091       22.374      863.304
08/15/2013  23:33:00      -22.118      -73.462        7.207       42.657       40.719       36.529     1819.653     1658.060     1334.352        0.537        0.241       76.719       22.372        0.085      344.983       22.190      863.315
08/15/2013  23:34:00      -26.170      -44.417       -7.306       59.602       47.612       25.921     3552.354     2266.859      671.923        0.460        0.325       51.553       22.342        0.188      345.389       22.884      863.322
08/15/2013  23:35:00      -32.934     -119.138        6.638       40.402       62.987       27.418     1632.337     3967.372      751.756        1.084        0.318      123.607       28.404        0.053      345.452       22.992      863.333
08/15/2013  23:36:00      -75.696      -54.876        4.059       59.944       36.802       28.004     3593.324     1354.410      784.211        0.724        0.287       93.494       21.186        0.051      345.156       22.484      863.338
08/15/2013  23:37:00     -127.379      -26.572        4.599       56.317       35.074       27.035     3171.591     1230.188      730.878        1.104        0.257      130.121       27.726        0.045      345.228       22.607      863.339
08/15/2013  23:38:00      -23.523      -12.497       13.978       33.131       25.749       16.546     1097.663      662.993      273.758        0.147        0.102       26.637       16.006        0.361      344.930       22.099      863.348
08/15/2013  23:39:00      -37.373      -89.717        1.724       40.695       50.454       22.037     1656.106     2545.630      485.631        0.707        0.234       97.190       30.381        0.098      345.180       22.526      863.376
08/15/2013  23:40:00      -59.766     -145.252       -5.207       26.957       26.376       14.202      726.663      695.704      201.705        1.316        0.081      157.067        6.702        0.002      345.375       22.859      863.379
08/15/2013  23:41:00      -32.780     -105.037        3.911       36.013       25.643       18.097     1296.969      657.569      327.488        0.720        0.114      110.033        9.129        0.007      345.288       22.709      863.377
08/15/2013  23:42:00      -49.920      -74.643        7.639       19.928       21.801       14.921      397.124      475.271      222.642        0.461        0.055       89.797       10.111        0.013      345.224       22.600      863.378
08/15/2013  23:43:00      -12.480      -66.933       14.429       20.555       35.576       16.500      422.502     1265.636      272.237        0.340        0.098       68.087       18.151        0.071      345.205       22.570      863.385
08/15/2013  23:44:00      -18.309      -66.669        8.212       29.673       27.017       17.547      880.473      729.892      307.895        0.338        0.096       69.138       15.975        0.053      345.207       22.572      863.379
08/15/2013  23:45:00      -37.480      -43.917       11.168       39.551       47.973       25.218     1564.264     2301.423      635.944        0.398        0.225       57.736       30.382        0.277      344.888       22.027      863.376
08/15/2013  23:46:00      -58.945      -74.118        1.328       26.457       25.126       17.986      699.958      631.304      323.505        0.531        0.083       94.700       14.607        0.024      345.140       22.458      863.374
08/15/2013  23:47:00      -59.478      -55.968        8.091       33.392       34.328       22.747     1115.020     1178.391      517.415        0.477        0.141       81.670       23.385        0.082      345.050       22.305      863.378
08/15/2013  23:48:00      -75.262      -68.927        0.951       45.813       34.786       26.761     2098.867     1210.044      716.128        0.722        0.201      102.055       27.183        0.071      345.151       22.477      863.358
08/15/2013  23:49:00      -66.803      -40.247        0.643       44.267       28.619       16.158     1959.549      819.036      261.096        0.456        0.152       77.990       19.420        0.062      345.006       22.228      863.332
08/15/2013  23:50:00      -59.822      -29.013        4.965       30.669       16.774       11.651      940.612      281.382      135.747        0.290        0.068       66.487       11.697        0.031      344.991       22.202      863.322
08/15/2013  23:51:00      -64.617      -27.431       11.325       44.500       32.977       22.393     1980.290     1087.508      501.463        0.431        0.178       70.198       23.388        0.111      344.807       21.889      863.308
08/15/2013  23:52:00      -50.424       -9.953        6.905       35.930       35.112       15.403     1290.932     1232.825      237.246        0.272        0.138       51.397       12.830        0.062      344.546       21.443      863.294
08/15/2013  23:53:00      -37.472      -47.558        5.648       48.751       25.403       25.151     2376.627      645.295      632.573        0.368        0.183       60.547       10.415        0.030      344.183       20.821      863.297
08/15/2013  23:54:00      -15.643      -41.773       12.726       42.108       33.932       27.709     1773.073     1151.398      767.763        0.292        0.185       44.606       24.530        0.302      344.287       20.999      863.295
08/15/2013  23:55:00      -88.603      -52.321        4.052       59.432       45.861       28.251     3532.191     2103.208      798.129        0.852        0.322      102.898       31.732        0.095      344.895       22.038      863.297
08/15/2013  23:56:00     -115.522      -88.802       -5.342       49.546       58.780       31.941     2454.790     3455.063     1020.246        1.409        0.347      145.709       28.827        0.039      344.884       22.020      863.281
08/15/2013  23:57:00     -117.600      -46.143       -0.945       37.683       28.372       23.571     1420.035      804.945      555.599        0.937        0.139      126.328       17.388        0.019      344.892       22.032      863.281
08/15/2013  23:58:00      -92.427      -49.725        1.381       38.500       25.660       21.048     1482.248      658.440      443.032        0.680        0.129      104.954       19.328        0.034      344.728       21.754      863.280
08/15/2013  23:59:00      -79.838      -24.482        0.635       44.430       31.671       17.071     1973.992     1003.065      291.425        0.512        0.163       83.508       17.196        0.042      344.770       21.824      863.281
